[[[{"header":{"parameterUnit":"kt","parameterCategory":2,"dx":1,"dy":1,"la1":29.285339999999998,"la2":30.599998999999997,"lo1":-89.70041500000002,"lo2":-87.6738589999976,"nx":112,"ny":82,"refTime":"2022-09-23T06:00:00:Z","depth":0,"parameterNumber":1,"parameterNumberName":"U-component_of_WINDS"},"data":[-3.3661,-3.5393,-3.5541,-2.681,-2.6968,-2.7057,-1.8674,-1.894,-2.0606,-1.9571,-2.017,-2.1294,-2.2616,-1.9264,-1.658,-1.7376,-1.4189,-1.1374,0.0,-0.9878,0.0,0.0,0.0,0.0,0.0,0.0,0.0,0.0,0.0,0.0,0.0,-4.4738,-4.4476,-4.419,-4.2963,-4.2564,-4.3176,-4.2042,-4.1418,-4.1357,-4.0958,-4.0709,-4.0677,-4.0392,-4.0234,-4.02,-4.0007,-3.9685,-3.9358,-3.9016,-3.871,-3.8435,-3.8005,-3.785,-3.8034,-3.965,-4.02,-4.0134,-4.0007,-4.0007,-4.0007,-4.0007,-4.0007,-4.0007,-4.0007,-4.0007,-3.9879,-3.949,-3.9228,-3.9032,-3.8665,-3.846,-3.8289,-3.8289,-3.7866,-3.7436,-3.7393,-3.6651,-3.5886,-3.5505,-3.4978,-3.4484,-3.4143,-3.4037,-3.4366,-3.5571,-3.5321,-3.499,-3.499,-3.4952,-3.4913,-3.4913,-3.4419,-3.3814,-3.3213,-3.289,-3.2333,-3.1371,-3.1096,-3.0668,-3.0115,-2.9855,-2.9769,-2.9769,-2.8573,-2.7975,-2.7975,-2.5038,-2.333,-2.2773,-2.0771,-2.109,-2.9892,-3.1648,-3.2107,-2.2733,-2.318,-2.3987,-1.6452,-1.6871,-1.8566,-1.7524,-1.9364,-2.0711,-1.9137,-1.756,-1.634,-1.5811,-1.3919,-1.213,0.0,0.0,0.0,0.0,0.0,0.0,0.0,0.0,0.0,0.0,-3.5304,0.0,-4.5312,-4.5649,-4.5393,-4.4857,-4.3961,-4.3662,-4.4082,-4.3077,-4.2532,-4.2503,-4.1927,-4.1538,-4.1477,-4.1234,-4.1174,-4.1112,-4.0958,-4.0865,-4.0772,-4.0393,-4.0202,-4.0168,-3.9743,-3.9575,-3.9674,-4.0834,-4.1234,-4.1174,-4.1174,-4.1081,-4.1019,-4.1019,-4.1019,-4.105,-4.1112,-4.1174,-4.1112,-4.105,-4.0865,-4.0678,-4.0647,-4.0489,-4.0299,-4.0299,-3.9848,-3.9358,-3.9292,-3.8514,-3.7777,-3.7457,-3.6831,-3.6291,-3.6004,-3.6438,-3.702,-3.754,-3.7214,-3.6884,-3.6884,-3.6884,-3.6876,-3.6839,-3.675,-3.6705,-3.666,-3.6123,-3.5278,-3.4039,-3.3631,-3.3127,-3.2511,-3.2389,-3.2348,-3.2348,-3.1549,-3.0881,-3.0423,-2.7966,-2.6276,-2.5254,-2.3606,-2.4117,-2.7265,-2.6119,-2.5605,-1.8342,-1.7781,-1.8566,-1.6846,-1.7638,-1.8716,-1.878,-1.9943,-2.0506,-1.9066,-1.7488,-1.5954,-1.4442,-1.431,0.0,0.0,0.0,0.0,0.0,0.0,0.0,0.0,-2.2939,-2.4395,0.0,-3.1833,-3.365,-4.5971,-4.6641,-4.6342,-4.555,-4.5131,-4.4719,-4.4341,-4.424,-4.4089,-4.3978,-4.3471,-4.3082,-4.2813,-4.2159,-4.1866,-4.1836,-4.1325,-4.105,-4.0896,-4.105,-4.0988,-4.0896,-4.0988,-4.0988,-4.102,-4.1658,-4.1898,-4.1866,-4.1868,-4.1684,-4.1499,-4.1499,-4.1499,-4.1531,-4.1775,-4.1868,-4.1836,-4.1561,-4.1412,-4.1262,-4.111,-4.102,-4.0896,-4.0896,-4.0865,-4.0803,-4.0521,-4.0458,-4.0174,-3.9301,-3.8909,-3.8479,-3.7768,-3.9244,-4.0522,-4.0522,-4.0428,-4.0302,-4.0302,-4.0302,-4.0238,-4.0108,-4.0107,-4.001,-3.9909,-3.9069,-3.7896,-3.6391,-3.5684,-3.5359,-3.5359,-3.5064,-3.4884,-3.4976,-3.4703,-3.3878,-3.2537,-3.1397,-3.0167,-2.8769,-2.8071,-2.767,-2.1492,-2.3593,-2.4884,-1.8407,-1.9564,-2.098,-1.6064,-1.5226,-1.5794,-1.6917,-1.6602,0.0,0.0,0.0,-1.4692,-1.4268,0.0,-1.7762,0.0,-1.9162,0.0,0.0,0.0,0.0,0.0,-3.4714,-3.6183,-4.4052,-3.86,-3.8355,-4.6238,-4.6833,-4.6774,-4.6486,-4.555,-4.5097,-4.5189,-4.4937,-4.4783,-4.4759,-4.4616,-4.4519,-4.4437,-4.3972,-4.3782,-4.3756,-4.3203,-4.2989,-4.2906,-4.2475,-4.2242,-4.2188,-4.1747,-4.2487,-4.3787,-4.3872,-4.3845,-4.3718,-4.3351,-4.3425,-4.3651,-4.344,-4.3392,-4.3333,-4.3209,-4.3351,-4.3425,-4.3182,-4.3099,-4.3044,-4.3017,-4.2878,-4.2798,-4.2798,-4.2303,-4.1743,-4.1595,-4.1203,-4.0772,-4.0395,-4.03,-4.0174,-3.9951,-4.1547,-4.2809,-4.2809,-4.2306,-4.1909,-4.1949,-4.1696,-4.1404,-4.1198,-4.0834,-4.0489,-4.0299,-3.9981,-3.9566,-3.9172,-3.8972,-3.8838,-3.8838,-3.7781,-3.7652,-3.8597,-3.5509,-3.4171,-3.4702,-3.1492,-2.9723,-2.9346,-3.0398,-3.0532,-2.0004,-2.1751,-2.3238,-1.8953,-2.0311,-2.1417,-1.6469,-1.532,-1.529,-1.5514,0.0,0.0,0.0,0.0,0.0,0.0,-1.9245,0.0,0.0,0.0,-3.0474,0.0,0.0,0.0,-4.0842,-3.9352,-4.0876,-4.7035,-4.1395,-4.0378,-4.6591,-4.709,-4.7109,-4.6929,-4.6267,-4.5947,-4.5978,-4.5661,-4.547,-4.5426,-4.5189,-4.5098,-4.5075,-4.4935,-4.4851,-4.4851,-4.4514,-4.44,-4.4341,-4.3972,-4.3845,-4.3811,-4.3597,-4.4247,-4.5314,-4.5246,-4.5144,-4.5051,-4.4742,-4.4742,-4.4838,-4.467,-4.4533,-4.4418,-4.4375,-4.4499,-4.4621,-4.4645,-4.4597,-4.4572,-4.4572,-4.4474,-4.435,-4.43,-4.387,-4.3433,-4.3334,-4.3,-4.2695,-4.2645,-4.2589,-4.2589,-4.27,-4.3618,-4.4374,-4.4325,-4.4028,-4.3763,-4.3704,-4.3533,-4.33,-4.3095,-4.275,-4.2478,-4.2216,-4.1963,-4.1675,-4.1318,-4.111,-4.0834,-4.049,-3.9686,-3.9316,-3.9438,-3.7046,-3.5532,-3.5084,-3.2734,-3.152,-3.1379,-3.2343,-3.2542,-2.097,-2.0482,-2.1184,-1.9681,-2.0194,-2.0508,-1.8341,0.0,-1.7129,-1.6555,0.0,-1.6385,-1.7972,0.0,0.0,-1.8031,0.0,0.0,-2.3433,-2.9246,-3.4178,-3.5555,-4.3204,-4.6625,-4.2358,-4.0483,-4.1815,-4.7302,-4.2342,-4.15,-4.704,-4.7437,-4.7402,-4.7168,-4.708,-4.6971,-4.6736,-4.6385,-4.6137,-4.6034,-4.5558,-4.5324,-4.5359,-4.5426,-4.5448,-4.5448,-4.5381,-4.5359,-4.5359,-4.5359,-4.5359,-4.5403,-4.5894,-4.604,-4.6034,-4.5957,-4.5992,-4.5971,-4.5872,-4.5666,-4.5448,-4.5381,-4.5224,-4.5085,-4.5348,-4.5403,-4.547,-4.5787,-4.5787,-4.5701,-4.5701,-4.5636,-4.5492,-4.5403,-4.5359,-4.5336,-4.5189,-4.5144,-4.5144,-4.5144,-4.5029,-4.5052,-4.547,-4.5514,-4.5457,-4.5346,-4.5536,-4.5645,-4.5514,-4.547,-4.5403,-4.5269,-4.5075,-4.4937,-4.482,-4.4388,-4.3803,-4.3114,-4.2659,-4.2062,-4.1383,-4.1323,-4.0725,-3.9411,-3.901,-3.7546,-3.4969,-3.4734,-3.4639,-3.4719,-3.4511,-3.438,-1.9919,-1.9812,-1.9951,-1.9645,-1.867,-1.9045,0.0,0.0,0.0,-2.8898,-2.8195,-2.6903,-2.8463,-2.8529,-2.8426,-2.8707,0.0,0.0,0.0,-3.9834,0.0,-4.6214,-4.7892,-4.8618,-4.7706,-4.7303,-4.744,-4.8349,-4.7061,-4.6761,-4.7955,-4.7916,-4.788,-4.7808,-4.7525,-4.7349,-4.7295,-4.7079,-4.6988,-4.697,-4.686,-4.6822,-4.6803,-4.6515,-4.6411,-4.6356,-4.5971,-4.5766,-4.5766,-4.5766,-4.5766,-4.5872,-4.6878,-4.7079,-4.6785,-4.6561,-4.6479,-4.6451,-4.6034,-4.6096,-4.6315,-4.5894,-4.5886,-4.6006,-4.6054,-4.6075,-4.6054,-4.5894,-4.5851,-4.583,-4.583,-4.5809,-4.5787,-4.5766,-4.5766,-4.5744,-4.5614,-4.5558,-4.5536,-4.5426,-4.5314,-4.5545,-4.6689,-4.6877,-4.6841,-4.6822,-4.686,-4.6841,-4.6747,-4.6515,-4.6295,-4.6054,-4.5744,-4.547,-4.5359,-4.5269,-4.5121,-4.4972,-4.4856,-4.4762,-4.4575,-4.4514,-4.4209,-4.3709,-4.1031,-3.9187,-3.8331,-3.6727,-3.746,-4.0215,-3.886,-3.8124,-1.9325,-1.9007,-1.8366,-1.8366,-1.71,0.0,0.0,-2.1564,-2.3437,-2.7206,-2.6948,-2.7202,-3.1002,-3.1699,-3.1951,-3.275,-3.7668,-4.1471,-4.1584,-4.599,-4.9194,-4.9194,-4.9194,-4.9194,-4.9194,-4.9194,-4.9021,-4.8711,-4.8447,-4.8302,-4.8399,-4.8283,-4.8197,-4.8197,-4.7997,-4.7848,-4.7729,-4.7584,-4.7414,-4.7223,-4.7223,-4.7223,-4.7259,-4.7115,-4.7059,-4.7005,-4.6763,-4.6651,-4.6651,-4.6651,-4.6768,-4.699,-4.7655,-4.7796,-4.7618,-4.7502,-4.7518,-4.755,-4.718,-4.718,-4.7298,-4.7021,-4.6934,-4.6935,-4.6935,-4.7058,-4.7108,-4.7058,-4.7041,-4.7042,-4.6954,-4.6954,-4.6918,-4.6863,-4.6845,-4.679,-4.6602,-4.6564,-4.6506,-4.6385,-4.6627,-4.7038,-4.7692,-4.7806,-4.779,-4.776,-4.7857,-4.7873,-4.776,-4.7614,-4.7502,-4.7348,-4.7091,-4.6934,-4.6846,-4.6685,-4.6503,-4.6376,-4.6187,-4.607,-4.5976,-4.5877,-4.5721,-4.5584,-4.3205,-4.1549,-4.0631,-4.0958,-4.1598,-4.2549,-4.1721,-4.128,-1.8622,-1.8063,-1.7192,-1.7523,-1.6173,0.0,-1.8295,-2.191,-2.5157,-2.6922,-2.7623,-2.9379,-3.4196,-3.5118,-3.5518,-3.6785,-4.0421,-4.4507,-4.8587,-4.9194,-4.9194,-4.9194,-4.9194,-4.9194,-4.9194,-4.9194,-4.9089,-4.8885,-4.8693,-4.8608,-4.8719,-4.8558,-4.8496,-4.8472,-4.842,-4.8298,-4.8109,-4.8036,-4.7817,-4.7515,-4.7464,-4.7431,-4.7431,-4.752,-4.7537,-4.7537,-4.7537,-4.7537,-4.7537,-4.7537,-4.7764,-4.8138,-4.8251,-4.8294,-4.8294,-4.8284,-4.8472,-4.8608,-4.8359,-4.8221,-4.8134,-4.8144,-4.7986,-4.7809,-4.7809,-4.7958,-4.8131,-4.8255,-4.8292,-4.8251,-4.813,-4.8124,-4.8109,-4.7999,-4.7984,-4.7903,-4.7718,-4.7671,-4.7618,-4.755,-4.805,-4.8494,-4.8494,-4.8494,-4.8433,-4.8349,-4.8494,-4.8614,-4.8482,-4.847,-4.8495,-4.8484,-4.8361,-4.8337,-4.8337,-4.8037,-4.7766,-4.755,-4.7224,-4.7007,-4.6908,-4.6793,-4.6709,-4.6709,-4.555,-4.4231,-4.2747,-4.532,-4.5882,-4.4552,-4.4254,-4.4106,-1.7148,-1.6904,-1.7475,-1.8995,-1.7039,0.0,-3.1438,-3.2578,-3.378,-4.4056,-4.6223,-4.6447,-4.7111,-4.7223,-4.7297,-4.7475,-4.797,-4.854,-4.911,-4.9194,-4.9194,-4.9194,-4.9194,-4.9194,-4.9194,-4.9194,-4.9147,-4.9128,-4.9099,-4.9089,-4.9126,-4.8874,-4.876,-4.8767,-4.8509,-4.8422,-4.8521,-4.8521,-4.8459,-4.842,-4.8211,-4.8077,-4.8077,-4.7969,-4.7951,-4.7951,-4.7951,-4.7951,-4.7951,-4.7951,-4.8181,-4.8546,-4.8544,-4.8565,-4.8577,-4.8678,-4.8758,-4.8758,-4.8611,-4.8528,-4.8542,-4.8534,-4.8509,-4.8497,-4.8497,-4.8509,-4.8522,-4.8571,-4.8571,-4.8559,-4.8534,-4.8534,-4.8534,-4.8521,-4.8521,-4.8508,-4.8496,-4.8446,-4.8497,-4.8608,-4.8678,-4.8768,-4.8768,-4.8768,-4.8768,-4.8722,-4.8768,-4.876,-4.8756,-4.8739,-4.8751,-4.8753,-4.8744,-4.8735,-4.8735,-4.868,-4.8671,-4.8624,-4.8568,-4.8549,-4.8549,-4.8389,-4.836,-4.836,-4.8059,-4.7105,-4.5441,-4.792,-4.9069,-4.8843,-4.7455,-4.6818,-1.6401,-1.6476,-1.6685,-1.676,0.0,0.0,-2.8055,-3.2111,-3.637,-4.3429,-4.7192,-4.9165,-4.9166,-4.9194,-4.9194,-4.9194,-4.9194,-4.9194,-4.9194,-4.9194,-4.9204,-4.9288,-4.9288,-4.9297,-4.9287,-4.9287,-4.9287,-4.9287,-4.9287,-4.9287,-4.9287,-4.9176,-4.911,-4.9129,-4.9042,-4.8939,-4.8819,-4.8819,-4.8751,-4.8596,-4.8484,-4.8446,-4.8433,-4.8379,-4.8338,-4.8338,-4.8338,-4.8338,-4.8365,-4.8596,-4.8793,-4.8957,-4.9026,-4.9042,-4.9051,-4.9085,-4.9218,-4.9333,-4.9123,-4.9131,-4.9256,-4.929,-4.9281,-4.9281,-4.9281,-4.9281,-4.9281,-4.9281,-4.9146,-4.9026,-4.8939,-4.891,-4.891,-4.891,-4.891,-4.8889,-4.8838,-4.8815,-4.8941,-4.9288,-4.937,-4.9366,-4.9355,-4.9337,-4.9366,-4.9355,-4.9337,-4.9352,-4.9342,-4.9337,-4.937,-4.936,-4.936,-4.936,-4.936,-4.936,-4.936,-4.936,-4.936,-4.936,-4.936,-4.929,-4.9268,-4.9268,-4.9151,-4.8717,-4.8046,-4.9064,-4.9557,-4.9551,-4.8925,-4.8587,-1.5945,0.0,0.0,0.0,0.0,0.0,-2.8876,-3.3986,-3.8884,-4.2981,-4.6677,-4.9192,-4.9176,-4.9194,-4.9194,-4.9194,-4.9204,-4.9223,-4.9223,-4.9232,-4.9297,-4.9342,-4.9388,-4.9359,-4.9385,-4.9394,-4.9394,-4.9394,-4.9394,-4.9394,-4.9394,-4.9394,-4.9356,-4.9373,-4.9373,-4.9313,-4.9138,-4.9138,-4.9059,-4.8853,-4.8841,-4.8793,-4.8793,-4.8782,-4.8734,-4.8771,-4.8774,-4.8793,-4.8933,-4.9231,-4.9323,-4.9356,-4.9471,-4.951,-4.9472,-4.9528,-4.9646,-4.9765,-4.9572,-4.959,-4.976,-4.9781,-4.9744,-4.9755,-4.9755,-4.9755,-4.9755,-4.9755,-4.9634,-4.9453,-4.937,-4.9341,-4.9318,-4.9324,-4.933,-4.9324,-4.9213,-4.9227,-4.9347,-4.9705,-4.9762,-4.9767,-4.9771,-4.9769,-4.9768,-4.9771,-4.9769,-4.9765,-4.9763,-4.9763,-4.98,-4.9836,-4.9836,-4.9836,-4.9836,-4.9836,-4.9836,-4.9836,-4.9836,-4.9836,-4.9836,-4.9829,-4.9822,-4.9819,-4.9728,-4.9667,-4.9632,-4.9545,-4.9519,-4.9565,-4.9581,-4.9576,0.0,0.0,0.0,-2.4919,-2.5512,-2.7833,-4.0791,-4.2644,-4.3009,-4.7951,-4.9082,-4.9194,-4.9194,-4.9194,-4.9194,-4.9194,-4.9288,-4.9361,-4.9361,-4.9359,-4.9385,-4.9394,-4.9394,-4.9394,-4.9394,-4.9394,-4.9394,-4.9394,-4.9394,-4.9394,-4.9394,-4.9394,-4.9373,-4.9376,-4.9376,-4.943,-4.9536,-4.9536,-4.9536,-4.9529,-4.9414,-4.936,-4.936,-4.9206,-4.9143,-4.9181,-4.9148,-4.939,-4.9704,-4.9747,-4.9753,-4.9759,-4.9753,-4.9735,-4.9777,-4.9897,-4.9951,-4.9947,-4.9791,-4.9753,-4.9762,-4.9743,-4.9748,-4.9777,-4.9777,-4.9777,-4.9777,-4.9777,-4.9777,-4.9735,-4.9735,-4.973,-4.9758,-4.9762,-4.974,-4.9745,-4.973,-4.9842,-4.9884,-4.9781,-4.9775,-4.9776,-4.9776,-4.9776,-4.9776,-4.9776,-4.9776,-4.9746,-4.9759,-4.9762,-4.981,-4.9943,-4.9943,-4.9943,-4.9943,-4.9943,-4.9943,-4.9943,-4.9943,-4.9943,-4.9943,-4.9946,-4.9955,-4.9974,-4.9976,-4.9883,-4.9753,-4.9494,-4.9447,-4.9587,-4.9587,-4.9564,-1.4489,-1.6622,-2.0396,-2.8285,-3.3145,-3.715,-4.1627,-4.4737,-4.7166,-4.8811,-4.9194,-4.9194,-4.9194,-4.925,-4.9304,-4.9304,-4.9359,-4.9368,-4.9368,-4.9385,-4.9365,-4.939,-4.9352,-4.9406,-4.9505,-4.9529,-4.9521,-4.9521,-4.9601,-4.9628,-4.9628,-4.9628,-4.9635,-4.9641,-4.9641,-4.9648,-4.9698,-4.9698,-4.9698,-4.9698,-4.9648,-4.9641,-4.9641,-4.9597,-4.9553,-4.9553,-4.9563,-4.9692,-4.9871,-4.9801,-4.9806,-4.9909,-4.9893,-4.9905,-4.9879,-4.9928,-4.9945,-4.9955,-4.9907,-4.9907,-4.9911,-4.9897,-4.9897,-4.9904,-4.9904,-4.9904,-4.9904,-4.9904,-4.9904,-4.9904,-4.9904,-4.9904,-4.9911,-4.9894,-4.99,-4.991,-4.9908,-4.9876,-4.9835,-4.9756,-4.9666,-4.9645,-4.9614,-4.9555,-4.9527,-4.9516,-4.9509,-4.9506,-4.9517,-4.9517,-4.9523,-4.9571,-4.9576,-4.9576,-4.9576,-4.9576,-4.9576,-4.9576,-4.9576,-4.9576,-4.9576,-4.9576,-4.9582,-4.9559,-4.9574,-4.9461,-4.9247,-4.9048,-4.8867,-4.8641,-4.8641,-4.8636,-1.594,-1.9783,-2.515,-3.338,-3.8645,-4.2241,-4.4018,-4.6905,-4.9194,-4.9194,-4.9213,-4.9269,-4.9269,-4.9295,-4.9394,-4.9394,-4.9365,-4.9373,-4.9373,-4.9427,-4.9443,-4.9468,-4.9438,-4.9461,-4.9551,-4.957,-4.9572,-4.9629,-4.9741,-4.9765,-4.9765,-4.9765,-4.9765,-4.9765,-4.9765,-4.9765,-4.9765,-4.9765,-4.9765,-4.9765,-4.9749,-4.976,-4.976,-4.9819,-4.9824,-4.9824,-4.9848,-4.9889,-4.9939,-4.9879,-4.9883,-4.9939,-4.9939,-4.9945,-4.9955,-4.9955,-4.9964,-4.9976,-4.9976,-4.9941,-4.9943,-4.9943,-4.9946,-4.9951,-4.9951,-4.9951,-4.9951,-4.9951,-4.9962,-4.9974,-4.9974,-4.9908,-4.9877,-4.9877,-4.9883,-4.9887,-4.988,-4.9813,-4.974,-4.9692,-4.9609,-4.9547,-4.9522,-4.9399,-4.9304,-4.9363,-4.9341,-4.9326,-4.9363,-4.9363,-4.9363,-4.9363,-4.9363,-4.9363,-4.9363,-4.9363,-4.9363,-4.9363,-4.9363,-4.9363,-4.9363,-4.9363,-4.9378,-4.9361,-4.9382,-4.9175,-4.8777,-4.86,-4.8386,-4.8212,-4.8059,-4.8035,-2.0267,-2.5389,-3.2433,-4.0238,-4.2175,-4.34,-4.811,-4.9194,-4.9194,-4.9194,-4.9288,-4.937,-4.937,-4.9368,-4.9402,-4.9402,-4.939,-4.9376,-4.9376,-4.9483,-4.9589,-4.9552,-4.9552,-4.9551,-4.9559,-4.9566,-4.9635,-4.9765,-4.977,-4.977,-4.977,-4.977,-4.977,-4.977,-4.977,-4.977,-4.977,-4.977,-4.977,-4.9776,-4.9796,-4.9787,-4.9787,-4.9901,-4.9958,-4.9958,-4.9961,-4.9938,-4.9941,-4.9943,-4.9943,-4.9946,-4.9946,-4.9946,-4.9946,-4.9946,-4.9946,-4.9948,-4.9948,-4.9955,-4.9926,-4.9926,-4.9932,-4.9939,-4.9939,-4.9939,-4.9939,-4.9939,-4.992,-4.9925,-4.9925,-4.9877,-4.9779,-4.9779,-4.9778,-4.9758,-4.9758,-4.9777,-4.97,-4.9579,-4.9546,-4.9474,-4.9341,-4.9223,-4.9163,-4.9284,-4.9232,-4.9166,-4.9304,-4.9322,-4.9322,-4.9322,-4.9322,-4.9322,-4.9322,-4.9322,-4.9322,-4.9322,-4.9322,-4.9322,-4.9322,-4.9322,-4.9319,-4.9317,-4.9301,-4.8949,-4.8352,-4.8079,-4.8021,-4.8094,-4.7733,-4.7656,-2.8671,-3.7275,-4.4668,-4.6791,-4.7288,-4.7624,-4.8895,-4.9269,-4.9306,-4.9306,-4.9342,-4.9385,-4.9381,-4.9452,-4.9521,-4.9521,-4.9529,-4.9491,-4.9491,-4.9544,-4.9574,-4.9563,-4.957,-4.9597,-4.9698,-4.9711,-4.9705,-4.9758,-4.9867,-4.9884,-4.9884,-4.9884,-4.9884,-4.9884,-4.9884,-4.9884,-4.9884,-4.9884,-4.9884,-4.9884,-4.9909,-4.9886,-4.9924,-4.9952,-4.9961,-4.9961,-4.997,-4.996,-4.9948,-4.9876,-4.9807,-4.9811,-4.981,-4.9809,-4.9809,-4.9809,-4.9808,-4.9806,-4.9803,-4.9839,-4.9837,-4.9832,-4.983,-4.9829,-4.9829,-4.9829,-4.9829,-4.9829,-4.9822,-4.9813,-4.9813,-4.9766,-4.9756,-4.9756,-4.9745,-4.9769,-4.9762,-4.9678,-4.9563,-4.9333,-4.9181,-4.9054,-4.8817,-4.8688,-4.8632,-4.8632,-4.8596,-4.862,-4.862,-4.8669,-4.8669,-4.8669,-4.8669,-4.8669,-4.8669,-4.8669,-4.8669,-4.8669,-4.8669,-4.8669,-4.8669,-4.8669,-4.8644,-4.8667,-4.8258,-4.7904,-4.7548,-4.7464,-4.731,-4.7044,-4.6952,-4.6934,-2.8752,-3.7464,-4.6457,-4.8652,-4.9194,-4.9204,-4.9269,-4.9306,-4.937,-4.9388,-4.9402,-4.9452,-4.9438,-4.9491,-4.9582,-4.9582,-4.9582,-4.9566,-4.9566,-4.9632,-4.9628,-4.9635,-4.9642,-4.9704,-4.976,-4.9763,-4.9787,-4.9842,-4.9905,-4.9955,-4.9955,-4.9955,-4.9955,-4.9955,-4.9955,-4.9955,-4.9955,-4.9962,-4.9966,-4.9966,-4.9949,-4.9958,-4.9958,-4.997,-4.9928,-4.9883,-4.9884,-4.9887,-4.9846,-4.9805,-4.976,-4.9748,-4.9779,-4.9777,-4.9777,-4.9777,-4.9772,-4.9766,-4.9759,-4.9751,-4.9743,-4.9775,-4.9728,-4.9687,-4.9687,-4.9687,-4.9687,-4.9687,-4.9701,-4.967,-4.967,-4.9678,-4.9683,-4.9683,-4.9683,-4.9614,-4.932,-4.9194,-4.911,-4.8947,-4.8854,-4.876,-4.8522,-4.8394,-4.8325,-4.8325,-4.8257,-4.8243,-4.8311,-4.8325,-4.8325,-4.8325,-4.8325,-4.8234,-4.8057,-4.8043,-4.7948,-4.7742,-4.7727,-4.7727,-4.7727,-4.7838,-4.7904,-4.7904,-4.7367,-4.7044,-4.6897,-4.6766,-4.6593,-4.6411,-4.6284,-4.6222,-2.7785,-3.4446,-4.3853,-4.8138,-4.9213,-4.9232,-4.9361,-4.9379,-4.9359,-4.9356,-4.946,-4.9582,-4.9582,-4.9582,-4.9552,-4.9567,-4.9549,-4.9566,-4.9572,-4.9692,-4.9765,-4.9776,-4.9776,-4.9765,-4.9782,-4.9791,-4.9847,-4.9955,-4.9962,-4.9962,-4.9962,-4.9962,-4.9962,-4.9962,-4.9973,-4.9942,-4.9942,-4.9923,-4.9932,-4.9935,-4.9951,-4.992,-4.9922,-4.9926,-4.9846,-4.9777,-4.9766,-4.9759,-4.9751,-4.9737,-4.9728,-4.9759,-4.9756,-4.9756,-4.9759,-4.9759,-4.9759,-4.9759,-4.9756,-4.9739,-4.9758,-4.9754,-4.9628,-4.9535,-4.9577,-4.9535,-4.9531,-4.9535,-4.9544,-4.9535,-4.9535,-4.9556,-4.9529,-4.9505,-4.9435,-4.9259,-4.8693,-4.8584,-4.8584,-4.8584,-4.8559,-4.8508,-4.8405,-4.8257,-4.8144,-4.8144,-4.805,-4.8042,-4.8167,-4.8144,-4.8144,-4.8144,-4.8159,-4.8029,-4.7586,-4.757,-4.7351,-4.6829,-4.6811,-4.6811,-4.6811,-4.6988,-4.7076,-4.6971,-4.6583,-4.6365,-4.6365,-4.6061,-4.5929,-4.5929,-4.571,-4.5589,-4.2054,-4.6312,-4.825,-4.9123,-4.933,-4.9368,-4.9377,-4.9373,-4.936,-4.936,-4.9475,-4.9582,-4.9582,-4.9582,-4.9574,-4.9563,-4.9553,-4.9616,-4.9704,-4.9759,-4.9744,-4.9758,-4.9763,-4.9782,-4.9901,-4.9921,-4.9932,-4.9976,-4.9955,-4.9967,-4.9967,-4.9967,-4.9967,-4.9967,-4.997,-4.9947,-4.9947,-4.9848,-4.9811,-4.9811,-4.9811,-4.9809,-4.9806,-4.9792,-4.9775,-4.9754,-4.9751,-4.9759,-4.9771,-4.9664,-4.9614,-4.959,-4.9591,-4.9598,-4.959,-4.959,-4.959,-4.9622,-4.9623,-4.961,-4.9597,-4.9608,-4.9498,-4.9438,-4.9542,-4.9476,-4.9394,-4.9424,-4.9431,-4.9422,-4.9422,-4.9398,-4.9339,-4.9138,-4.8841,-4.8584,-4.847,-4.8446,-4.8447,-4.8447,-4.8355,-4.827,-4.8243,-4.805,-4.7874,-4.7874,-4.7859,-4.7843,-4.7874,-4.7874,-4.7874,-4.7874,-4.7973,-4.7848,-4.7364,-4.7307,-4.7079,-4.6547,-4.6528,-4.6528,-4.6528,-4.6566,-4.629,-4.564,-4.5775,-4.5832,-4.5832,-4.5452,-4.5259,-4.5259,-4.5224,-4.5201,-3.88,-4.2153,-4.5749,-4.661,-4.811,-4.9356,-4.9381,-4.936,-4.9384,-4.9438,-4.9536,-4.9559,-4.9566,-4.958,-4.9584,-4.9663,-4.9674,-4.9684,-4.9744,-4.982,-4.9876,-4.9856,-4.9841,-4.9886,-4.9967,-4.9953,-4.9964,-4.9964,-4.991,-4.9842,-4.9842,-4.9842,-4.9842,-4.9842,-4.9848,-4.9849,-4.9849,-4.9806,-4.9761,-4.9761,-4.9759,-4.9751,-4.9777,-4.9682,-4.9659,-4.9659,-4.9678,-4.9679,-4.966,-4.9585,-4.9577,-4.9573,-4.9582,-4.9551,-4.9573,-4.9573,-4.9573,-4.9566,-4.9484,-4.9454,-4.9468,-4.9473,-4.9385,-4.9267,-4.9368,-4.9304,-4.9278,-4.9258,-4.9185,-4.9051,-4.9051,-4.896,-4.8841,-4.8728,-4.8444,-4.8167,-4.8021,-4.7984,-4.7999,-4.7999,-4.7961,-4.7884,-4.7884,-4.7816,-4.7637,-4.7362,-4.7133,-4.7007,-4.7007,-4.7007,-4.7007,-4.7007,-4.7044,-4.6933,-4.6471,-4.642,-4.6204,-4.5693,-4.5649,-4.5649,-4.5649,-4.5649,-4.5485,-4.5106,-4.5223,-4.527,-4.527,-4.4882,-4.4679,-4.4689,-4.4267,-4.4166,-3.4389,-3.7273,-4.3018,-4.5081,-4.6972,-4.8526,-4.9272,-4.9422,-4.9438,-4.9544,-4.9559,-4.9559,-4.9584,-4.9572,-4.9628,-4.9749,-4.9762,-4.975,-4.9766,-4.9888,-4.9941,-4.9898,-4.9924,-4.9922,-4.9909,-4.9921,-4.9924,-4.9924,-4.9808,-4.9763,-4.9763,-4.9763,-4.9763,-4.9763,-4.9757,-4.9754,-4.9754,-4.9772,-4.9759,-4.9759,-4.9745,-4.9734,-4.9718,-4.9619,-4.9577,-4.957,-4.9566,-4.9551,-4.9589,-4.9559,-4.9582,-4.9582,-4.9536,-4.9536,-4.9536,-4.9529,-4.9521,-4.9521,-4.9414,-4.9381,-4.9385,-4.9388,-4.9306,-4.9213,-4.9223,-4.9213,-4.9194,-4.9213,-4.8991,-4.8771,-4.8771,-4.8583,-4.8365,-4.8178,-4.7984,-4.7796,-4.757,-4.7556,-4.7556,-4.7556,-4.7573,-4.759,-4.759,-4.7606,-4.7486,-4.7079,-4.667,-4.6356,-4.6275,-4.6275,-4.6275,-4.6275,-4.6295,-4.611,-4.5731,-4.5675,-4.5452,-4.4964,-4.4916,-4.4916,-4.4916,-4.4747,-4.4674,-4.4674,-4.4674,-4.4674,-4.4674,-4.4242,-4.4038,-4.4012,-4.3386,-4.3285,-4.0314,-4.2519,-4.5071,-4.8296,-4.7026,-4.5747,-4.8867,-4.9544,-4.9544,-4.9582,-4.9573,-4.9553,-4.9559,-4.9679,-4.9744,-4.9773,-4.9754,-4.9769,-4.9744,-4.988,-4.9925,-4.9809,-4.9771,-4.9771,-4.977,-4.9764,-4.9798,-4.9798,-4.9751,-4.9744,-4.9744,-4.9744,-4.9744,-4.9744,-4.9775,-4.978,-4.978,-4.9753,-4.9765,-4.9765,-4.966,-4.9604,-4.9598,-4.9563,-4.9551,-4.9559,-4.9552,-4.9552,-4.9552,-4.9589,-4.9582,-4.9544,-4.943,-4.9384,-4.9376,-4.9381,-4.9402,-4.9402,-4.9365,-4.9356,-4.9394,-4.9385,-4.9359,-4.937,-4.9368,-4.9269,-4.9204,-4.9306,-4.9069,-4.8771,-4.8771,-4.8583,-4.8243,-4.7515,-4.7329,-4.7294,-4.7258,-4.7294,-4.7294,-4.7294,-4.7365,-4.7453,-4.7453,-4.7556,-4.7606,-4.7573,-4.7115,-4.6689,-4.6315,-4.6275,-4.6275,-4.6275,-4.6356,-4.6228,-4.5697,-4.5671,-4.545,-4.493,-4.4916,-4.4916,-4.4916,-4.4225,-4.3811,-4.3811,-4.3811,-4.3811,-4.3811,-4.3312,-4.3089,-4.3089,-4.3006,-4.3006,-3.1476,-3.4986,-3.8874,-4.0228,-4.41,-4.7634,-4.7973,-4.8048,-4.8363,-4.9354,-4.9577,-4.9585,-4.9663,-4.973,-4.9795,-4.987,-4.9898,-4.9879,-4.9887,-4.9847,-4.9805,-4.975,-4.9756,-4.9756,-4.9779,-4.9756,-4.9778,-4.9778,-4.9769,-4.9775,-4.9775,-4.9775,-4.9771,-4.9758,-4.9758,-4.9727,-4.9636,-4.9648,-4.9654,-4.9654,-4.9604,-4.957,-4.9559,-4.9582,-4.9559,-4.9582,-4.9582,-4.9582,-4.9582,-4.9483,-4.946,-4.9435,-4.9381,-4.9381,-4.9373,-4.9365,-4.9394,-4.9385,-4.9368,-4.9359,-4.9351,-4.9269,-4.9175,-4.9018,-4.8933,-4.8756,-4.8583,-4.8669,-4.837,-4.8077,-4.8077,-4.7918,-4.7611,-4.7311,-4.7223,-4.7223,-4.7223,-4.7223,-4.7223,-4.7223,-4.7294,-4.7241,-4.7023,-4.7205,-4.7133,-4.6335,-4.6239,-4.6034,-4.5304,-4.5224,-4.5224,-4.5224,-4.5236,-4.5201,-4.5001,-4.4991,-4.4896,-4.4699,-4.4492,-4.4191,-4.3632,-4.3312,-4.3154,-4.3154,-4.3154,-4.3154,-4.3154,-4.2616,-4.2357,-4.2357,-4.1565,-4.1325,-2.6656,-2.9964,-3.4137,-3.5115,-4.0679,-4.5942,-4.6206,-4.6281,-4.6911,-4.9132,-4.9591,-4.9646,-4.973,-4.9773,-4.9799,-4.9874,-4.9887,-4.9916,-4.9894,-4.9815,-4.9766,-4.9759,-4.9775,-4.9775,-4.978,-4.9746,-4.9762,-4.9762,-4.9765,-4.9753,-4.9753,-4.9741,-4.9692,-4.9705,-4.9705,-4.9661,-4.9559,-4.9584,-4.9577,-4.9577,-4.957,-4.9566,-4.9582,-4.9582,-4.9582,-4.9582,-4.9536,-4.9491,-4.9529,-4.9414,-4.9348,-4.9222,-4.911,-4.9081,-4.9081,-4.9061,-4.9099,-4.9089,-4.9038,-4.9028,-4.9018,-4.8944,-4.8774,-4.8596,-4.8485,-4.8334,-4.8197,-4.8215,-4.7933,-4.7634,-4.7634,-4.7394,-4.7187,-4.7187,-4.7187,-4.7187,-4.7187,-4.706,-4.6933,-4.6933,-4.6858,-4.6689,-4.6431,-4.6648,-4.6534,-4.5618,-4.5583,-4.545,-4.48,-4.4591,-4.4526,-4.4526,-4.4526,-4.4526,-4.4526,-4.4343,-4.4233,-4.4233,-4.3901,-4.3345,-4.2503,-4.2421,-4.2364,-4.2364,-4.2364,-4.2274,-4.213,-4.1745,-4.1507,-4.1325,-4.0424,-4.0134,-3.0166,-3.0951,-3.3052,-3.628,-3.7177,-3.8536,-4.343,-4.4521,-4.5481,-4.8868,-4.9663,-4.9777,-4.9777,-4.9778,-4.9754,-4.9754,-4.9769,-4.9756,-4.9759,-4.9746,-4.9763,-4.9776,-4.9765,-4.9765,-4.9765,-4.9765,-4.9765,-4.9765,-4.9773,-4.9761,-4.9761,-4.9654,-4.9559,-4.9559,-4.9559,-4.9559,-4.9559,-4.9549,-4.9566,-4.9566,-4.9567,-4.9589,-4.9582,-4.9582,-4.9582,-4.9582,-4.943,-4.9376,-4.9376,-4.9373,-4.9204,-4.8949,-4.8559,-4.8398,-4.8385,-4.8407,-4.8418,-4.8405,-4.8265,-4.8238,-4.8238,-4.8206,-4.8215,-4.8215,-4.8215,-4.8215,-4.8215,-4.8215,-4.7933,-4.7634,-4.7634,-4.7345,-4.7021,-4.7021,-4.7021,-4.7021,-4.7021,-4.6644,-4.6275,-4.6275,-4.5936,-4.5701,-4.5701,-4.5787,-4.5872,-4.5886,-4.5552,-4.5293,-4.5293,-4.48,-4.4526,-4.4526,-4.4526,-4.4526,-4.4526,-4.3911,-4.3559,-4.3559,-4.3056,-4.2507,-4.1839,-4.1573,-4.1452,-4.1452,-4.1452,-4.1176,-4.0645,-4.0645,-4.0391,-3.9876,-3.9846,-3.9844,-2.7821,-2.9254,-3.1327,-3.4588,-3.7139,-3.9858,-4.3751,-4.5533,-4.7007,-4.9245,-4.9727,-4.9791,-4.9871,-4.9892,-4.9885,-4.9886,-4.981,-4.975,-4.9775,-4.9758,-4.9749,-4.9765,-4.9765,-4.9765,-4.9765,-4.9765,-4.9753,-4.9773,-4.9761,-4.9711,-4.9616,-4.9604,-4.9584,-4.9549,-4.9587,-4.9573,-4.9551,-4.9574,-4.9567,-4.9567,-4.9552,-4.9536,-4.943,-4.943,-4.9414,-4.9427,-4.9204,-4.91,-4.9081,-4.88,-4.8654,-4.8571,-4.8422,-4.8331,-4.8255,-4.8265,-4.8275,-4.827,-4.8206,-4.8206,-4.8192,-4.8215,-4.8021,-4.779,-4.7817,-4.7627,-4.7411,-4.7432,-4.7329,-4.7133,-4.6787,-4.6577,-4.6431,-4.6054,-4.5992,-4.5992,-4.5992,-4.583,-4.5744,-4.5744,-4.5658,-4.546,-4.519,-4.5406,-4.5393,-4.4766,-4.4906,-4.4906,-4.4542,-4.4376,-4.425,-4.425,-4.3875,-4.3446,-4.3099,-4.2845,-4.2761,-4.2761,-4.1779,-4.1051,-4.0865,-4.0771,-4.0739,-4.0739,-4.0739,-4.0675,-4.0486,-4.0132,-3.9874,-3.9677,-3.8876,-3.8528,-2.8493,-2.9893,-3.1478,-3.4739,-3.7184,-3.982,-4.381,-4.4571,-4.5098,-4.7369,-4.7901,-4.8139,-4.8874,-5.0028,-5.064,-4.9984,-5.0348,-5.0504,-4.9862,-4.9749,-4.9765,-4.9765,-4.9753,-4.9747,-4.9747,-4.9735,-4.9685,-4.9667,-4.9685,-4.9628,-4.957,-4.9556,-4.9573,-4.9582,-4.9582,-4.9567,-4.9582,-4.9582,-4.9536,-4.9491,-4.9475,-4.9452,-4.939,-4.9284,-4.9231,-4.9232,-4.8918,-4.8771,-4.8748,-4.8485,-4.8331,-4.8261,-4.8257,-4.813,-4.7918,-4.7918,-4.7857,-4.7832,-4.7765,-4.7749,-4.7749,-4.7754,-4.7594,-4.7394,-4.7415,-4.7241,-4.7059,-4.704,-4.7021,-4.6908,-4.6275,-4.5992,-4.5744,-4.5426,-4.5324,-4.5324,-4.5324,-4.5201,-4.5121,-4.5201,-4.5016,-4.478,-4.4616,-4.4766,-4.4708,-4.4191,-4.4401,-4.4501,-4.4174,-4.4122,-4.4122,-4.4122,-4.377,-4.3312,-4.2733,-4.2252,-4.2021,-4.2021,-4.099,-4.0357,-4.0421,-4.0421,-4.0421,-4.0421,-4.0229,-4.0065,-3.9836,-3.9274,-3.8872,-3.8666,-3.7963,-3.7607,-3.1214,-3.2164,-3.3029,-3.6329,-3.7514,-3.9059,-4.3643,-4.218,-4.0696,-4.3746,-4.4448,-4.5047,-4.6762,-4.9656,-5.1302,-4.9958,-5.1068,-5.1621,-5.0142,-4.9953,-4.9953,-4.9948,-5.0037,-5.0057,-4.9943,-4.9956,-4.9898,-4.9748,-4.9851,-4.9822,-4.9596,-4.968,-4.9694,-4.9582,-4.9582,-4.9582,-4.9582,-4.9582,-4.9483,-4.9368,-4.9373,-4.9348,-4.9322,-4.9099,-4.8949,-4.8918,-4.8534,-4.8383,-4.8347,-4.8342,-4.8224,-4.7982,-4.7982,-4.7732,-4.7436,-4.7418,-4.7312,-4.7187,-4.7061,-4.7043,-4.706,-4.7058,-4.7021,-4.7021,-4.7021,-4.7057,-4.7021,-4.7021,-4.7002,-4.6815,-4.5992,-4.5426,-4.511,-4.5041,-4.5017,-4.5017,-4.5017,-4.4698,-4.4483,-4.4616,-4.4148,-4.3818,-4.4045,-4.3993,-4.3941,-4.4071,-4.4097,-4.4097,-4.4097,-4.4045,-4.4045,-4.4045,-4.3934,-4.3665,-4.3028,-4.1957,-4.1299,-4.1329,-4.0643,-4.0291,-4.0421,-4.0421,-4.0421,-4.0389,-3.9872,-3.9371,-3.8853,-3.8139,-3.7571,-3.7093,-3.7057,-3.7057,-2.9753,-3.1259,-3.3064,-3.6434,-4.0141,-4.3284,-4.4447,-4.2175,-4.0054,-4.0824,-4.102,-4.1571,-4.3251,-4.5237,-4.7303,-4.9401,-5.0078,-5.0671,-5.1583,-5.1696,-5.1684,-5.1591,-5.2704,-5.2948,-5.1677,-5.268,-5.2892,-5.1628,-5.2629,-5.2193,-4.971,-5.0709,-5.0822,-4.9619,-4.9582,-4.9582,-4.9582,-4.9483,-4.9406,-4.9365,-4.9356,-4.9222,-4.8916,-4.8854,-4.8748,-4.8534,-4.8229,-4.8124,-4.8094,-4.789,-4.7784,-4.7687,-4.7604,-4.7486,-4.7418,-4.7205,-4.7133,-4.7077,-4.7058,-4.7058,-4.7058,-4.704,-4.7021,-4.7021,-4.7021,-4.6965,-4.6872,-4.6872,-4.6815,-4.6466,-4.5155,-4.5016,-4.5051,-4.4259,-4.403,-4.403,-4.403,-4.3986,-4.3941,-4.3941,-4.3811,-4.3765,-4.3818,-4.3784,-4.3818,-4.3811,-4.3844,-4.3844,-4.3844,-4.3372,-4.3067,-4.3067,-4.2184,-4.1537,-4.1386,-4.0677,-4.0326,-4.0644,-4.0485,-4.0389,-4.0421,-4.0421,-4.0229,-3.9839,-3.9408,-3.8965,-3.8413,-3.7478,-3.6972,-3.6826,-3.6429,-3.6232,-3.141,-3.3857,-3.5667,-3.5191,-3.8241,-4.1134,-4.0419,-3.889,-3.7622,-3.763,-3.7599,-3.86,-4.1776,-4.2508,-4.4153,-4.8992,-4.9779,-5.0307,-5.1968,-5.2182,-5.2735,-5.4141,-5.4466,-5.4482,-5.4346,-5.4436,-5.4157,-5.3239,-5.3953,-5.3636,-5.1883,-5.2597,-5.2288,-5.0709,-5.0656,-5.0272,-4.9483,-5.0132,-5.0007,-4.911,-4.9091,-4.8912,-4.8607,-4.8472,-4.8355,-4.8224,-4.7951,-4.7816,-4.7752,-4.757,-4.7505,-4.7434,-4.7365,-4.733,-4.7312,-4.7133,-4.7042,-4.7041,-4.704,-4.7021,-4.7021,-4.7021,-4.7002,-4.6965,-4.6965,-4.6853,-4.6703,-4.6471,-4.5963,-4.5327,-4.4533,-4.4359,-4.4267,-4.3712,-4.3551,-4.3551,-4.3551,-4.3551,-4.3585,-4.3632,-4.3605,-4.3605,-4.3712,-4.3685,-4.3545,-4.3323,-4.3296,-4.3214,-4.2961,-4.2592,-4.2332,-4.2389,-4.1686,-4.1143,-4.0958,-4.0583,-4.0391,-4.0421,-4.0195,-3.9968,-3.9647,-3.9285,-3.8949,-3.8676,-3.8395,-3.804,-3.7579,-3.6936,-3.6559,-3.6373,-3.6081,-3.5957,-3.3295,-3.6902,-3.8819,-3.4637,-3.549,-3.7013,-3.5657,-3.479,-3.4223,-3.4194,-3.4204,-3.558,-4.0028,-3.9898,-4.1113,-4.7235,-4.8656,-4.9825,-5.2157,-5.2715,-5.3879,-5.6614,-5.5913,-5.5663,-5.6821,-5.5893,-5.5087,-5.4824,-5.5049,-5.4974,-5.4448,-5.4665,-5.4055,-5.2347,-5.2276,-5.1575,-5.014,-5.1365,-5.1169,-4.9533,-4.9479,-4.9299,-4.906,-4.857,-4.8347,-4.8233,-4.7795,-4.7522,-4.7382,-4.7382,-4.733,-4.7223,-4.7205,-4.7205,-4.7187,-4.7097,-4.7025,-4.7042,-4.7058,-4.7021,-4.7021,-4.6946,-4.6834,-4.6703,-4.6644,-4.6491,-4.6275,-4.5758,-4.4922,-4.4191,-4.4045,-4.3738,-4.3449,-4.3368,-4.334,-4.334,-4.334,-4.334,-4.3395,-4.3471,-4.3422,-4.3422,-4.3632,-4.3498,-4.322,-4.2761,-4.2649,-4.2389,-4.1952,-4.1718,-4.1598,-4.1747,-4.1538,-4.1266,-4.0834,-4.0803,-4.0646,-4.0357,-3.9932,-3.9438,-3.8851,-3.8128,-3.7607,-3.7393,-3.7234,-3.6936,-3.6531,-3.6336,-3.6091,-3.5805,-3.5805,-3.5805,-3.0557,-3.5155,-3.9682,-3.8896,-3.8112,-3.7435,-3.7172,-3.3809,-3.071,-3.0717,-3.072,-3.1377,-3.3561,-3.4924,-3.6978,-4.0737,-4.3773,-4.7648,-5.3428,-5.5491,-5.6516,-5.6899,-5.7975,-5.826,-5.7088,-5.802,-5.8124,-5.6704,-5.7898,-5.7447,-5.4598,-5.5796,-5.5806,-5.4116,-5.3941,-5.3744,-5.3481,-5.3394,-5.3191,-5.2919,-5.2583,-5.226,-5.1985,-5.0603,-4.981,-4.9414,-4.8064,-4.7401,-4.7277,-4.7277,-4.7277,-4.7205,-4.7133,-4.7061,-4.7061,-4.7041,-4.704,-4.704,-4.704,-4.7021,-4.6965,-4.6511,-4.6295,-4.6096,-4.568,-4.5359,-4.5064,-4.4523,-4.4582,-4.4582,-4.3712,-4.3738,-4.3863,-4.3444,-4.334,-4.334,-4.334,-4.334,-4.3368,-4.3368,-4.3368,-4.3368,-4.3395,-4.2943,-4.2543,-4.2454,-4.1957,-4.1568,-4.1478,-4.0989,-4.0645,-4.0676,-4.0163,-3.977,-3.9704,-3.9704,-3.977,-3.9935,-3.9869,-3.977,-3.9674,-3.8915,-3.7959,-3.6879,-3.6494,-3.6064,-3.5587,-3.524,-3.5034,-3.4956,-3.4956,-3.4956,-3.1303,-3.48,-3.8258,-3.743,-3.6677,-3.6154,-3.6165,-3.3633,-3.129,-3.1295,-3.0577,-3.0735,-3.3366,-3.3702,-3.5268,-4.0385,-4.2527,-4.521,-4.9937,-5.3551,-5.6666,-5.925,-5.9513,-5.9504,-5.959,-5.9515,-5.9139,-5.8387,-5.9026,-5.8791,-5.7139,-5.7797,-5.743,-5.576,-5.5628,-5.5506,-5.528,-5.4894,-5.4188,-5.3128,-5.2939,-5.2666,-5.2357,-5.1633,-5.1164,-5.085,-5.0131,-4.9842,-4.9748,-4.9748,-4.9729,-4.9635,-4.9596,-4.9041,-4.8272,-4.8,-4.7293,-4.6471,-4.6178,-4.6054,-4.5971,-4.5723,-4.5536,-4.5403,-4.5144,-4.569,-4.634,-4.6112,-4.6189,-4.6271,-4.5779,-4.5836,-4.5944,-4.5722,-4.5636,-4.5636,-4.5636,-4.5636,-4.5439,-4.465,-4.4518,-4.4288,-4.3472,-4.3087,-4.2657,-4.1927,-4.16,-4.1175,-4.0549,-4.013,-3.9935,-3.9998,-3.9668,-3.9468,-3.9565,-4.0127,-4.0251,-3.9665,-3.9638,-3.9438,-3.9033,-3.825,-3.7371,-3.6346,-3.5951,-3.551,-3.5073,-3.5073,-3.4995,-3.4799,-3.4799,-3.4799,-3.4576,0.0,-3.8831,-3.7627,-3.703,-3.6622,0.0,-3.4859,-3.3536,-3.316,-3.2025,-3.1912,-3.4492,-3.3922,-3.4847,-4.0344,-4.1554,-4.3077,-4.6717,-5.0773,-5.5009,-5.9524,-5.9364,-5.9364,-6.0558,-5.9966,-5.9468,-5.9459,-5.9459,-5.9393,-5.9307,-5.925,-5.863,-5.7362,-5.7301,-5.7149,-5.6859,-5.6393,-5.5434,-5.395,-5.3801,-5.3589,-5.3288,-5.2853,-5.2596,-5.2478,-5.208,-5.1877,-5.1868,-5.1868,-5.1792,-5.1674,-5.1514,-5.0725,-4.9598,-4.9076,-4.804,-4.6803,-4.6443,-4.6223,-4.6153,-4.6153,-4.5987,-4.5735,-4.5622,-4.6547,-4.7606,-4.7606,-4.7606,-4.7606,-4.7606,-4.7606,-4.7606,-4.7606,-4.7606,-4.7606,-4.7606,-4.7606,-4.7277,-4.6224,-4.5849,-4.5372,-4.4264,-4.381,-4.325,-4.224,-4.1988,-4.1539,-4.0636,-4.0431,-4.0397,-4.053,-4.0431,-4.0311,-4.0079,-4.1181,-4.137,-4.0117,-4.0057,-3.956,-3.8461,-3.7663,-3.6856,-3.5988,-3.551,-3.5073,-3.4799,-3.5073,-3.5073,-3.4799,-3.4799,-3.4799,0.0,-4.3002,-4.4337,-4.4223,-4.3034,-4.1459,-4.0016,-3.839,0.0,-3.5136,-3.4719,-3.4681,-3.4946,-3.4908,-3.5487,-3.7548,-3.9176,-4.1838,-4.6562,-4.8896,-5.1285,-5.4563,-5.6252,-5.7146,-5.7297,-5.8612,-5.9421,-5.9327,-5.9317,-5.9307,-5.9305,-5.9168,-5.9061,-5.8938,-5.891,-5.8913,-5.8891,-5.8262,-5.7888,-5.7746,-5.7114,-5.6801,-5.6745,-5.5018,-5.427,-5.4153,-5.2577,-5.1812,-5.173,-5.173,-5.1695,-5.1633,-5.1056,-5.0647,-5.0382,-4.9871,-4.9539,-4.9335,-4.9284,-4.9284,-4.9259,-4.9259,-4.881,-4.8248,-4.7749,-4.7623,-4.7606,-4.7606,-4.7606,-4.7606,-4.7606,-4.7606,-4.7606,-4.7606,-4.7606,-4.7606,-4.7606,-4.7606,-4.7573,-4.7475,-4.6894,-4.6363,-4.6267,-4.5131,-4.4207,-4.4102,-4.3601,-4.3167,-4.3088,-4.3088,-4.3088,-4.3088,-4.3088,-4.2579,-4.1381,-4.2459,-4.2778,-4.1869,-4.1793,-4.0927,-3.8917,-3.8078,-3.7126,-3.5988,-3.524,-3.4799,-3.4799,-3.4799,-3.4799,-3.4799,-3.4799,-3.4799,-4.3911,-4.5205,-4.6238,-4.5158,-4.4411,-4.3547,-4.1958,-4.033,-3.8588,-3.6918,-3.5743,-3.4984,-3.4984,-3.4984,-3.5868,-3.8534,-3.9484,-4.1636,-4.6571,-4.8633,-5.085,-5.4052,-5.6863,-5.8537,-5.8537,-5.9101,-5.9412,-5.9317,-5.928,-5.924,-5.9168,-5.9099,-5.9104,-5.9097,-5.8858,-5.8721,-5.8721,-5.8088,-5.7727,-5.7764,-5.7345,-5.7102,-5.6984,-5.6233,-5.5841,-5.5714,-5.4992,-5.4677,0.0,-5.4252,-5.4138,-5.4057,-5.3404,-5.2538,-5.158,-5.1139,-5.0154,-4.9043,-4.8717,-4.8495,-4.8388,-4.8388,-4.8188,-4.7961,-4.7758,-4.892,-5.0304,-5.0304,-5.0304,-5.0304,-5.0304,-5.0304,-5.0304,-5.0304,-5.0304,-5.0304,-5.0304,-5.0304,-4.9883,-4.849,-4.8007,-4.7359,-4.5973,-4.5313,-4.4798,-4.4374,-4.4089,-4.3832,-4.3394,-4.3357,-4.3357,-4.3357,-4.3357,-4.3507,-4.3769,-4.4278,-4.4075,-4.2903,-4.2314,-4.1659,-4.086,-3.9524,-3.8562,-3.8139,-3.7379,-3.6949,-3.6949,-3.6949,-3.6621,-3.5882,-3.5882,-3.5486,-4.6683,-4.7334,-4.7952,-4.68,-4.6506,-4.5941,-4.3782,-4.242,-4.094,-3.8777,-3.7411,-3.6578,-3.6578,-3.6578,-3.7499,-4.0244,-4.0696,-4.238,-4.7349,-4.8944,-5.0786,-5.4052,-5.6449,-5.8086,-5.8612,-5.912,-5.9393,-5.9297,-5.924,-5.9189,-5.9093,-5.9093,-5.9108,-5.91,-5.8821,-5.8696,-5.8696,-5.8057,-5.7692,-5.7729,-5.7307,-5.704,-5.6958,-5.6796,-5.6632,-5.6581,-5.6448,-5.6381,-5.6336,-5.5824,-5.5704,-5.5752,-5.4767,-5.3763,-5.2813,-5.2171,-5.1014,-4.9731,-4.938,-4.9108,-4.8988,-4.8988,-4.8988,-4.8988,-4.8988,-5.037,-5.1883,-5.1883,-5.1883,-5.1883,-5.1883,-5.1883,-5.1883,-5.1883,-5.1883,-5.1883,-5.1883,-5.1884,-5.1391,-4.9952,-4.9224,-4.8393,-4.6895,-4.6249,-4.5745,-4.5302,-4.5259,-4.5073,-4.4653,-4.4577,-4.4577,-4.4577,-4.4577,-4.4821,-4.541,-4.546,-4.4847,-4.3374,-4.2688,-4.203,-4.1321,-4.019,-3.9446,-3.9096,-3.8569,-3.8294,-3.8294,-3.8294,-3.7915,-3.7096,-3.7096,-3.6674,-4.9522,-4.9958,-4.9941,-4.9953,-4.9962,-4.906,-4.5683,-4.4886,-4.3975,-4.0714,-4.0031,-4.0031,-4.0031,-4.0031,-4.0603,-4.2282,-4.2484,-4.4132,-4.9057,-4.9683,-5.0805,-5.405,-5.4448,-5.5124,-5.6816,-5.8379,-5.9297,-5.9295,-5.9158,-5.9093,-5.91,-5.91,-5.91,-5.91,-5.91,-5.91,-5.91,-5.8424,-5.8109,-5.8109,-5.7309,-5.6958,-5.6958,-5.6689,-5.6545,-5.6581,-5.6448,-5.6381,-5.6336,-5.5824,-5.5895,-5.6187,-5.4508,-5.4011,-5.4061,-5.29,-5.2241,-5.1883,-5.1883,-5.1883,-5.1883,-5.1883,-5.1883,-5.1883,-5.1883,-5.1883,-5.1883,-5.1883,-5.1883,-5.1883,-5.1883,-5.1883,-5.1883,-5.1883,-5.1883,-5.1883,-5.1883,-5.1785,-5.1751,-5.1884,-5.0498,-4.9384,-4.9537,-4.8283,-4.7239,-4.7239,-4.7239,-4.7239,-4.7239,-4.7239,-4.7239,-4.7239,-4.7239,-4.6875,-4.5948,-4.5864,-4.51,-4.3304,-4.3168,-4.2171,-3.9982,-3.9839,-3.9383,-3.8347,-3.832,-3.832,-3.832,-3.832,-3.832,-3.832,-3.832,-3.832,-4.9807,-4.997,-4.9943,-4.9962,-4.9968,-4.906,-4.5683,-4.4886,-4.3975,-4.0714,-4.0031,-4.0031,-4.0031,-4.0031,-4.0604,-4.2285,-4.347,-4.5448,-4.9227,-5.0678,-5.2557,-5.5818,-5.6215,-5.6892,-5.8575,-5.9158,-5.9384,-5.9305,-5.9158,-5.9093,-5.91,-5.91,-5.91,-5.91,-5.8821,-5.8683,-5.8683,-5.8041,-5.7658,-5.7569,-5.7134,-5.6937,-5.6817,-5.6668,-5.6545,-5.6581,-5.6448,-5.6381,-5.6336,-5.5824,-5.5374,-5.4932,-5.4039,-5.341,-5.2961,-5.2624,-5.2338,-5.2177,-5.2177,-5.208,-5.1883,-5.1883,-5.1883,-5.1883,-5.1883,-5.1883,-5.1883,-5.1883,-5.1883,-5.1883,-5.1883,-5.1883,-5.1883,-5.1883,-5.1883,-5.1883,-5.1883,-5.1421,-5.0878,-5.0393,-4.939,-4.8521,-4.8012,-4.753,-4.7239,-4.7239,-4.7239,-4.7239,-4.7239,-4.7239,-4.7239,-4.7239,-4.7239,-4.6875,-4.5948,-4.6476,-4.6032,-4.423,-4.4098,-4.3515,-4.2243,-4.144,-4.0938,-4.0595,-4.0595,-4.0595,-4.0595,-4.0595,-4.0595,-4.0595,-3.9778,-3.9383,-4.9955,-4.9967,-4.9948,-4.9943,-4.9941,-4.9253,-4.6534,-4.539,-4.4165,-4.1585,-4.0523,-4.026,-4.0909,-4.1033,-4.195,-4.4951,-4.6172,-4.8137,-5.215,-5.3471,-5.5017,-5.7644,-5.7973,-5.8349,-5.9402,-5.9459,-5.9374,-5.9295,-5.9174,-5.9108,-5.91,-5.91,-5.91,-5.91,-5.8709,-5.8526,-5.8526,-5.7809,-5.7443,-5.7352,-5.6973,-5.6753,-5.6689,-5.6559,-5.6493,-5.6493,-5.6404,-5.6381,-5.6336,-5.5824,-5.5449,-5.5112,-5.4123,-5.3498,-5.3144,-5.2687,-5.2338,-5.2112,-5.2112,-5.2014,-5.1883,-5.1883,-5.1883,-5.1883,-5.1883,-5.1883,-5.1883,-5.1883,-5.1883,-5.1883,-5.1883,-5.1883,-5.1883,-5.1883,-5.1883,-5.1818,-5.1421,-5.088,-5.0255,-4.95,-4.8605,-4.7894,-4.753,-4.7199,-4.7067,-4.7148,-4.7148,-4.7148,-4.7148,-4.7199,-4.7229,-4.7148,-4.7199,-4.6875,-4.5948,-4.6061,-4.5527,-4.4054,-4.3564,-4.3114,-4.2574,-4.1925,-4.1596,-4.1596,-4.1596,-4.1596,-4.1596,-4.1596,-4.1596,-4.157,-4.0885,-4.0569,-4.9976,-4.9958,-4.9953,-4.9955,-4.9951,-4.9527,-4.7835,-4.6235,-4.4662,-4.2911,-4.1471,-4.0869,-4.2092,-4.2597,-4.4332,-4.8796,-4.9821,-5.1722,-5.6466,-5.7171,-5.7748,-5.9289,-5.9477,-5.9477,-5.9477,-5.9346,-5.9297,-5.9295,-5.9179,-5.91,-5.91,-5.91,-5.9089,-5.9028,-5.8657,-5.8421,-5.8393,-5.7654,-5.7278,-5.7259,-5.6808,-5.6581,-5.6559,-5.6426,-5.6381,-5.6381,-5.6381,-5.6381,-5.6336,-5.5824,-5.5824,-5.6013,-5.4392,-5.3898,-5.3892,-5.2807,-5.2209,-5.1883,-5.1883,-5.1883,-5.1883,-5.1883,-5.1883,-5.1883,-5.1883,-5.1883,-5.1883,-5.1883,-5.1883,-5.1883,-5.1883,-5.1851,-5.1851,-5.1851,-5.1818,-5.1554,-5.0603,-5.0181,-4.9786,-4.9025,-4.8098,-4.746,-4.7707,-4.7169,-4.6782,-4.7016,-4.7056,-4.7056,-4.7056,-4.7148,-4.7189,-4.7016,-4.7067,-4.6752,-4.5822,-4.5014,-4.4098,-4.3077,-4.2224,-4.169,-4.1596,-4.1596,-4.1596,-4.1596,-4.1596,-4.1596,-4.1596,-4.1596,-4.1596,-4.1596,-4.1596,-4.1596,-4.9976,-4.9958,-4.9943,-4.9964,-4.9951,-4.9504,-4.7822,-4.7146,-4.6087,-4.3183,-4.3254,-4.3182,-4.099,-4.3736,-4.6684,-4.777,-5.11,-5.4396,-5.6805,-5.8188,-5.9064,-5.944,-5.9477,-5.9477,-5.9477,-5.9346,-5.9297,-5.9295,-5.9184,-5.9082,-5.91,-5.91,-5.8969,-5.8657,-5.8271,-5.7908,-5.7585,-5.712,-5.685,-5.6745,-5.6632,-5.6501,-5.6426,-5.6381,-5.6381,-5.6381,-5.6381,-5.6381,-5.6336,-5.5824,-5.5239,-5.4608,-5.3716,-5.2983,-5.2365,-5.2111,-5.1982,-5.1883,-5.1883,-5.1883,-5.1883,-5.1883,-5.1883,-5.1883,-5.1883,-5.1883,-5.1883,-5.1883,-5.1883,-5.1884,-5.1785,-5.1751,-5.1718,-5.1651,-5.1214,-5.0562,-4.9537,-4.8976,-4.859,-4.8399,-4.7719,-4.7148,-4.732,-4.7199,-4.7148,-4.7189,-4.7189,-4.7189,-4.7189,-4.7229,-4.7078,-4.6782,-4.6423,-4.578,-4.4885,-4.4624,-4.3787,-4.2065,-4.2501,-4.2455,-4.1643,-4.1596,-4.1596,-4.1596,-4.1596,-4.1596,-4.1596,-4.1596,-4.1596,-4.1596,-4.1596,-4.1596,-4.9862,-4.9924,-4.9944,-4.9887,-5.049,-5.0865,-4.9955,-4.9763,-4.9042,-4.6544,-4.6052,-4.5596,-4.3888,-4.6255,-4.897,-5.0603,-5.3631,-5.6336,-5.8023,-5.8966,-5.9477,-5.9477,-5.9477,-5.9477,-5.9477,-5.9374,-5.9278,-5.9295,-5.9174,-5.9097,-5.91,-5.91,-5.8908,-5.854,-5.7956,-5.7551,-5.7352,-5.6896,-5.661,-5.6545,-5.6515,-5.6448,-5.6381,-5.6381,-5.6381,-5.6381,-5.6381,-5.6381,-5.6301,-5.5693,-5.5128,-5.46,-5.3629,-5.2952,-5.2428,-5.2176,-5.2014,-5.1883,-5.1883,-5.1883,-5.1883,-5.1883,-5.1883,-5.1883,-5.1883,-5.1883,-5.1883,-5.1883,-5.1883,-5.1883,-5.1818,-5.1751,-5.1585,-5.1146,-5.0801,-5.028,-4.9353,-4.8636,-4.8042,-4.741,-4.6956,-4.6659,-4.66,-4.66,-4.6641,-4.6752,-4.6752,-4.6752,-4.6752,-4.6875,-4.6711,-4.5948,-4.5654,-4.5157,-4.4406,-4.3921,-4.3294,-4.2363,-4.2363,-4.2158,-4.1643,-4.1596,-4.1596,-4.1596,-4.1596,-4.1596,-4.1596,-4.1596,-4.1596,-4.1596,-4.1596,-4.1596,-4.9824,-4.9842,-4.9887,-4.9797,-5.0813,-5.1842,-5.184,-5.2081,-5.1801,-5.0105,-4.8965,-4.8173,-4.789,-4.9242,-5.1552,-5.4932,-5.7021,-5.8725,-6.0116,-6.0304,-6.0116,-5.9552,-5.9477,-5.9477,-5.9421,-5.9345,-5.9285,-5.9237,-5.9168,-5.91,-5.91,-5.91,-5.8908,-5.854,-5.7805,-5.737,-5.7202,-5.6751,-5.6523,-5.6523,-5.6426,-5.6381,-5.6381,-5.6381,-5.6381,-5.6359,-5.6255,-5.621,-5.6105,-5.5304,-5.4879,-5.4723,-5.3542,-5.3013,-5.2799,-5.2401,-5.208,-5.1883,-5.1883,-5.1883,-5.1883,-5.1883,-5.1883,-5.1883,-5.1883,-5.1883,-5.1883,-5.1883,-5.1883,-5.1883,-5.1884,-5.1653,-5.1282,-5.0667,-5.0245,-4.9813,-4.9231,-4.8437,-4.746,-4.6476,-4.6257,-4.6186,-4.6019,-4.6019,-4.6103,-4.6299,-4.634,-4.634,-4.634,-4.6464,-4.6186,-4.5157,-4.4914,-4.4568,-4.3849,-4.2959,-4.2501,-4.2758,-4.1971,-4.1455,-4.1455,-4.1502,-4.1549,-4.1549,-4.1596,-4.1596,-4.1549,-4.1549,-4.1549,-4.1549,-4.1549,-4.1549,-4.9915,-4.9849,-4.9798,-4.975,-4.9941,-5.0097,-5.0105,-5.1253,-5.1799,-5.0097,-5.0783,-5.1189,-4.9725,-5.191,-5.5025,-5.8301,-6.1372,-6.3453,-6.3678,-6.3716,-6.2663,-5.9815,-5.9477,-5.9459,-5.9336,-5.9325,-5.9237,-5.9136,-5.9108,-5.91,-5.91,-5.91,-5.8908,-5.854,-5.8067,-5.748,-5.6696,-5.6479,-5.6404,-5.6404,-5.6381,-5.6381,-5.6381,-5.6381,-5.6381,-5.6359,-5.5895,-5.5561,-5.5269,-5.4283,-5.3663,-5.3279,-5.2652,-5.224,-5.2046,-5.1981,-5.1949,-5.1883,-5.1883,-5.1883,-5.1883,-5.1883,-5.1883,-5.1883,-5.1883,-5.1883,-5.1883,-5.1883,-5.1883,-5.1884,-5.1752,-5.1047,-5.0355,-5.0347,-4.9,-4.7758,-4.7994,-4.7059,-4.6199,-4.6228,-4.6257,-4.634,-4.6535,-4.6576,-4.6576,-4.6618,-4.6618,-4.6618,-4.6618,-4.6423,-4.5936,-4.5014,-4.429,-4.3581,-4.2685,-4.169,-4.1075,-4.1123,-4.098,-4.0884,-4.0884,-4.1123,-4.1265,-4.1265,-4.1502,-4.1502,-4.1265,-4.1265,-4.1265,-4.1265,-4.1265,-4.1407,-4.9583,-4.9797,-4.9745,-4.9776,-5.0481,-5.1172,-5.118,-5.244,-5.3393,-5.2657,-5.3073,-5.3376,-5.2619,-5.4377,-5.6448,-5.794,-6.0092,-6.1611,-6.1611,-6.1611,-6.1094,-5.9665,-5.9477,-5.9421,-5.9317,-5.9278,-5.9227,-5.9126,-5.9097,-5.91,-5.91,-5.8896,-5.9013,-5.9602,-5.8303,-5.8149,-5.9307,-5.8208,-5.7237,-5.6381,-5.6381,-5.6381,-5.6381,-5.6381,-5.6164,-5.5706,-5.5452,-5.5128,-5.46,-5.3687,-5.3223,-5.3013,-5.2303,-5.1982,-5.1883,-5.1883,-5.1883,-5.1883,-5.1883,-5.1883,-5.1883,-5.1883,-5.1883,-5.1883,-5.1883,-5.1587,-5.122,-5.122,-5.088,-5.0463,-5.039,-4.9859,-4.9168,-4.8794,-4.8012,-4.725,-4.7008,-4.6629,-4.634,-4.6464,-4.6382,-4.6257,-4.6228,-4.6228,-4.6228,-4.6228,-4.6228,-4.6228,-4.6228,-4.5683,-4.4885,-4.3937,-4.3068,-4.2224,-4.146,-4.101,-4.0744,-4.0814,-4.0814,-4.0814,-4.0814,-4.0932,-4.098,-4.098,-4.1123,-4.1123,-4.098,-4.098,-4.098,-4.098,-4.098,-4.1028,-4.9579,-4.9766,-4.9761,-4.976,-5.0709,-5.1652,-5.1647,-5.2848,-5.3968,-5.3973,-5.4336,-5.472,-5.5145,-5.6185,-5.741,-5.8771,-5.997,-6.0718,-6.0718,-6.0718,-6.0417,-5.959,-5.943,-5.9393,-5.9307,-5.9257,-5.9206,-5.9104,-5.9086,-5.91,-5.91,-5.9155,-5.9558,-6.0434,-5.8811,-5.8879,-6.081,-5.9017,-5.7523,-5.6381,-5.6381,-5.6359,-5.6301,-5.6164,-5.573,-5.5169,-5.4853,-5.4404,-5.3892,-5.3163,-5.2833,-5.2707,-5.2143,-5.1883,-5.1883,-5.1883,-5.1883,-5.1883,-5.1883,-5.1883,-5.1883,-5.1883,-5.1883,-5.1883,-5.1883,-5.132,-5.0673,-5.0673,-5.0006,-4.9274,-4.9274,-4.8794,-4.8153,-4.7646,-4.727,-4.6897,-4.6352,-4.6382,-4.6464,-4.6464,-4.6299,-4.6103,-4.5906,-4.5864,-4.5864,-4.5864,-4.5864,-4.5864,-4.5864,-4.5271,-4.4378,-4.3104,-4.2382,-4.1596,-4.0603,-4.0506,-4.0577,-4.067,-4.067,-4.067,-4.067,-4.0718,-4.0766,-4.0766,-4.0814,-4.0814,-4.0766,-4.0766,-4.0766,-4.0766,-4.0766,-4.0766,-5.0176,-4.9745,-4.9746,-4.9755,-4.984,-4.991,-4.988,-5.1088,-5.2244,-5.2242,-5.348,-5.5076,-5.6561,-5.6888,-5.8509,-6.3199,-6.4054,-6.4092,-6.4092,-6.4092,-6.2926,-5.9853,-5.9355,-5.9307,-5.9305,-5.9168,-5.9104,-5.9112,-5.91,-5.91,-5.91,-6.0246,-6.075,-6.0434,-5.9852,-5.9449,-5.9203,-5.7409,-5.6453,-5.6381,-5.6381,-5.6314,-5.6151,-5.555,-5.5159,-5.4956,-5.3852,-5.3279,-5.3103,-5.256,-5.2177,-5.1949,-5.1916,-5.1883,-5.1883,-5.1883,-5.1883,-5.1883,-5.1883,-5.1883,-5.1883,-5.1883,-5.1883,-5.1883,-5.1883,-5.1253,-5.0565,-5.0565,-4.9791,-4.9025,-4.9025,-4.8238,-4.7528,-4.7716,-4.6867,-4.599,-4.6228,-4.6103,-4.5906,-4.5906,-4.5864,-4.5864,-4.5864,-4.5864,-4.5864,-4.5864,-4.5864,-4.5864,-4.5864,-4.5822,-4.5071,-4.3149,-4.3023,-4.2343,-4.0429,-4.0235,-4.0235,-4.0261,-4.0284,-4.0284,-4.0284,-4.048,-4.0677,-4.0677,-4.0792,-4.0792,-4.0677,-4.0677,-4.0677,-4.0677,-4.0677,-4.0722,-5.0974,-5.0596,-4.9776,-4.9776,-4.9765,-4.9753,-4.9767,-5.0176,-5.0874,-5.1868,-5.2599,-5.3826,-5.6466,-5.6938,-5.7898,-6.0755,-6.1207,-6.1207,-6.1207,-6.1207,-6.0793,-5.9627,-5.9355,-5.9297,-5.9295,-5.9163,-5.9086,-5.91,-5.91,-5.8993,-5.8721,-5.8994,-5.9436,-6.0072,-5.8613,-5.8686,-6.0559,-5.7802,-5.6881,-5.7867,-5.6845,-5.6082,-5.555,-5.5319,-5.4697,-5.3739,-5.3308,-5.283,-5.2302,-5.2111,-5.1982,-5.1883,-5.1883,-5.1883,-5.1883,-5.1883,-5.1883,-5.1818,-5.1219,-5.1047,-5.091,-5.0255,-5.0149,-5.0252,-5.0046,-4.9432,-4.8794,-4.8794,-4.8028,-4.723,-4.723,-4.6837,-4.6459,-4.6541,-4.6211,-4.5864,-4.6019,-4.5906,-4.5864,-4.5864,-4.5864,-4.5864,-4.5864,-4.5864,-4.5864,-4.5864,-4.5864,-4.5864,-4.5864,-4.4813,-4.3732,-4.3014,-4.1965,-4.098,-4.0284,-4.0235,-4.0235,-4.0235,-4.0235,-4.0235,-4.0235,-4.0309,-4.0358,-4.0358,-4.0406,-4.0455,-4.0358,-4.0358,-4.0358,-4.0358,-4.0358,-4.0406,-5.0292,-5.0179,-4.9776,-4.977,-4.9753,-4.9741,-4.9711,-4.9692,-5.0005,-5.1041,-5.1666,-5.2704,-5.4861,-5.6169,-5.7334,-5.8462,-5.9101,-5.9477,-5.9477,-5.9477,-5.9468,-5.9412,-5.9327,-5.9278,-5.9227,-5.9168,-5.9028,-5.8908,-5.8896,-5.8746,-5.8401,-5.8588,-5.9081,-5.9868,-5.837,-5.8512,-6.0562,-5.7779,-5.6881,-5.7902,-5.6881,-5.5954,-5.5194,-5.4723,-5.3937,-5.2983,-5.2769,-5.2397,-5.1883,-5.1883,-5.1883,-5.1883,-5.1883,-5.1883,-5.1883,-5.1883,-5.1653,-5.1219,-5.0603,-5.0248,-4.9926,-4.9242,-4.9131,-4.9205,-4.9025,-4.8383,-4.7676,-4.7676,-4.6948,-4.6145,-4.6145,-4.6019,-4.5864,-4.5864,-4.5864,-4.5864,-4.5864,-4.5864,-4.5864,-4.5864,-4.5864,-4.5864,-4.5864,-4.5864,-4.5864,-4.5864,-4.5864,-4.5864,-4.5864,-4.4465,-4.3495,-4.3514,-4.1828,-4.0728,-4.077,-4.0416,-4.0235,-4.0235,-4.0235,-4.0235,-4.0235,-4.0235,-4.0235,-4.0235,-4.0235,-4.0235,-4.0235,-4.0235,-4.0235,-4.0235,-4.0235,-4.0041,-4.8243,-4.8532,-4.9708,-4.9755,-4.9779,-4.9711,-4.9604,-4.9563,-4.9551,-4.9552,-5.0785,-5.1829,-5.1904,-5.459,-5.6808,-5.6892,-5.8312,-5.9402,-5.9402,-5.944,-5.9459,-5.9327,-5.9278,-5.9227,-5.9126,-5.906,-5.892,-5.854,-5.8513,-5.8387,-5.8109,-5.9157,-5.9776,-5.9772,-5.9303,-5.8957,-5.8822,-5.7198,-5.6381,-5.6359,-5.6359,-5.5989,-5.5134,-5.3739,-5.3016,-5.2805,-5.2175,-5.1883,-5.1883,-5.1883,-5.1883,-5.1883,-5.1883,-5.1883,-5.1883,-5.1851,-5.1117,-5.011,-5.0074,-4.9573,-4.8951,-4.8913,-4.8882,-4.8913,-4.8913,-4.8191,-4.7369,-4.7369,-4.6634,-4.5864,-4.5864,-4.5864,-4.5864,-4.5864,-4.5864,-4.5864,-4.5864,-4.5864,-4.5864,-4.5864,-4.5864,-4.5864,-4.5864,-4.5864,-4.5864,-4.5864,-4.5864,-4.5864,-4.5864,-4.51,-4.4545,-4.4625,-4.2772,-4.164,-4.1713,-4.0823,-4.0235,-4.0235,-4.0235,-4.0235,-4.0235,-4.0235,-4.0235,-4.0235,-4.0235,-4.0235,-4.0235,-4.0235,-4.0235,-4.0235,-4.0235,-3.9625,-5.049,-4.9455,-4.8231,-4.9452,-4.9759,-4.9735,-4.961,-4.9553,-4.9556,-4.9559,-4.992,-5.0559,-5.1679,-5.2664,-5.3679,-5.4936,-5.6553,-5.7635,-5.7635,-5.8688,-5.9459,-5.9327,-5.9278,-5.9216,-5.9097,-5.8834,-5.8606,-5.8489,-5.833,-5.8041,-5.7586,-5.7881,-5.7892,-5.7638,-5.7385,-5.7233,-5.7189,-5.6663,-5.6336,-5.6233,-5.6233,-5.5836,-5.5033,-5.4193,-5.3193,-5.2175,-5.1981,-5.1883,-5.1883,-5.1818,-5.1784,-5.1784,-5.1784,-5.1718,-5.1551,-5.0878,-5.039,-4.9854,-4.8612,-4.8037,-4.7746,-4.6959,-4.6867,-4.6989,-4.6797,-4.6541,-4.6294,-4.6294,-4.6086,-4.5864,-4.5864,-4.5864,-4.5864,-4.5864,-4.5864,-4.5864,-4.5864,-4.5864,-4.5864,-4.5864,-4.5864,-4.5864,-4.5864,-4.5864,-4.5864,-4.5864,-4.5864,-4.5864,-4.5864,-4.51,-4.3988,-4.2605,-4.1353,-4.0654,-4.0694,-4.0439,-4.0235,-4.0235,-4.0235,-4.0235,-4.0235,-4.0235,-4.0235,-4.0235,-4.0235,-4.0235,-4.0235,-4.0235,-4.0235,-4.0235,-4.0235,-4.0041,-4.7608,-4.6172,-4.471,-4.7064,-4.7132,-4.7126,-4.912,-4.9019,-4.8728,-4.9409,-4.9582,-4.9845,-5.0747,-5.1461,-5.2251,-5.3199,-5.4778,-5.6105,-5.6689,-5.7607,-5.8429,-5.904,-5.9071,-5.9003,-5.8846,-5.8657,-5.8378,-5.8113,-5.7961,-5.7694,-5.7198,-5.7196,-5.7018,-5.6675,-5.6589,-5.6559,-5.6493,-5.6426,-5.6314,-5.6187,-5.5907,-5.5354,-5.4565,-5.3943,-5.3013,-5.1883,-5.1883,-5.1884,-5.1818,-5.1751,-5.1652,-5.1651,-5.1651,-5.1584,-5.1415,-5.0422,-4.9563,-4.8667,-4.7667,-4.7099,-4.6693,-4.6074,-4.5977,-4.6061,-4.5906,-4.5864,-4.5864,-4.5864,-4.5864,-4.5864,-4.5864,-4.5864,-4.5864,-4.5864,-4.5864,-4.5864,-4.5864,-4.5864,-4.5864,-4.5864,-4.5864,-4.5864,-4.5864,-4.5864,-4.5864,-4.5864,-4.5864,-4.5864,-4.5864,-4.5399,-4.4334,-4.2382,-4.2134,-4.1752,-4.0948,-4.0467,-4.0235,-4.0235,-4.0235,-4.0235,-4.0235,-4.0235,-4.0235,-4.0235,-4.0235,-4.0235,-4.0235,-4.0235,-4.0235,-4.0235,-4.0235,-3.9992,-4.1673,-4.0687,-4.0562,-4.3446,-4.3035,-4.3067,0.0,-4.7461,-4.6969,-4.8657,-4.9176,-4.9319,-4.9544,-5.0709,-5.1649,-5.1649,-5.3048,-5.4605,-5.5843,-5.6204,-5.6919,-5.8324,-5.8407,-5.8341,-5.8448,-5.8444,-5.8159,-5.757,-5.7516,-5.7311,-5.6979,-5.6937,-5.6796,-5.6523,-5.6559,-5.6493,-5.6381,-5.6381,-5.6255,-5.6059,-5.5477,-5.4758,-5.3892,-5.3279,-5.2614,-5.1883,-5.1883,-5.1818,-5.1718,-5.1718,-5.1585,-5.1483,-5.1483,-5.1415,-5.1179,-5.0066,-4.8629,-4.7199,-4.7118,-4.6559,-4.5864,-4.5864,-4.5864,-4.5864,-4.5864,-4.5864,-4.5864,-4.5864,-4.5864,-4.5864,-4.5864,-4.5864,-4.5864,-4.5864,-4.5864,-4.5864,-4.5864,-4.5864,-4.5864,-4.5864,-4.5864,-4.5864,-4.5864,-4.5864,-4.5864,-4.5864,-4.5864,-4.5822,-4.5738,-4.5612,-4.4856,-4.3014,-4.3644,-4.3481,-4.1763,-4.0772,-4.0235,-4.0235,-4.0235,-4.0235,-4.0235,-4.0235,-4.0235,-4.0235,-4.0235,-4.0235,-4.0235,-4.0235,-4.0235,-4.0235,-4.0235,-3.9625,0.0,0.0,0.0,0.0,0.0,0.0,0.0,-4.2387,-4.3569,-4.5167,-4.6582,-4.7973,-4.9319,-4.9807,-4.9995,-4.9995,-5.1348,-5.2455,-5.2618,-5.4807,-5.6301,-5.6098,-5.5969,-5.6499,-5.8039,-5.7912,-5.7675,-5.7516,-5.7347,-5.707,-5.6838,-5.6817,-5.6689,-5.6426,-5.6426,-5.6404,-5.6381,-5.6381,-5.5977,-5.5244,-5.5109,-5.4377,-5.3077,-5.2989,-5.2556,-5.1883,-5.1883,-5.1883,-5.1851,-5.1618,-5.1417,-5.1214,-5.1214,-5.067,-4.9786,-4.8283,-4.756,-4.7118,-4.6394,-4.6032,-4.5864,-4.5864,-4.5864,-4.5864,-4.5864,-4.5864,-4.5864,-4.5864,-4.5864,-4.5864,-4.5864,-4.5864,-4.5864,-4.5864,-4.5864,-4.5864,-4.5864,-4.5864,-4.5864,-4.5864,-4.5864,-4.5864,-4.5864,-4.5864,-4.5864,-4.5864,-4.5864,-4.5612,-4.4885,-4.407,-4.3104,-4.1991,-4.1401,-4.0931,-4.0566,-4.0363,-4.0235,-4.0235,-4.0235,-4.0235,-4.0235,-4.0235,-4.0235,-4.0235,-4.0235,-4.0235,-4.0235,-4.0235,-4.0235,-4.0235,-4.0235,-3.9625,0.0,0.0,0.0,0.0,0.0,0.0,0.0,0.0,0.0,0.0,0.0,-4.5122,-4.6732,0.0,-4.8574,-4.9431,-5.0111,-5.0766,-5.1351,-5.2585,-5.3363,-5.3104,-5.365,-5.4734,-5.6491,-5.647,-5.6642,-5.7275,-5.7226,-5.7025,-5.676,-5.676,-5.6632,-5.6381,-5.6381,-5.6323,-5.6255,-5.5931,-5.5477,-5.4914,-5.4289,-5.3629,-5.2866,-5.2524,-5.2207,-5.1883,-5.1883,-5.1883,-5.1851,-5.1618,-5.1313,-5.1041,-5.1041,-5.0209,-4.8869,-4.8128,-4.726,-4.6476,-4.6032,-4.5864,-4.5864,-4.5864,-4.5864,-4.5864,-4.5864,-4.5864,-4.5864,-4.5864,-4.5864,-4.5864,-4.5864,-4.5864,-4.5864,-4.5864,-4.5864,-4.5864,-4.5864,-4.5864,-4.5864,-4.5864,-4.5864,-4.5864,-4.5864,-4.5864,-4.5864,-4.5864,-4.5864,-4.5527,-4.4624,-4.407,-4.3177,-4.1758,-4.117,-4.0718,-4.0284,-4.0235,-4.0235,-4.0235,-4.0235,-4.0235,-4.0235,-4.0235,-4.0235,-4.0235,-4.0235,-4.0235,-4.0235,-4.0235,-4.0235,-4.0212,-3.9625,-3.8759,0.0,0.0,0.0,0.0,0.0,0.0,0.0,0.0,0.0,0.0,0.0,0.0,0.0,0.0,0.0,-4.88,-4.9134,-4.9527,-5.0542,-5.027,-5.0188,-5.0584,-5.1615,-5.2924,-5.4474,-5.4911,-5.555,-5.6604,-5.6962,-5.7025,-5.676,-5.676,-5.6632,-5.6381,-5.6381,-5.6301,-5.6187,-5.5526,-5.5042,-5.4653,-5.3571,0.0,-5.265,-5.2143,-5.1883,-5.1883,-5.1883,-5.1883,-5.1851,-5.1618,-5.1313,-5.1004,-5.0967,-4.999,-4.8598,-4.8291,-4.689,-4.5225,-4.569,-4.5719,-4.5574,-4.5806,-4.5864,-4.5864,-4.5864,-4.5864,0.0,-4.5864,-4.5864,-4.5864,-4.5864,-4.5864,-4.5864,-4.5864,-4.5864,-4.5864,-4.5864,-4.5864,-4.5864,-4.5864,-4.5864,-4.5864,-4.5864,-4.5569,-4.5285,-4.5285,-4.5285,-4.4985,-4.4098,-4.3965,-4.3294,-4.1523,-4.1313,-4.1028,-4.0284,-4.0057,-4.0032,-4.0235,-4.0057,-3.9882,-3.9882,-3.9653,-3.9701,-3.9856,-3.9653,-3.9803,-4.0235,-4.0235,-4.0235,-4.0161,-3.75,-3.62,0.0,0.0,0.0,0.0,0.0,0.0,0.0,0.0,0.0,0.0,0.0,0.0,0.0,0.0,0.0,0.0,-4.8347,-4.9126,-4.9053,-4.8514,-4.8643,-5.0061,-5.0236,-5.0892,-5.2448,-5.3858,-5.478,-5.4903,-5.6275,-5.7025,-5.676,-5.676,0.0,0.0,0.0,-5.6301,-5.6187,-5.5526,-5.4828,-5.4145,-5.3396,-5.2676,-5.2014,-5.1916,-5.1883,-5.1883,-5.1883,-5.1883,-5.1851,-5.1618,-5.1483,-5.1415,-5.1039,-5.0312,-4.9279,-4.7855,-4.5341,-4.2927,-4.5108,0.0,0.0,-4.5545,-4.5864,-4.5864,-4.5864,-4.5864,-4.5864,-4.5864,-4.5864,-4.5864,-4.5864,-4.5864,-4.5864,-4.5864,-4.5864,-4.5864,-4.5864,-4.5864,-4.5864,-4.5864,-4.5864,-4.5864,-4.5864,-4.4437,-4.3284,-4.3284,-4.3284,-4.2968,-4.2038,-4.1945,-4.1549,-4.0526,-4.0381,0.0,-4.0235,-3.9297,-3.9144,-4.0184,-3.9271,-3.869,-3.869,-3.7674,-3.7623,-3.8665,-3.7674,-3.8178,-4.0235,-4.0235,-4.0235,-4.0034,-3.2061,-3.0058,0.0,0.0,0.0,0.0,0.0,0.0,0.0,0.0,0.0,0.0,0.0,0.0,0.0,0.0,0.0,0.0,-4.6633,-4.7429,-4.7251,-4.7683,-4.8231,-4.872,-4.8664,-4.9213,-5.0749,-5.1507,-5.2302,-5.3205,-5.4758,-5.5598,-5.5425,-5.6272,-5.6632,-5.6381,-5.6381,-5.6301,-5.6187,-5.5154,-5.4439,-5.3999,-5.2888,-5.2206,-5.1883,-5.1883,-5.1883,-5.1883,-5.1883,-5.1851,-5.1752,-5.1584,-5.1417,-5.1086,0.0,0.0,0.0,0.0,-4.4105,-4.2316,-4.3363,-4.3392,-4.3083,-4.3567,-4.3741,-4.3741,-4.3741,-4.3741,-4.3887,-4.4655,-4.4888,-4.5033,-4.569,-4.5864,-4.5864,-4.5864,-4.5864,-4.5864,-4.5864,-4.5864,-4.5864,-4.5864,-4.5442,0.0,-4.51,-4.3937,-4.2968,-4.2968,-4.2968,-4.2631,-4.1711,-4.1596,-4.1265,-4.0332,-4.0235,-4.0235,-4.0235,-3.978,0.0,0.0,0.0,-3.95,-3.95,-3.9042,0.0,0.0,0.0,-3.5503,-3.5937,-3.366,0.0,0.0,-2.9506,-2.8225,0.0,0.0,0.0,0.0,0.0,0.0,0.0,0.0,0.0,0.0,0.0,0.0,0.0,0.0,0.0,0.0,-4.4526,-4.5597,-4.5396,-4.6591,-4.7539,-4.7791,-4.7703,-4.8074,-4.9213,-4.9719,-5.0442,-5.158,-5.3097,-5.3904,-5.3794,-5.4836,-5.5263,-5.4951,-5.4871,-5.4758,-5.4528,-5.336,-5.2744,-5.2578,-5.129,-5.0732,-5.0732,-5.0732,-5.0732,-5.0732,-5.0732,-5.0636,-5.0508,-5.0345,-5.0147,-4.9721,-4.7296,-4.5975,-4.5214,-4.3988,-4.3077,-4.2487,-4.2286,-4.1938,-4.1706,-4.2055,-4.2171,-4.2171,-4.2171,-4.2171,-4.2374,-4.3345,-4.3607,-4.381,-4.4614,-4.4847,-4.4847,-4.4847,-4.5108,-4.537,-4.537,-4.5632,-4.5864,-4.5864,-4.4857,-4.3899,-4.3638,-4.3047,-4.2493,-4.2263,-4.2217,-4.1938,-4.1313,-4.1218,-4.098,-4.0284,-4.0235,-4.0235,-4.0235,-3.9933,-3.9856,-4.0235,-3.9907,-3.9882,-4.0235,-3.9907,-3.9602,-3.9271,-3.6125,-3.3934,0.0,0.0,0.0,0.0,0.0,0.0,0.0,0.0,0.0,0.0,0.0,0.0,0.0,0.0,0.0,0.0,0.0,0.0,0.0,0.0,0.0,0.0,0.0,0.0,-4.3672,-4.4757,-4.6113,-4.765,-4.7715,-4.7634,-4.7712,-4.9069,-4.9972,-5.0044,-5.1471,-5.2319,-5.2186,-5.209,-5.1812,-5.1285,-5.1175,-5.086,-5.0336,-4.9557,-4.9104,-4.8947,-4.8152,-4.7738,-4.7738,-4.7738,-4.7738,-4.7738,-4.7738,-4.768,-4.7529,-4.7314,-4.7128,-4.6908,-4.604,-4.5246,-4.4277,-4.2258,-4.2267,-4.3224,-4.2449,-4.1357,-4.0505,-4.1764,-4.2171,-4.2171,-4.2171,-4.2171,-4.2171,-4.2229,-4.2229,-4.2258,-4.2287,-4.2287,-4.2287,-4.2287,-4.3287,-4.416,-4.416,-4.5091,-4.5864,-4.5864,-4.4128,-4.2336,-4.1462,-4.1501,-4.136,-4.0477,-4.0332,0.0,-4.0284,-4.0284,-4.0284,-4.0235,-4.0235,-4.0235,-4.0235,-3.9195,-3.902,-4.0184,-3.9195,-3.902,-4.021,-3.9169,-3.8004,-3.6887,-3.5743,-3.4407,-3.2827,0.0,0.0,0.0,0.0,0.0,0.0,0.0,0.0,0.0,0.0,0.0,0.0,0.0,0.0,0.0,0.0,0.0,0.0,0.0,0.0,0.0,0.0,0.0,0.0,-4.2502,-4.5082,-4.7536,-4.7715,-4.7634,-4.7623,-4.8093,-4.8418,-4.8418,-4.9775,-5.0604,-5.0567,-5.1407,-5.1825,-5.1633,-5.1266,-5.0946,-5.0673,-4.961,-4.9043,-4.8915,-4.8106,-4.7699,-4.7606,-4.7606,-4.7606,-4.7606,-4.7516,-4.7365,-4.7151,-4.6998,-4.5463,-4.3181,-4.2488,-4.1711,-4.0949,-4.0225,-3.9963,-3.9955,-3.9698,-3.9321,-3.9001,-3.9473,-3.9619,-3.9619,-3.9619,-3.9619,-3.9786,-4.0659,-4.092,-4.1095,-4.1938,-4.2171,-4.2171,-4.2171,-4.2491,-4.2664,-4.216,-4.2784,-4.3273,-4.2762,-4.108,-3.9138,-3.741,-3.8426,-3.8956,-3.7154,-3.8788,-4.0235,-4.0235,-4.0235,-4.0235,-4.0235,-4.0235,-4.0235,-4.0235,-3.9856,-3.9805,-4.0235,-3.9856,-3.9805,-4.0235,-3.9831,-3.9093,-3.7928,-3.7547,-3.4323,-2.8202,0.0,0.0,0.0,0.0,0.0,0.0,0.0,0.0,0.0,0.0,0.0,0.0,0.0,0.0,0.0,0.0,0.0,0.0,0.0,0.0,0.0,0.0,0.0,0.0,0.0,0.0,-4.762,-4.6799,0.0,-4.584,-4.5367,-4.5042,-4.4929,-4.6791,-4.7941,-4.8083,-4.9356,-5.0006,-4.9958,-4.958,-4.9203,-4.8801,-4.8014,-4.743,-4.7086,-4.6549,-4.6212,-4.6126,-4.6126,-4.6126,-4.6097,-4.5951,-4.5741,-4.55,-4.5137,-4.3178,-4.0273,-3.9338,-3.8232,-3.7246,-3.7687,-3.762,-3.7357,-3.8064,-3.8309,-3.8309,-3.8309,-3.753,-3.6601,-3.6601,-3.6085,-3.5766,-3.7425,-3.8152,-3.8822,-4.0418,-4.0812,-4.0812,-4.0812,-4.1153,-4.1321,-4.0831,-4.1291,-4.1193,-3.913,-3.8399,-3.7286,-3.4715,-3.596,-3.6611,-3.482,-3.6779,-3.8712,-3.95,-4.0006,-4.0235,-4.0235,-4.0235,-4.0235,-4.0235,-4.0235,-4.0235,-4.0235,-4.0235,-4.0057,-3.9627,-3.9602,-3.8712,-3.6734,-3.617,-3.2638,0.0,0.0,0.0,0.0,0.0,0.0,0.0,0.0,0.0,0.0,0.0,0.0,0.0,0.0,0.0,0.0,0.0,0.0,0.0,0.0,0.0,0.0,0.0,0.0,0.0,0.0,0.0,-4.7666,-4.503,0.0,0.0,0.0,0.0,-3.9955,-4.2543,-4.4344,-4.4795,-4.5753,-4.6302,-4.6345,-4.6169,-4.5723,-4.4882,-4.4738,-4.4376,-4.3738,-4.3605,-4.3504,-4.3368,-4.334,-4.334,-4.334,-4.3236,-4.2999,-4.2673,-4.1679,-4.0114,-3.8118,-3.6505,-3.478,-3.3273,-3.4579,-3.5009,-3.5282,-3.7392,-3.8093,-3.807,-3.807,-3.5981,-3.3512,-3.3338,-3.1829,0.0,0.0,-3.4144,-3.5434,-3.76,-3.8122,-3.8151,-3.828,-3.9198,-4.0054,-4.0017,-4.042,-3.9512,-3.5179,-3.592,-3.6216,-3.294,0.0,-3.4155,-3.3159,-3.4143,-3.582,-3.8055,-3.9398,-4.0159,-4.0159,-4.021,-4.0235,-4.0235,-4.0184,-4.0159,-4.0159,-4.0108,-3.9551,-3.8462,-3.8309,-3.6683,-3.333,-3.1823,0.0,0.0,0.0,0.0,0.0,0.0,0.0,0.0,0.0,0.0,0.0,0.0,0.0,0.0,0.0,0.0,0.0,0.0,0.0,0.0,0.0,0.0,0.0,0.0,0.0,0.0,-3.6677,-4.0374,-4.5524,-4.3355,-4.1308,0.0,0.0,0.0,0.0,0.0,0.0,-4.0843,-4.1064,-4.2169,-4.4371,-4.3924,-4.4065,-4.4882,-4.4501,-4.4148,-4.3863,-4.3765,-4.3605,-4.3471,-4.3395,-4.334,-4.334,-4.3236,-4.2999,-4.2454,-3.8386,-3.6294,-3.533,-3.1262,-2.9397,-2.9081,-3.0096,-3.0049,-3.0065,-3.4448,-3.5509,-3.4928,-3.4862,-3.3678,-3.1901,-2.9559,0.0,0.0,0.0,0.0,-3.2271,-3.5201,-3.5976,-3.6371,-3.7936,-3.808,-3.7757,-3.7172,-3.7159,-3.6009,-3.179,-3.0865,-2.9197,-2.4199,-2.572,0.0,-2.7248,-3.027,-3.3442,-3.5743,-3.7725,-3.8919,-3.8919,-3.9704,-4.0235,-4.0235,-3.9449,-3.8919,-3.8919,-3.8106,-3.7496,-3.7217,-3.5616,-3.3533,-3.1018,0.0,0.0,0.0,0.0,0.0,0.0,0.0,0.0,0.0,0.0,0.0,0.0,0.0,0.0,0.0,0.0,0.0,0.0,0.0,0.0,0.0,0.0,0.0,0.0,0.0,0.0,0.0,-3.3648,-3.7311,-4.088,-3.8489,-3.6428,0.0,0.0,0.0,0.0,0.0,0.0,0.0,0.0,0.0,-3.9652,-3.9843,-4.0546,-4.2004,-4.2788,-4.3126,-4.2982,-4.3571,-4.3738,-4.3525,-4.3476,-4.3422,-4.3313,-4.2892,-4.1916,-4.0355,-3.641,-3.3531,-3.1157,0.0,0.0,0.0,0.0,-2.6079,-2.6573,-3.0385,-3.1662,-3.1556,-3.0995,0.0,0.0,0.0,0.0,0.0,0.0,0.0,-3.0296,-3.3181,-3.4975,-3.6333,-3.7471,-3.7456,-3.702,-3.655,-3.3631,-3.028,-2.7472,-2.6507,-2.4866,-2.073,-2.1593,0.0,0.0,0.0,-3.0575,-3.3381,-3.6074,-3.7725,-3.7725,-3.8284,-3.8712,-3.8712,-3.8081,-3.7725,-3.7725,-3.7115,-3.6099,-3.4676,-3.2924,-3.0231,0.0,0.0,0.0,0.0,0.0,0.0,0.0,0.0,0.0,0.0,0.0,0.0,0.0,0.0,0.0,0.0,0.0,0.0,0.0,0.0,0.0,0.0,0.0,0.0,0.0,0.0,0.0,0.0,0.0,-3.482,-3.526,0.0,0.0,0.0,0.0,0.0,0.0,0.0,0.0,0.0,0.0,0.0,0.0,0.0,-3.5846,-3.7268,-3.9411,-4.0481,-4.0542,-4.1782,-4.2326,-4.2263,-4.2435,-4.2552,-4.2608,-4.1155,0.0,-3.7263,-3.4334,0.0,0.0,0.0,0.0,0.0,0.0,0.0,0.0,0.0,0.0,0.0,0.0,0.0,0.0,0.0,0.0,0.0,0.0,0.0,0.0,0.0,0.0,-3.5921,-3.6196,-3.6329,-3.6201,-3.5564,-2.9858,-2.4384,-2.2932,-2.2681,-2.1921,0.0,0.0,0.0,0.0,0.0,0.0,-3.0967,-3.4397,-3.6531,-3.6531,-3.6658,-3.676,-3.676,-3.6633,-3.6531,-3.6531,-3.5972,-3.4372,-3.1526,-3.0155,0.0,0.0,0.0,0.0,0.0,0.0,0.0,0.0,0.0,0.0,0.0,0.0,0.0,0.0,0.0,0.0,0.0,0.0,0.0,0.0,0.0,0.0,0.0,0.0,0.0,0.0,0.0,0.0,0.0,0.0,0.0,0.0,0.0,0.0,0.0,0.0,0.0,0.0,0.0,0.0,0.0,0.0,0.0,0.0,0.0,0.0,0.0,0.0,0.0,0.0,-3.3966,-3.4505,-3.5552,-3.6525,-3.7754,-3.8916,-3.3923,-3.302,-3.4667,-2.8044,0.0,0.0,0.0,0.0,0.0,0.0,0.0,0.0,0.0,0.0,0.0,0.0,0.0,0.0,0.0,0.0,0.0,0.0,0.0,0.0,0.0,0.0,-2.9697,-3.1417,-3.2063,-3.1268,-2.7502,0.0,0.0,0.0,0.0,0.0,0.0,0.0,0.0,0.0,0.0,0.0,-2.8554,-3.2771,-3.5464,-3.5464,-3.6226,-3.676,-3.676,-3.5947,-3.5464,-3.5464,-3.1907,-2.957,0.0,0.0,0.0,0.0,0.0,0.0,0.0,0.0,0.0,0.0,0.0,0.0,0.0,0.0,0.0,0.0,0.0,0.0,0.0,0.0,0.0,0.0,0.0,0.0,0.0,0.0,0.0,0.0,0.0,0.0,0.0,0.0,0.0,0.0,0.0,0.0,0.0,0.0,0.0,0.0,0.0,0.0,0.0,0.0,0.0,0.0,0.0,0.0,0.0,0.0,0.0,0.0,0.0,0.0,0.0,0.0,0.0,0.0,-3.1037,-2.794,0.0,0.0,0.0,0.0,0.0,0.0,0.0,0.0,0.0,0.0,0.0,0.0,0.0,0.0,0.0,0.0,0.0,0.0,0.0,0.0,0.0,0.0,0.0,0.0,0.0,0.0,0.0,0.0,0.0,0.0,0.0,0.0,0.0,0.0,0.0,0.0,0.0,0.0,0.0,0.0,-2.7241,-3.1476,-3.427,-3.427,-3.4727,-3.5032,-3.5032,-3.4575,-3.3787,-3.2619,-2.9926,0.0,0.0,0.0,0.0,0.0,0.0,0.0,0.0,0.0,0.0,0.0,0.0,0.0,0.0,0.0,0.0,0.0,0.0,0.0,0.0,0.0,0.0,0.0,0.0,0.0,0.0,0.0,0.0,0.0,0.0,0.0,0.0,0.0,0.0,0.0,0.0,0.0,0.0,0.0,0.0,0.0,0.0,0.0,0.0,0.0,0.0,0.0,0.0,0.0,0.0,0.0,0.0,0.0,0.0,0.0,0.0,0.0,0.0,0.0,-2.7712,-2.3234,0.0,0.0,0.0,0.0,0.0,0.0,0.0,0.0,0.0,0.0,0.0,0.0,0.0,0.0,0.0,0.0,0.0,0.0,0.0,0.0,0.0,0.0,0.0,0.0,0.0,0.0,0.0,0.0,0.0,0.0,0.0,0.0,0.0,0.0,0.0,0.0,0.0,0.0,0.0,0.0,-2.6496,-3.0688,-3.3432,-3.3432,-3.3432,-3.3432,-3.3432,-3.3432,-3.2492,-3.0256,-2.8351,0.0,0.0,0.0,0.0,0.0,0.0,0.0,0.0,0.0,0.0,0.0,0.0,0.0,0.0,0.0,0.0,0.0,0.0,0.0,0.0,0.0,0.0,0.0,0.0,0.0,0.0,0.0,0.0,0.0,0.0,0.0,0.0,0.0,0.0,0.0,0.0,0.0,0.0,0.0,0.0,0.0,0.0,0.0,0.0,0.0,0.0,0.0,0.0,0.0,0.0,0.0,0.0,0.0,0.0,0.0,0.0,0.0,0.0,0.0,0.0,0.0,0.0,0.0,0.0,0.0,0.0,0.0,0.0,0.0,0.0,0.0,0.0,0.0,0.0,0.0,0.0,0.0,0.0,0.0,0.0,0.0,0.0,0.0,0.0,0.0,0.0,0.0,0.0,0.0,0.0,0.0,0.0,0.0,0.0,0.0,0.0,0.0,0.0,0.0,0.0,0.0,-2.6496,-3.0688,-3.3432,-3.3432,-3.3432,-3.3432,-3.3432,-3.3432,-3.2492,-3.0256,0.0,0.0,0.0,0.0,0.0,0.0,0.0,0.0,0.0,0.0,0.0,0.0,0.0,0.0,0.0,0.0,0.0,0.0,0.0,0.0,0.0,0.0,0.0,0.0,0.0,0.0,0.0,0.0,0.0,0.0,0.0,0.0,0.0,0.0,0.0,0.0,0.0,0.0,0.0,0.0,0.0,0.0,0.0,0.0,0.0,0.0,0.0,0.0,0.0,0.0,0.0,0.0,0.0,0.0,0.0,0.0,0.0,0.0,0.0,0.0,0.0,0.0,0.0,0.0,0.0,0.0,0.0,0.0,0.0,0.0,0.0,0.0,0.0,0.0,0.0,0.0,0.0,0.0,0.0,0.0,0.0,0.0,0.0,0.0,0.0,0.0,0.0,0.0,0.0,0.0,0.0,0.0,0.0,0.0,0.0,0.0,0.0,0.0,0.0,0.0,0.0,0.0,-2.736,-3.1069,-3.3432,-3.3432,-3.3432,-3.3432,-3.3432,-3.3432,-3.1907,-2.8351,0.0,0.0,0.0,0.0,0.0,0.0,0.0,0.0,0.0,0.0,0.0,0.0,0.0,0.0,0.0,0.0,0.0,0.0,0.0,0.0,0.0,0.0,0.0,0.0,0.0,0.0,0.0,0.0,0.0,0.0,0.0,0.0,0.0,0.0,0.0,0.0,0.0,0.0,0.0,0.0,0.0,0.0,0.0,0.0,0.0,0.0,0.0,0.0,0.0,0.0,0.0,0.0,0.0,0.0,0.0,0.0,0.0,0.0,0.0,0.0,0.0,0.0,0.0,0.0,0.0,0.0,0.0,0.0,0.0,0.0,0.0,0.0,0.0,0.0,0.0,0.0,0.0,0.0,0.0,0.0,0.0,0.0,0.0,0.0,0.0,0.0,0.0,0.0,0.0,0.0,0.0,0.0,0.0,0.0,0.0,0.0,0.0,0.0,0.0,0.0,0.0,0.0,-2.7944,-3.1323,-3.3432,-3.3432,-3.3432,-3.3432,-3.3432,-3.3432,-3.1526,-2.7113,0.0,0.0,0.0,0.0,0.0,0.0,0.0,0.0,0.0,0.0,0.0,0.0,0.0,0.0,0.0,0.0,0.0,0.0,0.0,0.0,0.0,0.0,0.0,0.0,0.0,0.0,0.0,0.0,0.0,0.0,0.0,0.0,0.0,0.0,0.0,0.0,0.0,0.0,0.0,0.0,0.0,0.0,0.0,0.0,0.0,0.0,0.0,0.0,0.0,0.0,0.0,0.0,0.0,0.0,0.0,0.0,0.0,0.0,0.0,0.0,0.0,0.0,0.0,0.0,0.0,0.0,0.0,0.0,0.0,0.0,0.0,0.0,0.0,0.0,0.0,0.0,0.0,0.0,0.0,0.0,0.0,0.0,0.0,0.0,0.0,0.0,0.0,0.0,0.0,0.0,0.0,0.0,0.0,0.0,0.0,0.0,0.0,0.0,0.0,0.0,0.0,0.0,-2.791,-3.1323,-3.3432,-3.3432,-3.3432,-3.3432,-3.3432,-3.3432,-3.1526,0.0,0.0,0.0,0.0,0.0,0.0,0.0,0.0,0.0,0.0,0.0,0.0,0.0,0.0,0.0,0.0,0.0,0.0,0.0,0.0,0.0,0.0,0.0,0.0,0.0,0.0,0.0,0.0,0.0,0.0,0.0,0.0,0.0,0.0,0.0,0.0,0.0,0.0,0.0,0.0,0.0,0.0,0.0,0.0,0.0,0.0,0.0,0.0,0.0,0.0,0.0,0.0,0.0,0.0,0.0,0.0,0.0,0.0,0.0,0.0,0.0,0.0,0.0,0.0,0.0,0.0,0.0,0.0,0.0,0.0,0.0,0.0,0.0,0.0,0.0,0.0,0.0,0.0,0.0,0.0,0.0,0.0,0.0,0.0,0.0,0.0,0.0,0.0,0.0,0.0,0.0,0.0,0.0,0.0,0.0,0.0,0.0,0.0,0.0,0.0,0.0,0.0,0.0,-2.8323,-3.0905,-3.2619,-3.3355,-3.3432,-3.3432,-3.3432,-3.3432,-3.1526,-2.7113,0.0,0.0,0.0,0.0,0.0,0.0,0.0,0.0,0.0,0.0,0.0,0.0,0.0,0.0,0.0,0.0,0.0,0.0,0.0,0.0,0.0,0.0,0.0,0.0,0.0,0.0,0.0,0.0,0.0,0.0,0.0,0.0,0.0,0.0,0.0,0.0,0.0,0.0,0.0,0.0,0.0,0.0,0.0,0.0,0.0,0.0,0.0,0.0,0.0,0.0,0.0,0.0,0.0,0.0,0.0,0.0,0.0,0.0,0.0,0.0,0.0,0.0,0.0,0.0,0.0,0.0,0.0,0.0,0.0,0.0,0.0,0.0,0.0,0.0,0.0,0.0,0.0,0.0,0.0,0.0,0.0,0.0,0.0,0.0,0.0,0.0,0.0,0.0,0.0,0.0,0.0,0.0,0.0,0.0,0.0,0.0,0.0,0.0,0.0,0.0,0.0,0.0,0.0,-3.1182,-3.2695,-3.3355,-3.3432,-3.3432,-3.3432,-3.3432,-3.1704,-2.764,0.0,0.0,0.0,0.0,0.0,0.0,0.0,0.0,0.0,0.0,0.0,0.0,0.0,0.0,0.0,0.0,0.0,0.0,0.0,0.0,0.0,0.0,0.0,0.0,0.0,0.0,0.0,0.0,0.0,0.0,0.0,0.0,0.0,0.0,0.0,0.0,0.0,0.0,0.0,0.0,0.0,0.0,0.0,0.0,0.0,0.0,0.0,0.0,0.0,0.0,0.0,0.0,0.0,0.0,0.0,0.0,0.0,0.0,0.0,0.0,0.0,0.0,0.0,0.0,0.0,0.0,0.0,0.0,0.0,0.0,0.0,0.0,0.0,0.0,0.0,0.0,0.0,0.0,0.0,0.0,0.0,0.0,0.0,0.0,0.0,0.0,0.0,0.0,0.0,0.0,0.0,0.0,0.0,0.0,0.0,0.0,0.0,0.0,0.0,0.0,0.0,0.0,0.0,-3.1931,-3.333,-3.3432,-3.3432,-3.3432,-3.3432,-3.3432,-3.1984,-2.8579,-2.5196,0.0,0.0,0.0,0.0,0.0,0.0,0.0,0.0,0.0,0.0,0.0,0.0,0.0,0.0,0.0,0.0,0.0,0.0,0.0,0.0,0.0,0.0,0.0,0.0,0.0,0.0,0.0,0.0,0.0,0.0,0.0,0.0,0.0,0.0,0.0,0.0,0.0,0.0,0.0,0.0,0.0,0.0,0.0,0.0,0.0,0.0,0.0,0.0,0.0,0.0,0.0,0.0,0.0,0.0,0.0,0.0,0.0,0.0,0.0,0.0,0.0,0.0,0.0,0.0,0.0,0.0,0.0,0.0,0.0,0.0,0.0,0.0,0.0,0.0,0.0,0.0,0.0,0.0,0.0,0.0,0.0,0.0,0.0,0.0,0.0,0.0,0.0,0.0,0.0,0.0,0.0,0.0,0.0,0.0,0.0,0.0,0.0,0.0,0.0,0.0,0.0,0.0,-3.0985,-3.2233,-3.333,-3.3432,-3.3432,-3.3432,-3.3432,-3.1984,-2.8579,-2.5196,0.0,0.0,0.0,0.0,0.0,0.0,0.0,0.0,0.0,0.0,0.0,0.0,0.0,0.0,0.0,0.0,0.0,0.0,0.0,0.0,0.0,0.0,0.0,0.0,0.0,0.0,0.0,0.0,0.0,0.0,0.0,0.0,0.0,0.0,0.0,0.0,0.0,0.0,0.0,0.0,0.0,0.0,0.0,0.0,0.0,0.0,0.0,0.0,0.0,0.0,0.0,0.0,0.0,0.0,0.0,0.0,0.0,0.0,0.0,0.0,0.0,0.0,0.0,0.0,0.0,0.0,0.0,0.0,0.0,0.0,0.0,0.0,0.0,0.0,0.0,0.0,0.0,0.0,0.0,0.0,0.0,0.0,0.0,0.0,0.0,0.0,0.0,0.0,0.0,0.0,0.0,0.0,0.0,0.0,0.0,0.0,0.0,0.0,0.0,0.0,0.0,0.0,-3.1347,-3.1841,-3.3269,-3.3432,-3.3432,-3.3432,-3.3432,-3.2212,-2.9342,-2.55,0.0,0.0,0.0,0.0,0.0,0.0,0.0,0.0,0.0,0.0,0.0,0.0,0.0,0.0,0.0,0.0,0.0,0.0,0.0,0.0,0.0,0.0,0.0,0.0,0.0,0.0,0.0,0.0,0.0,0.0,0.0,0.0,0.0,0.0,0.0,0.0,0.0,0.0,0.0,0.0,0.0,0.0,0.0,0.0,0.0,0.0,0.0,0.0,0.0,0.0,0.0,0.0,0.0,0.0,0.0,0.0,0.0,0.0,0.0,0.0,0.0,0.0,0.0,0.0,0.0,0.0,0.0,0.0,0.0,0.0,0.0,0.0,0.0,0.0,0.0,0.0,0.0,0.0,0.0,0.0,0.0,0.0,0.0,0.0,0.0,0.0,0.0,0.0,0.0,0.0,0.0,0.0,0.0,0.0,0.0,0.0,0.0,0.0,0.0,0.0,0.0,0.0,0.0,-3.1626,-3.2963,-3.329,-3.3432,-3.3432,-3.3432,-3.239,-3.0002,0.0,0.0,0.0,0.0,0.0,0.0,0.0,0.0,0.0,0.0,0.0,0.0,0.0,0.0,0.0,0.0,0.0,0.0,0.0,0.0,0.0,0.0,0.0,0.0,0.0,0.0,0.0,0.0,0.0,0.0,0.0,0.0,0.0,0.0,0.0,0.0,0.0,0.0,0.0,0.0,0.0,0.0,0.0,0.0,0.0,0.0,0.0,0.0,0.0,0.0,0.0,0.0,0.0,0.0,0.0,0.0,0.0,0.0,0.0,0.0,0.0,0.0,0.0,0.0,0.0,0.0,0.0,0.0,0.0,0.0,0.0,0.0,0.0,0.0,0.0,0.0,0.0,0.0,0.0,0.0,0.0,0.0,0.0,0.0,0.0,0.0,0.0,0.0,0.0,0.0,0.0,0.0,0.0,0.0,0.0,0.0,0.0,0.0,0.0,0.0,0.0,0.0,0.0,0.0,-3.0683,-3.1523,-3.2702,-3.3432,-3.3432,-3.3432,-3.206,-2.8833,0.0,0.0,0.0,0.0,0.0,0.0,0.0,0.0,0.0,0.0,0.0,0.0,0.0,0.0]}],[{"header":{"parameterUnit":"kt","parameterCategory":2,"dx":1,"dy":1,"la1":29.285339999999998,"la2":30.599998999999997,"lo1":-89.70041500000002,"lo2":-87.6738589999976,"nx":112,"ny":82,"refTime":"2022-09-23T06:00:00:Z","depth":0,"parameterNumber":2,"parameterNumberName":"V-component_of_WINDS"},"data":[1.7804,1.8425,1.8305,1.3697,1.3299,1.2942,0.8733,0.8235,0.8588,0.8307,0.8252,0.8712,1.0247,0.8252,0.6699,0.7736,0.6023,0.448,0.0,0.4029,0.0,0.0,0.0,0.0,0.0,0.0,0.0,0.0,0.0,0.0,0.0,2.1639,2.2175,2.2821,2.4369,2.5135,2.4991,2.6784,2.774,2.783,2.8414,2.877,2.8881,2.9212,2.9366,2.9476,2.9739,3.0041,3.0406,3.0965,3.1347,3.1684,3.2316,3.2614,3.2341,3.015,2.9476,2.963,2.9739,2.9739,2.9739,2.9739,2.9739,2.9739,2.9739,2.9739,2.9847,3.0234,3.0511,3.0701,3.1101,3.1354,3.1563,3.1563,3.2127,3.2686,3.2793,3.3732,3.4654,3.5044,3.5517,3.5944,3.6216,3.642,3.6057,3.4652,3.5014,3.5451,3.5451,3.549,3.5528,3.5528,3.5954,3.642,3.6968,3.7257,3.7691,3.8397,3.8572,3.8816,3.9247,3.935,3.9415,3.9415,4.0336,4.0799,4.0799,3.8832,3.7978,3.8182,3.5528,3.3425,1.4579,1.5222,1.5229,1.054,1.029,1.0244,0.671,0.6371,0.6712,0.6357,0.7072,0.7589,0.6918,0.6369,0.5947,0.5735,0.5049,0.4415,0.0,0.0,0.0,0.0,0.0,0.0,0.0,0.0,0.0,0.0,1.3862,0.0,1.9468,2.0027,2.0508,2.1216,2.252,2.3094,2.2948,2.4933,2.6,2.6046,2.7033,2.7559,2.7583,2.7944,2.81,2.8124,2.8347,2.8481,2.8615,2.9146,2.941,2.952,3.0153,3.0435,3.0306,2.8526,2.7944,2.81,2.81,2.8168,2.8192,2.8192,2.8192,2.8147,2.8124,2.81,2.8124,2.8147,2.8349,2.8616,2.866,2.8947,2.9212,2.9212,2.9824,3.0406,3.0491,3.1468,3.2407,3.2777,3.3309,3.3841,3.4092,3.3683,3.3042,3.2275,3.2708,3.3137,3.3137,3.3137,3.3203,3.3243,3.3455,3.356,3.3666,3.413,3.4896,3.5948,3.6382,3.6791,3.7235,3.7342,3.7377,3.7377,3.8103,3.8306,3.7992,3.6445,3.5673,3.5569,3.3247,3.1359,1.1749,1.0953,1.0508,0.6881,0.6428,0.6712,0.6111,0.6376,0.6743,0.6789,0.7259,0.7489,0.6892,0.6344,0.5787,0.5167,0.5085,0.0,0.0,0.0,0.0,0.0,0.0,0.0,0.0,0.8463,0.9121,0.0,1.21,1.2875,1.7647,1.8844,1.9373,1.9394,2.0627,2.133,2.1328,2.2724,2.3504,2.363,2.4783,2.5377,2.5534,2.66,2.7058,2.7104,2.7809,2.8213,2.8437,2.8213,2.8236,2.8437,2.8236,2.8236,2.8258,2.7377,2.7079,2.7058,2.7125,2.7199,2.7273,2.7273,2.7273,2.7294,2.7129,2.7125,2.7104,2.7249,2.7475,2.7766,2.7991,2.8258,2.8437,2.8437,2.8481,2.857,2.8837,2.8925,2.9255,3.0293,3.0673,3.109,3.1832,3.0181,2.8771,2.8771,2.8903,2.9013,2.9013,2.9013,2.9167,2.9409,2.9475,2.9606,2.9869,3.0592,3.1798,3.3566,3.4535,3.4976,3.4976,3.5218,3.5343,3.5359,3.5468,3.5158,3.4286,3.3013,3.1929,3.1054,2.9259,2.8591,0.7663,0.8095,0.866,0.5759,0.6499,0.7404,0.5355,0.5224,0.5671,0.6136,0.6002,0.0,0.0,0.0,0.5257,0.5088,0.0,0.6138,0.0,0.6621,0.0,0.0,0.0,0.0,0.0,1.02,1.1495,1.4793,1.3716,1.4388,1.7691,1.8154,1.8307,1.8311,1.9394,1.9961,1.9942,2.1134,2.1721,2.177,2.2063,2.2257,2.2337,2.3319,2.3834,2.3881,2.4943,2.5386,2.5526,2.6092,2.6396,2.6554,2.7241,2.5781,2.3343,2.3266,2.3559,2.4109,2.484,2.4632,2.4072,2.4452,2.4613,2.4641,2.501,2.484,2.4632,2.5057,2.5198,2.5292,2.5339,2.5573,2.5779,2.5779,2.637,2.7108,2.7336,2.7923,2.8549,2.9014,2.9146,2.9255,2.9495,2.6852,2.4716,2.4716,2.542,2.5997,2.6149,2.6691,2.721,2.7658,2.8393,2.8947,2.9212,2.9517,2.9883,3.0398,3.0654,3.0824,3.0824,3.0322,3.0422,3.1185,3.114,3.1381,3.1869,3.1219,3.0779,3.0456,2.6776,2.5393,0.5854,0.6237,0.6966,0.539,0.6283,0.7062,0.5212,0.4941,0.5153,0.5551,0.0,0.0,0.0,0.0,0.0,0.0,0.6253,0.0,0.0,0.0,0.8166,0.0,0.0,0.0,1.023,1.0821,1.2254,1.483,1.4001,1.4497,1.7073,1.7256,1.7205,1.7255,1.7934,1.8331,1.846,1.9618,2.0244,2.0344,2.0773,2.097,2.1019,2.1493,2.1755,2.1755,2.2437,2.2745,2.2776,2.3319,2.3559,2.3541,2.3856,2.2545,2.0591,2.0739,2.1051,2.1428,2.2064,2.2064,2.1869,2.2211,2.2568,2.2877,2.2793,2.2551,2.2308,2.2259,2.2357,2.2405,2.2405,2.26,2.2842,2.2939,2.3511,2.4075,2.433,2.4764,2.5212,2.5371,2.5464,2.5464,2.5278,2.3498,2.2124,2.2221,2.2555,2.2903,2.3177,2.3575,2.4002,2.4444,2.5119,2.5649,2.5933,2.6413,2.6935,2.7478,2.7925,2.8393,2.8881,2.8504,2.8369,2.8653,2.8555,2.8454,2.8284,2.8081,2.7339,2.6097,2.3498,2.2628,0.5496,0.5107,0.5429,0.532,0.5743,0.6026,0.5455,0.0,0.5135,0.5319,0.0,0.5225,0.5992,0.0,0.0,0.6055,0.0,0.0,0.5979,0.6651,0.7382,0.7842,1.0322,1.1517,1.0267,1.0564,1.1744,1.3955,1.33,1.3685,1.5796,1.6045,1.6148,1.6126,1.6499,1.6806,1.701,1.8155,1.8875,1.9127,2.0046,2.0477,2.0492,2.0344,2.0294,2.0294,2.0443,2.0492,2.0492,2.0492,2.0492,2.0393,1.9363,1.9012,1.9127,1.9212,1.9227,1.9277,1.9413,1.9797,2.0294,2.0443,2.0968,2.1444,2.0607,2.0393,2.0244,1.9613,1.9613,1.9812,1.9812,1.9962,2.0195,2.0393,2.0492,2.0542,2.0773,2.0871,2.0871,2.0871,2.1117,2.1068,2.0244,2.0145,2.0179,2.0427,2.0096,1.9847,2.0145,2.0244,2.0393,2.069,2.1019,2.1313,2.1558,2.2434,2.3475,2.4642,2.5569,2.6539,2.7586,2.7676,2.7341,2.6709,2.6623,2.5805,2.4259,2.4264,2.2711,1.9743,1.9725,1.98,0.4851,0.4302,0.4377,0.4355,0.4525,0.4903,0.0,0.0,0.0,0.6971,0.6477,0.5995,0.6669,0.6718,0.6661,0.6793,0.0,0.0,0.0,0.7969,0.0,0.8565,0.9093,0.934,0.9057,0.9141,0.9814,1.1329,1.2116,1.2803,1.3468,1.4421,1.4925,1.4902,1.5902,1.6419,1.6458,1.6729,1.687,1.6922,1.7113,1.7216,1.7267,1.803,1.8399,1.8435,1.9277,1.9663,1.9663,1.9663,1.9663,1.9413,1.7062,1.6614,1.7318,1.7698,1.8016,1.8297,1.9127,1.8976,1.8536,1.9363,1.9478,1.9292,1.9076,1.9026,1.9076,1.9363,1.9463,1.9513,1.9513,1.9563,1.9613,1.9663,1.9663,1.9712,2.0011,2.0046,2.0096,2.0344,2.0591,1.9981,1.7573,1.7178,1.7165,1.7216,1.7113,1.7165,1.742,1.803,1.8587,1.9076,1.9712,2.0244,2.0492,2.069,2.0921,2.115,2.1395,2.1591,2.1801,2.2012,2.2283,2.2512,2.1816,2.1554,2.1686,2.158,1.9552,1.5689,1.5503,1.55,0.4395,0.3889,0.3799,0.3799,0.3732,0.0,0.0,0.4461,0.4582,0.6031,0.5789,0.5689,0.6802,0.6991,0.7083,0.7336,0.8308,0.8862,0.8319,0.8524,0.873,0.873,0.873,0.873,0.873,0.873,0.9252,1.0409,1.1575,1.2323,1.2404,1.2994,1.331,1.331,1.3876,1.4514,1.5278,1.5232,1.5635,1.6318,1.6318,1.6318,1.633,1.6742,1.6896,1.6935,1.7484,1.7674,1.7674,1.7674,1.7254,1.641,1.4626,1.4158,1.4615,1.4863,1.4812,1.4708,1.5615,1.5615,1.5254,1.5733,1.5989,1.6104,1.6104,1.586,1.5591,1.586,1.5911,1.6026,1.6512,1.6627,1.6615,1.6768,1.6819,1.6972,1.7482,1.7583,1.7736,1.8155,1.7086,1.5682,1.424,1.3991,1.4043,1.4147,1.3949,1.3897,1.4147,1.45,1.4863,1.5099,1.5642,1.5989,1.613,1.6589,1.6983,1.7109,1.7614,1.7916,1.8053,1.8303,1.8589,1.8823,1.8117,1.7744,1.7667,1.6392,1.4578,1.2352,1.221,1.2228,0.3873,0.3573,0.3478,0.3565,0.3346,0.0,0.3951,0.3863,0.4013,0.5355,0.5526,0.5844,0.7113,0.7344,0.7469,0.7903,0.8132,0.84,0.8676,0.873,0.873,0.873,0.873,0.873,0.873,0.873,0.9098,0.9946,1.0851,1.139,1.1416,1.1602,1.1699,1.1637,1.1848,1.2491,1.3625,1.3604,1.4221,1.5324,1.5479,1.5583,1.5583,1.5555,1.5503,1.5503,1.5503,1.5503,1.5503,1.5503,1.466,1.3237,1.2366,1.2041,1.2041,1.1927,1.147,1.1055,1.1778,1.2023,1.2057,1.2171,1.2634,1.3146,1.3146,1.2738,1.2224,1.2199,1.2208,1.2366,1.3122,1.3289,1.3342,1.3594,1.3646,1.3792,1.4418,1.4574,1.4615,1.4708,1.2538,1.0695,1.0695,1.0695,1.0793,1.0996,1.0695,1.05,1.0748,1.0801,1.0862,1.0915,1.111,1.1215,1.1215,1.1977,1.2576,1.2796,1.3541,1.4147,1.4341,1.4586,1.4727,1.4727,1.4362,1.3999,1.353,1.0776,0.9283,0.8963,0.8903,0.8873,0.3101,0.3171,0.3417,0.3757,0.3467,0.0,0.5791,0.5891,0.607,0.7917,0.8306,0.8347,0.8519,0.8539,0.8553,0.8638,0.8674,0.8723,0.877,0.873,0.873,0.873,0.873,0.873,0.873,0.873,0.8777,0.8884,0.9045,0.9098,0.9105,0.9999,1.0364,1.0144,1.1144,1.1681,1.1593,1.1593,1.169,1.1848,1.2524,1.2882,1.2882,1.3698,1.4033,1.4033,1.4033,1.4033,1.4033,1.4033,1.3079,1.1487,1.0818,1.0545,1.0492,1.0014,0.9809,0.9809,1.0333,1.0537,1.0651,1.1205,1.1478,1.1531,1.1531,1.1478,1.1425,1.1381,1.1381,1.1434,1.154,1.154,1.154,1.1593,1.1593,1.1646,1.1699,1.1743,1.1196,0.9393,0.8146,0.7343,0.7343,0.7343,0.7343,0.739,0.7343,0.7396,0.7668,0.7774,0.794,0.8159,0.8212,0.8265,0.8265,0.8365,0.8418,0.8464,0.8564,0.867,0.867,0.8914,0.9072,0.9072,0.9233,0.9744,1.0595,0.6841,0.4941,0.4918,0.4674,0.456,0.2745,0.2979,0.33,0.3315,0.0,0.0,0.5295,0.5698,0.6249,0.7755,0.8056,0.8227,0.8669,0.873,0.873,0.873,0.873,0.873,0.873,0.873,0.8676,0.8414,0.8414,0.836,0.8192,0.8192,0.8192,0.8192,0.8192,0.8192,0.8192,0.8616,0.877,0.8663,0.9145,0.9679,1.0266,1.0266,1.0585,1.1275,1.1584,1.1743,1.1796,1.2174,1.2333,1.2333,1.2333,1.2333,1.2227,1.1275,1.0205,0.9184,0.8369,0.8042,0.7988,0.7774,0.7411,0.7153,0.778,0.7727,0.7416,0.7697,0.775,0.775,0.775,0.775,0.775,0.775,0.8114,0.859,0.907,0.9231,0.9231,0.9231,0.9231,0.9337,0.9604,0.9323,0.819,0.5398,0.4591,0.421,0.3884,0.41,0.421,0.3884,0.41,0.4372,0.448,0.4533,0.4591,0.4698,0.4698,0.4698,0.4698,0.4698,0.4698,0.4698,0.4698,0.4698,0.4698,0.5018,0.5233,0.5233,0.56,0.6036,0.6485,0.3162,0.1622,0.1784,0.1121,0.0954,0.2472,0.0,0.0,0.0,0.0,0.0,0.545,0.5993,0.6638,0.7675,0.7916,0.8066,0.8616,0.873,0.873,0.873,0.8676,0.8569,0.8569,0.8515,0.836,0.8091,0.8043,0.7983,0.7822,0.7768,0.7768,0.7768,0.7768,0.7768,0.7768,0.7768,0.7762,0.7654,0.7654,0.8031,0.883,0.883,0.9259,1.0106,1.0159,1.0205,1.0205,1.0258,1.0303,1.0311,1.0478,1.0205,0.9512,0.8294,0.7481,0.6991,0.6129,0.5805,0.5801,0.5643,0.5273,0.4847,0.5593,0.5431,0.4901,0.5068,0.5064,0.4955,0.4955,0.4955,0.4955,0.4955,0.5381,0.5963,0.6609,0.6825,0.6712,0.6384,0.633,0.6384,0.6643,0.5935,0.4426,0.1736,0.1032,0.076,0.038,0.0597,0.0706,0.038,0.0597,0.0869,0.0977,0.0977,0.1032,0.1142,0.1142,0.1142,0.1142,0.1142,0.1142,0.1142,0.1142,0.1142,0.1142,0.1414,0.1631,0.174,0.2117,0.2603,0.3199,-0.0108,-0.1621,-0.1352,-0.2002,-0.211,0.0,0.0,0.0,0.4506,0.4642,0.5033,0.7193,0.7615,0.7729,0.8563,0.871,0.873,0.873,0.873,0.873,0.873,0.8414,0.8205,0.8205,0.7983,0.7822,0.7768,0.7768,0.7768,0.7768,0.7768,0.7768,0.7768,0.7768,0.7768,0.7768,0.7768,0.7654,0.7379,0.7379,0.7277,0.7072,0.7072,0.7072,0.7126,0.7385,0.7487,0.7487,0.7738,0.7893,0.7899,0.8556,0.7547,0.5443,0.5393,0.5339,0.5285,0.4572,0.4351,0.43,0.3763,0.3548,0.3602,0.4137,0.4134,0.4026,0.468,0.4626,0.43,0.43,0.43,0.43,0.43,0.43,0.4351,0.4351,0.4405,0.408,0.2935,0.2661,0.2553,0.2063,0.0816,-0.0544,-0.1738,-0.2717,-0.3317,-0.3317,-0.3317,-0.3317,-0.3317,-0.3317,-0.3206,-0.2989,-0.2935,-0.2774,-0.2399,-0.2399,-0.2399,-0.2399,-0.2399,-0.2399,-0.2399,-0.2399,-0.2399,-0.2399,-0.2344,-0.2127,-0.1636,-0.1581,-0.0599,0.1411,-0.2973,-0.4979,-0.472,-0.472,-0.4554,0.3229,0.378,0.4475,0.5306,0.5956,0.6634,0.748,0.7989,0.8423,0.8717,0.873,0.873,0.873,0.8407,0.8085,0.8085,0.7983,0.793,0.793,0.7822,0.7708,0.7547,0.7541,0.7439,0.7288,0.6851,0.663,0.663,0.631,0.6094,0.6094,0.6094,0.6039,0.5985,0.5985,0.5931,0.5827,0.5827,0.5827,0.5827,0.5931,0.5985,0.5985,0.6035,0.6084,0.6084,0.6305,0.5552,0.4089,0.4467,0.4412,0.4092,0.3817,0.3654,0.3488,0.3327,0.3055,0.2891,0.3052,0.3052,0.2998,0.3216,0.3216,0.3107,0.3107,0.3107,0.3107,0.3107,0.3107,0.3107,0.3107,0.3107,0.2998,0.2615,0.2506,0.2288,0.1307,-0.1034,-0.2993,-0.3043,-0.38,-0.4507,-0.4832,-0.5045,-0.5315,-0.5751,-0.5477,-0.5149,-0.5041,-0.5041,-0.4987,-0.4882,-0.4828,-0.4828,-0.4828,-0.4828,-0.4828,-0.4828,-0.4828,-0.4828,-0.4828,-0.4828,-0.4774,-0.4608,-0.4446,-0.4436,-0.4688,-0.7002,-0.8397,-0.9015,-0.962,-0.984,0.3864,0.4431,0.5117,0.6149,0.6901,0.7496,0.791,0.8376,0.873,0.873,0.8622,0.8521,0.8521,0.8139,0.7768,0.7768,0.7708,0.7654,0.7654,0.7552,0.7445,0.7283,0.7223,0.7061,0.6689,0.6251,0.5922,0.5764,0.5448,0.523,0.523,0.523,0.523,0.523,0.523,0.523,0.523,0.523,0.523,0.523,0.5009,0.4901,0.4901,0.4687,0.4633,0.4633,0.4361,0.3872,0.3164,0.3488,0.3433,0.3164,0.3164,0.3055,0.2891,0.2891,0.2728,0.251,0.251,0.2453,0.2399,0.2399,0.2344,0.2235,0.2235,0.2235,0.2235,0.2235,0.1963,0.1636,0.1636,0.1307,0.0979,0.0979,0.0653,0.0109,-0.0816,-0.272,-0.4297,-0.4402,-0.4886,-0.5481,-0.6026,-0.6394,-0.682,-0.7212,-0.7099,-0.6932,-0.6663,-0.6663,-0.6663,-0.6663,-0.6663,-0.6663,-0.6663,-0.6663,-0.6663,-0.6663,-0.6663,-0.6663,-0.6663,-0.6663,-0.6555,-0.6389,-0.6227,-0.7185,-0.9316,-1.0386,-1.1171,-1.1742,-1.2653,-1.3039,0.4169,0.4677,0.5391,0.705,0.7437,0.7701,0.8537,0.873,0.873,0.873,0.8414,0.8151,0.8151,0.793,0.7714,0.7714,0.7547,0.7379,0.7379,0.7175,0.6969,0.6964,0.6964,0.6689,0.603,0.5976,0.571,0.523,0.5176,0.5176,0.5176,0.5176,0.5176,0.5176,0.5176,0.5176,0.5176,0.5176,0.5176,0.5122,0.4521,0.4192,0.4192,0.3708,0.3439,0.3439,0.2782,0.2508,0.2453,0.2399,0.2399,0.2344,0.2344,0.2344,0.2344,0.2344,0.2344,0.229,0.229,0.2127,0.1907,0.1907,0.1744,0.1526,0.1526,0.1526,0.1526,0.1526,0.0708,-0.0109,-0.0109,-0.0979,-0.1793,-0.1793,-0.2663,-0.3588,-0.408,-0.43,-0.4731,-0.5868,-0.6138,-0.6404,-0.7099,-0.7631,-0.8007,-0.7971,-0.8515,-0.8669,-0.8085,-0.7977,-0.7977,-0.7977,-0.7977,-0.7977,-0.7977,-0.7977,-0.7977,-0.7977,-0.7977,-0.7977,-0.7977,-0.7977,-0.7756,-0.7261,-0.7368,-0.9017,-1.228,-1.3164,-1.3374,-1.3112,-1.3969,-1.4229,0.5508,0.6363,0.7025,0.8145,0.8391,0.8451,0.8677,0.8521,0.8306,0.8306,0.8091,0.7822,0.7601,0.7391,0.718,0.718,0.7126,0.7121,0.7121,0.7018,0.6802,0.6305,0.6251,0.6035,0.5498,0.5006,0.4677,0.4517,0.4144,0.3926,0.3926,0.3926,0.3926,0.3926,0.3926,0.3926,0.3926,0.3926,0.3926,0.3926,0.3599,0.3379,0.3382,0.2946,0.2782,0.2782,0.2619,0.2018,0.1199,0.1034,0.0598,0.0054,-0.0272,-0.038,-0.038,-0.038,-0.0489,-0.0706,-0.0869,-0.0979,-0.1087,-0.1305,-0.1359,-0.1414,-0.1414,-0.1414,-0.1414,-0.1414,-0.1631,-0.1903,-0.1903,-0.2118,-0.2336,-0.2336,-0.2553,-0.2826,-0.2935,-0.4565,-0.6305,-0.7153,-0.7899,-0.865,-0.971,-1.0516,-1.0948,-1.0948,-1.1108,-1.1169,-1.1002,-1.0957,-1.0957,-1.0957,-1.0957,-1.0957,-1.0957,-1.0957,-1.0957,-1.0957,-1.0957,-1.0957,-1.0957,-1.0957,-1.0895,-1.0789,-1.2032,-1.351,-1.522,-1.5479,-1.5945,-1.6601,-1.6858,-1.6909,0.5491,0.6606,0.7618,0.8524,0.873,0.8676,0.8521,0.8306,0.8151,0.8043,0.7714,0.7391,0.7223,0.7121,0.7023,0.7023,0.6748,0.658,0.658,0.6369,0.6094,0.571,0.5656,0.5443,0.4901,0.4463,0.4192,0.3977,0.3654,0.3493,0.3493,0.3493,0.3493,0.3493,0.3493,0.3493,0.3493,0.3384,0.333,0.333,0.3,0.2837,0.2837,0.2619,0.1853,0.0653,0.0544,0.0109,-0.0544,-0.0761,-0.114,-0.1574,-0.1793,-0.1847,-0.1847,-0.1847,-0.1956,-0.2118,-0.2281,-0.2444,-0.2607,-0.2717,-0.2878,-0.293,-0.293,-0.293,-0.293,-0.293,-0.3312,-0.3746,-0.3746,-0.4128,-0.4511,-0.4511,-0.4511,-0.4832,-0.611,-0.7572,-0.877,-0.9238,-0.9718,-1.0364,-1.1258,-1.1954,-1.2385,-1.2385,-1.2649,-1.2701,-1.2438,-1.2385,-1.2385,-1.2385,-1.2385,-1.2586,-1.3102,-1.3154,-1.3354,-1.3803,-1.3855,-1.3855,-1.3855,-1.3604,-1.351,-1.351,-1.5162,-1.6371,-1.7011,-1.7369,-1.7827,-1.8399,-1.8817,-1.8969,0.5087,0.6229,0.7535,0.838,0.8622,0.8515,0.8205,0.8097,0.7983,0.7762,0.7337,0.7023,0.7023,0.7023,0.6964,0.6856,0.6413,0.5976,0.5922,0.5552,0.523,0.5122,0.5122,0.4847,0.4246,0.4137,0.3923,0.3493,0.3384,0.3384,0.3384,0.3384,0.3384,0.3384,0.3221,0.3109,0.3109,0.278,0.2617,0.2562,0.2235,0.207,0.2016,0.1907,0.0489,-0.1847,-0.2118,-0.2281,-0.2444,-0.2715,-0.2878,-0.2989,-0.3043,-0.3043,-0.2989,-0.2989,-0.2989,-0.2989,-0.3043,-0.3315,-0.3588,-0.3643,-0.3797,-0.4007,-0.3956,-0.4007,-0.4061,-0.4007,-0.4771,-0.5589,-0.5589,-0.6359,-0.7126,-0.7288,-0.7498,-0.8354,-1.0851,-1.1328,-1.1328,-1.1328,-1.1434,-1.1646,-1.2069,-1.2649,-1.3069,-1.3069,-1.3552,-1.3719,-1.3132,-1.3069,-1.3069,-1.3069,-1.3017,-1.3489,-1.4719,-1.4771,-1.5214,-1.6296,-1.6347,-1.6347,-1.6347,-1.595,-1.5808,-1.6116,-1.7533,-1.8205,-1.8205,-1.8961,-1.9377,-1.9377,-2.0172,-2.0536,0.6285,0.6818,0.7211,0.778,0.7924,0.793,0.7876,0.7654,0.7487,0.7487,0.7229,0.7023,0.7023,0.7023,0.6802,0.6305,0.6084,0.5872,0.5443,0.5285,0.5064,0.4517,0.4463,0.4246,0.3708,0.3436,0.3273,0.3166,0.2891,0.2673,0.2673,0.2673,0.2673,0.2673,0.1745,0.1253,0.1253,0.0326,-0.0109,-0.0109,-0.0163,-0.038,-0.0706,-0.1358,-0.1901,-0.239,-0.2444,-0.2989,-0.3917,-0.429,-0.4832,-0.5431,-0.576,-0.5706,-0.5431,-0.5431,-0.5431,-0.5489,-0.5818,-0.5927,-0.6035,-0.6256,-0.6516,-0.6673,-0.6467,-0.6678,-0.6997,-0.6781,-0.7002,-0.7331,-0.7331,-0.7493,-0.787,-0.883,-1.0159,-1.1328,-1.1805,-1.1743,-1.1575,-1.1575,-1.2112,-1.2596,-1.2701,-1.3552,-1.4295,-1.4295,-1.4347,-1.4399,-1.4295,-1.4295,-1.4295,-1.4295,-1.4096,-1.4514,-1.5905,-1.5714,-1.6153,-1.7519,-1.757,-1.757,-1.757,-1.7468,-1.8292,-2.0142,-2.0023,-1.9988,-1.9988,-2.0654,-2.0984,-2.0984,-2.1148,-2.1198,0.5712,0.6394,0.699,0.7382,0.762,0.7762,0.7601,0.7487,0.7325,0.7223,0.7072,0.691,0.658,0.6472,0.6143,0.511,0.5002,0.4893,0.4243,0.4249,0.4035,0.3268,0.3485,0.3379,0.2673,0.2181,0.1909,0.1909,0.1198,0.0816,0.0816,0.0816,0.0816,0.0816,0.0272,-0.0054,-0.0054,-0.0706,-0.1086,-0.1086,-0.1194,-0.1466,-0.1847,-0.3583,-0.4345,-0.4345,-0.4565,-0.4948,-0.5493,-0.5814,-0.6197,-0.6526,-0.6748,-0.6689,-0.6526,-0.6526,-0.6526,-0.658,-0.6899,-0.7115,-0.7283,-0.7504,-0.7822,-0.8079,-0.793,-0.8085,-0.8246,-0.8133,-0.8562,-0.9091,-0.9091,-0.9572,-1.0159,-1.0691,-1.191,-1.3132,-1.3656,-1.3646,-1.3594,-1.3594,-1.3866,-1.4127,-1.4127,-1.4619,-1.5191,-1.579,-1.6344,-1.6704,-1.6704,-1.6704,-1.6704,-1.6704,-1.6601,-1.7024,-1.8247,-1.8168,-1.8609,-1.9927,-2.0027,-2.0027,-2.0027,-2.0027,-2.0489,-2.1575,-2.1329,-2.123,-2.123,-2.1951,-2.2276,-2.2342,-2.2921,-2.3114,0.5178,0.5903,0.6765,0.709,0.7282,0.7415,0.7309,0.7331,0.7223,0.7018,0.691,0.6635,0.6143,0.5922,0.5435,0.4188,0.4026,0.3697,0.288,0.2724,0.2453,0.1633,0.1962,0.2016,0.1252,0.0653,0.0327,0.0327,-0.0489,-0.0977,-0.0977,-0.0977,-0.0977,-0.0977,-0.1249,-0.1357,-0.1357,-0.1956,-0.2281,-0.2281,-0.2553,-0.277,-0.3041,-0.516,-0.6197,-0.6251,-0.658,-0.6689,-0.6694,-0.691,-0.7023,-0.7023,-0.7072,-0.7072,-0.7072,-0.7126,-0.718,-0.718,-0.7385,-0.7601,-0.7822,-0.8043,-0.8306,-0.8622,-0.8569,-0.8622,-0.873,-0.8622,-0.9412,-1.0311,-1.0311,-1.1161,-1.2227,-1.2797,-1.3646,-1.4556,-1.5399,-1.5567,-1.5567,-1.5567,-1.5515,-1.5463,-1.5463,-1.5411,-1.5658,-1.6614,-1.7624,-1.8435,-1.8637,-1.8637,-1.8637,-1.8637,-1.8587,-1.9041,-2.0122,-2.0157,-2.0654,-2.187,-2.1968,-2.1968,-2.1968,-2.231,-2.2457,-2.2457,-2.2457,-2.2457,-2.2457,-2.3215,-2.36,-2.3648,-2.4547,-2.4802,0.6115,0.626,0.6384,0.6895,0.6661,0.648,0.6922,0.7018,0.7018,0.7023,0.6526,0.6084,0.603,0.566,0.5064,0.4355,0.3643,0.2826,0.1683,0.0816,0.0109,-0.0435,-0.0434,-0.0434,-0.0543,-0.0923,-0.1141,-0.1141,-0.1466,-0.1683,-0.1683,-0.1683,-0.1683,-0.1683,-0.2717,-0.3263,-0.3263,-0.4572,-0.523,-0.523,-0.5493,-0.5652,-0.5706,-0.6305,-0.6689,-0.691,-0.6964,-0.6964,-0.6964,-0.6969,-0.7023,-0.7018,-0.7277,-0.7325,-0.7379,-0.7601,-0.7714,-0.7714,-0.7708,-0.7762,-0.7768,-0.7822,-0.7983,-0.8151,-0.793,-0.83,-0.8676,-0.8306,-0.9205,-1.0311,-1.0311,-1.1161,-1.2701,-1.5324,-1.6008,-1.6112,-1.6215,-1.6227,-1.6227,-1.6227,-1.6021,-1.5878,-1.5878,-1.5567,-1.5411,-1.5515,-1.6511,-1.7573,-1.8536,-1.8637,-1.8637,-1.8637,-1.8435,-1.8854,-2.0107,-1.9977,-2.0474,-2.1853,-2.1968,-2.1968,-2.1968,-2.3329,-2.4098,-2.4098,-2.4098,-2.4098,-2.4098,-2.4755,-2.5066,-2.5066,-2.5206,-2.5206,0.4634,0.5034,0.5463,0.5654,0.6198,0.6695,0.6742,0.6753,0.6689,0.6443,0.6197,0.5814,0.511,0.4405,0.3591,0.2341,0.1633,0.0871,-0.0163,-0.0381,-0.0761,-0.152,-0.1303,-0.1303,-0.1793,-0.2336,-0.2663,-0.2663,-0.3426,-0.3863,-0.3863,-0.3863,-0.3917,-0.408,-0.4517,-0.4843,-0.4998,-0.5602,-0.5877,-0.5877,-0.5981,-0.6251,-0.6635,-0.6748,-0.691,-0.7023,-0.7023,-0.7023,-0.7023,-0.7175,-0.7337,-0.7498,-0.7601,-0.7601,-0.7654,-0.7708,-0.7768,-0.7822,-0.793,-0.7983,-0.8037,-0.83,-0.8837,-0.9473,-0.9512,-1.0197,-1.0993,-1.0957,-1.1892,-1.2882,-1.2882,-1.374,-1.4897,-1.606,-1.6318,-1.6318,-1.6318,-1.6318,-1.6318,-1.6318,-1.6227,-1.6382,-1.6999,-1.6485,-1.6575,-1.8486,-1.8623,-1.9127,-2.0886,-2.1148,-2.1148,-2.1148,-2.1034,-2.1198,-2.1706,-2.1641,-2.1837,-2.2408,-2.2731,-2.3312,-2.4186,-2.4755,-2.5104,-2.5104,-2.5104,-2.5104,-2.5104,-2.586,-2.6211,-2.6211,-2.7381,-2.7809,0.3746,0.4211,0.4798,0.4935,0.5717,0.6457,0.6494,0.6504,0.6384,0.6087,0.576,0.5273,0.4405,0.3371,0.2229,0.1143,0.0054,-0.0926,-0.1742,-0.1848,-0.2118,-0.2989,-0.2717,-0.2717,-0.3263,-0.3751,-0.4026,-0.4026,-0.4847,-0.5339,-0.5339,-0.5448,-0.5552,-0.5773,-0.5773,-0.5823,-0.603,-0.6143,-0.6197,-0.6197,-0.6251,-0.658,-0.7023,-0.7023,-0.7023,-0.7023,-0.7072,-0.7121,-0.7126,-0.7385,-0.7816,-0.8347,-0.877,-0.8931,-0.8931,-0.9038,-0.9045,-0.9098,-0.9366,-0.9419,-0.9473,-0.9847,-1.0478,-1.1108,-1.1249,-1.1883,-1.2577,-1.2807,-1.3688,-1.4563,-1.4563,-1.5571,-1.6536,-1.6536,-1.6536,-1.6536,-1.6536,-1.6781,-1.7024,-1.7024,-1.7229,-1.7573,-1.8348,-1.779,-1.7979,-2.0191,-2.0176,-2.0474,-2.2032,-2.2537,-2.2748,-2.2748,-2.2748,-2.2748,-2.2748,-2.3022,-2.3149,-2.3149,-2.3774,-2.4774,-2.6046,-2.6251,-2.6344,-2.6344,-2.6344,-2.6416,-2.6646,-2.7175,-2.7538,-2.7809,-2.9168,-2.963,0.4139,0.4281,0.4608,0.5099,0.5266,0.5416,0.6055,0.6207,0.619,0.6054,0.511,0.43,0.43,0.2663,0.1357,0.1357,-0.0597,-0.2336,-0.2989,-0.3751,-0.4463,-0.5122,-0.523,-0.523,-0.523,-0.523,-0.523,-0.523,-0.5506,-0.5615,-0.5615,-0.5877,-0.603,-0.603,-0.603,-0.603,-0.603,-0.6413,-0.658,-0.658,-0.6856,-0.6969,-0.7023,-0.7023,-0.7023,-0.7023,-0.7277,-0.7379,-0.7379,-0.7654,-0.8455,-0.9626,-1.1099,-1.1619,-1.1672,-1.1901,-1.2016,-1.2069,-1.2314,-1.2419,-1.2419,-1.2692,-1.2807,-1.2807,-1.2807,-1.2807,-1.2807,-1.2807,-1.3688,-1.4563,-1.4563,-1.5841,-1.7114,-1.7114,-1.7114,-1.7114,-1.7114,-1.7905,-1.8637,-1.8637,-1.9262,-1.9812,-1.9812,-1.9613,-1.9413,-1.9478,-2.0341,-2.1,-2.1,-2.2032,-2.2748,-2.2748,-2.2748,-2.2748,-2.2748,-2.3594,-2.4083,-2.4083,-2.5046,-2.6112,-2.717,-2.7712,-2.796,-2.796,-2.796,-2.8299,-2.8925,-2.8925,-2.9279,-2.9913,-2.989,-2.9956,0.391,0.4079,0.4333,0.4861,0.5261,0.5557,0.5663,0.549,0.5304,0.5448,0.4843,0.4137,0.3597,0.1797,0.0381,0.0218,-0.1957,-0.3697,-0.3863,-0.4517,-0.5009,-0.523,-0.523,-0.523,-0.523,-0.523,-0.5339,-0.5506,-0.5615,-0.5719,-0.5872,-0.5981,-0.6143,-0.6413,-0.6418,-0.6526,-0.6689,-0.6802,-0.6856,-0.6856,-0.6964,-0.7072,-0.7277,-0.7277,-0.7385,-0.7552,-0.8455,-0.8823,-0.8931,-0.9984,-1.0675,-1.1046,-1.1681,-1.205,-1.2199,-1.2314,-1.2429,-1.2596,-1.2692,-1.2692,-1.2744,-1.2807,-1.3374,-1.4043,-1.4221,-1.4845,-1.5519,-1.5698,-1.6008,-1.646,-1.7203,-1.7763,-1.8348,-1.9076,-1.9227,-1.9227,-1.9227,-1.9513,-1.9712,-1.9712,-1.9912,-2.0359,-2.1132,-2.0573,-2.0508,-2.2016,-2.1902,-2.1902,-2.2634,-2.3039,-2.3281,-2.3281,-2.3822,-2.4518,-2.5198,-2.5554,-2.5694,-2.5694,-2.7262,-2.8346,-2.868,-2.8814,-2.8925,-2.8925,-2.8925,-2.9014,-2.9213,-2.9696,-2.9979,-3.0239,-3.1202,-3.169,0.4036,0.4168,0.4354,0.4882,0.4937,0.4977,0.5185,0.4881,0.4591,0.477,0.4401,0.3841,0.315,0.1037,-0.0773,-0.1309,-0.33,-0.4696,-0.4636,-0.5009,-0.523,-0.523,-0.5339,-0.5393,-0.5393,-0.5502,-0.5606,-0.5769,-0.5936,-0.6094,-0.6251,-0.6359,-0.6526,-0.6748,-0.6748,-0.6856,-0.7023,-0.7023,-0.7072,-0.7121,-0.7229,-0.7391,-0.7547,-0.7971,-0.8294,-0.8515,-0.9786,-1.0311,-1.0417,-1.1417,-1.205,-1.2481,-1.2649,-1.3122,-1.374,-1.374,-1.3949,-1.4169,-1.4262,-1.4314,-1.4314,-1.4429,-1.4949,-1.5571,-1.575,-1.6266,-1.6896,-1.7063,-1.7114,-1.7422,-1.8637,-1.9227,-1.9712,-2.0344,-2.0477,-2.0477,-2.0477,-2.0838,-2.11,-2.1018,-2.1411,-2.1901,-2.2488,-2.2016,-2.2048,-2.3312,-2.2991,-2.2797,-2.3426,-2.3522,-2.3522,-2.3522,-2.4013,-2.4755,-2.574,-2.6595,-2.7029,-2.7029,-2.8568,-2.9455,-2.9367,-2.9367,-2.9367,-2.9367,-2.9565,-2.985,-3.0155,-3.0823,-3.1268,-3.1522,-3.2424,-3.2836,0.4317,0.4377,0.4495,0.5025,0.444,0.3933,0.4635,0.4387,0.3963,0.3972,0.3791,0.3446,0.286,0.0542,-0.1679,-0.2837,-0.4356,-0.5369,-0.527,-0.525,-0.525,-0.5305,-0.5535,-0.5703,-0.569,-0.5913,-0.6072,-0.6053,-0.6452,-0.667,-0.664,-0.6872,-0.7039,-0.7023,-0.7023,-0.7023,-0.7023,-0.7023,-0.7175,-0.7433,-0.7654,-0.7816,-0.7977,-0.9045,-0.9626,-0.9786,-1.1205,-1.1839,-1.183,-1.2165,-1.2921,-1.3929,-1.3929,-1.4764,-1.5929,-1.5981,-1.6175,-1.6421,-1.6665,-1.6717,-1.6781,-1.7012,-1.7114,-1.7114,-1.7114,-1.7127,-1.7114,-1.7114,-1.7166,-1.7562,-1.9227,-2.0344,-2.1035,-2.1182,-2.1232,-2.1232,-2.1232,-2.1982,-2.2665,-2.2488,-2.3474,-2.4164,-2.3666,-2.3762,-2.3858,-2.3618,-2.357,-2.357,-2.357,-2.3666,-2.3666,-2.3666,-2.3792,-2.4204,-2.5093,-2.6988,-2.8119,-2.8074,-2.9124,-2.961,-2.9367,-2.9367,-2.9367,-2.9411,-3.0045,-3.076,-3.1533,-3.2216,-3.2877,-3.3472,-3.3513,-3.3513,0.3785,0.3665,0.3585,0.4191,0.4175,0.4025,0.4231,0.3643,0.302,0.2899,0.2823,0.2543,0.1605,0.1283,0.0413,-0.1725,-0.3886,-0.5326,-0.5365,-0.5376,-0.5489,-0.565,-0.5947,-0.615,-0.6231,-0.6468,-0.6611,-0.6625,-0.687,-0.6987,-0.6931,-0.7183,-0.7199,-0.7029,-0.7023,-0.7023,-0.7023,-0.7175,-0.7439,-0.7708,-0.7762,-0.8347,-0.9398,-0.9718,-1.0417,-1.154,-1.2754,-1.3289,-1.3394,-1.4242,-1.4723,-1.5036,-1.5295,-1.5658,-1.5981,-1.6369,-1.6691,-1.696,-1.7012,-1.7012,-1.7012,-1.7063,-1.7114,-1.7114,-1.7114,-1.7268,-1.7408,-1.7408,-1.7562,-1.8362,-2.1116,-2.1411,-2.1428,-2.3101,-2.3534,-2.3534,-2.3534,-2.3696,-2.3858,-2.3858,-2.4098,-2.4259,-2.4164,-2.4145,-2.4164,-2.4098,-2.4116,-2.4116,-2.4116,-2.4726,-2.5179,-2.5179,-2.6488,-2.7492,-2.7719,-2.8881,-2.9433,-2.9058,-2.9279,-2.9411,-2.9367,-2.9367,-2.9565,-3.0089,-3.0651,-3.1273,-3.1948,-3.2868,-3.3436,-3.3597,-3.4194,-3.4458,0.3683,0.3671,0.3513,0.3311,0.3304,0.3328,0.3225,0.2805,0.2425,0.2302,0.2176,0.1939,0.1413,0.1067,0.0289,-0.1443,-0.3808,-0.551,-0.5691,-0.583,-0.6008,-0.6408,-0.6567,-0.675,-0.6914,-0.7106,-0.719,-0.7186,-0.7283,-0.7359,-0.7292,-0.7392,-0.7407,-0.7183,-0.7288,-0.7289,-0.7175,-0.7716,-0.8256,-0.877,-0.8877,-0.9618,-1.0887,-1.147,-1.2112,-1.2921,-1.4033,-1.4619,-1.4827,-1.5399,-1.5722,-1.5814,-1.6021,-1.6124,-1.6175,-1.6575,-1.6832,-1.6947,-1.7063,-1.7114,-1.7114,-1.7114,-1.7166,-1.7268,-1.7268,-1.746,-1.7752,-1.8247,-1.9392,-2.0836,-2.2568,-2.2908,-2.3167,-2.4355,-2.464,-2.464,-2.464,-2.464,-2.4659,-2.4498,-2.4545,-2.4545,-2.4355,-2.4402,-2.4574,-2.4887,-2.4934,-2.5076,-2.5433,-2.5973,-2.6324,-2.6231,-2.7266,-2.8079,-2.8347,-2.8881,-2.9279,-2.9367,-2.9675,-2.9981,-3.0216,-3.0624,-3.1051,-3.1389,-3.1792,-3.2275,-3.2811,-3.3476,-3.3943,-3.4142,-3.4616,-3.4799,0.3573,0.3756,0.3652,0.265,0.2443,0.2426,0.222,0.209,0.2018,0.1867,0.168,0.1515,0.1442,0.0566,-0.0538,-0.1753,-0.3562,-0.5017,-0.5712,-0.6181,-0.6675,-0.7139,-0.7237,-0.739,-0.7607,-0.7669,-0.7681,-0.7644,-0.7675,-0.7665,-0.7592,-0.7683,-0.7657,-0.7532,-0.7754,-0.7823,-0.7661,-0.8653,-0.9541,-1.019,-1.063,-1.1438,-1.2574,-1.3527,-1.4035,-1.4287,-1.507,-1.567,-1.5969,-1.5969,-1.6124,-1.6318,-1.6369,-1.6369,-1.6421,-1.6678,-1.6768,-1.6832,-1.7012,-1.7114,-1.7114,-1.7319,-1.7511,-1.7752,-1.7905,-1.8196,-1.8637,-1.9777,-2.1608,-2.3312,-2.3666,-2.4307,-2.4896,-2.5038,-2.5086,-2.5086,-2.5086,-2.5086,-2.4991,-2.4783,-2.4944,-2.4944,-2.4498,-2.4735,-2.5142,-2.5694,-2.588,-2.6231,-2.6855,-2.7286,-2.7468,-2.7241,-2.7559,-2.7965,-2.8526,-2.857,-2.8859,-2.9455,-3.0091,-3.0674,-3.1112,-3.1993,-3.2547,-3.2793,-3.3087,-3.3476,-3.3917,-3.4182,-3.455,-3.4956,-3.4956,-3.4956,0.2707,0.2844,0.2905,0.272,0.2498,0.2372,0.2314,0.1957,0.1609,0.1475,0.1408,0.113,0.0256,0.0571,0.0081,-0.2492,-0.1863,-0.1872,-0.4381,-0.5955,-0.7002,-0.7302,-0.7568,-0.7735,-0.7896,-0.809,-0.8169,-0.7906,-0.8137,-0.8074,-0.7613,-0.809,-0.8278,-0.8027,-0.8423,-0.8693,-0.889,-1.0439,-1.1245,-1.1429,-1.2563,-1.3698,-1.4845,-1.457,-1.511,-1.6235,-1.5965,-1.6033,-1.6279,-1.6279,-1.6279,-1.6369,-1.6575,-1.6665,-1.6665,-1.6947,-1.7063,-1.7063,-1.7063,-1.7114,-1.7268,-1.8145,-1.8587,-1.8976,-1.9862,-2.0492,-2.1133,-2.2503,-2.2471,-2.2471,-2.4355,-2.4307,-2.4002,-2.483,-2.5086,-2.5086,-2.5086,-2.5086,-2.5038,-2.5038,-2.5038,-2.5038,-2.4991,-2.5612,-2.6198,-2.6271,-2.6988,-2.7513,-2.7649,-2.8435,-2.8991,-2.8947,-2.9719,-3.0242,-3.0329,-3.0329,-3.0242,-3.0025,-3.0112,-3.0242,-3.0306,-3.1093,-3.2135,-3.3425,-3.3957,-3.4524,-3.5124,-3.5471,-3.5728,-3.5805,-3.5805,-3.5805,0.2429,0.251,0.2591,0.2453,0.2324,0.2172,0.1974,0.1689,0.14,0.1298,0.1201,0.104,0.0619,0.0883,0.0385,-0.1984,-0.1671,-0.2023,-0.4644,-0.622,-0.7334,-0.8064,-0.8099,-0.8164,-0.8375,-0.8364,-0.8311,-0.8206,-0.8296,-0.8328,-0.8348,-0.8573,-0.8711,-0.8582,-0.8935,-0.9662,-1.0683,-1.217,-1.3197,-1.3678,-1.4247,-1.5226,-1.6508,-1.628,-1.6624,-1.7447,-1.72,-1.7223,-1.7495,-1.7495,-1.7549,-1.7699,-1.7807,-1.7668,-1.745,-1.8186,-1.8332,-1.8247,-1.8775,-1.9076,-1.9277,-1.9762,-2.0096,-2.0393,-2.0871,-2.2718,-2.4769,-2.5429,-2.5209,-2.5058,-2.6099,-2.5999,-2.573,-2.6199,-2.6348,-2.6348,-2.6348,-2.6348,-2.6234,-2.5779,-2.5703,-2.557,-2.5162,-2.5444,-2.6012,-2.7033,-2.7534,-2.8166,-2.9124,-2.9763,-3.0025,-3.0004,-3.0439,-3.0697,-3.0635,-3.121,-3.1236,-3.0505,-3.0415,-3.0674,-3.1188,-3.2025,-3.299,-3.4116,-3.4641,-3.5201,-3.569,-3.569,-3.5767,-3.5957,-3.5957,-3.5957,0.2456,0.0,0.2545,0.2343,0.2143,0.1959,0.0,0.1484,0.1318,0.1194,0.1083,0.1045,0.1129,0.1148,0.0608,-0.1056,-0.1224,-0.2116,-0.4807,-0.5785,-0.6815,-0.8299,-0.8343,-0.8343,-0.8578,-0.8428,-0.8424,-0.8489,-0.8489,-0.8678,-0.8996,-0.9119,-0.9155,-0.9149,-0.9525,-1.0399,-1.1697,-1.3279,-1.4465,-1.5152,-1.5809,-1.664,-1.7701,-1.7685,-1.7854,-1.8198,-1.8187,-1.8307,-1.8559,-1.8559,-1.8659,-1.8872,-1.9196,-1.9029,-1.8791,-2.0015,-2.033,-2.0229,-2.1043,-2.1432,-2.1583,-2.1583,-2.1934,-2.2368,-2.2684,-2.4945,-2.7416,-2.7416,-2.7416,-2.7416,-2.7416,-2.7416,-2.7416,-2.7416,-2.7416,-2.7416,-2.7416,-2.7416,-2.7227,-2.662,-2.6738,-2.6726,-2.6139,-2.6454,-2.7289,-2.8693,-2.906,-2.9698,-3.1111,-3.1376,-3.142,-3.1311,-3.1376,-3.1283,-3.0963,-3.1958,-3.2395,-3.1839,-3.1792,-3.2107,-3.2776,-3.369,-3.4293,-3.4602,-3.5201,-3.569,-3.5957,-3.569,-3.569,-3.5957,-3.5957,-3.5957,0.0,0.2771,0.2712,0.2705,0.2208,0.1765,0.1747,0.155,0.0,0.1189,0.1174,0.1173,0.1182,0.1181,0.0891,0.0,0.0598,-0.0183,-0.4022,-0.3902,-0.4487,-0.7305,-0.7843,-0.8031,-0.8053,-0.8237,-0.8483,-0.8866,-0.8931,-0.8996,-0.926,-0.9636,-0.9817,-0.9863,-1.0255,-1.0454,-1.0583,-1.3116,-1.4366,-1.4465,-1.7054,-1.8319,-1.8369,-1.8275,-1.8356,-1.858,-1.849,-1.8602,-1.8828,-1.8828,-1.8815,-1.8984,-2.0176,-2.0785,-2.1127,-2.24,-2.3035,-2.3202,-2.331,-2.331,-2.3363,-2.3363,-2.4203,-2.5385,-2.6468,-2.7081,-2.7416,-2.7416,-2.7416,-2.7416,-2.7416,-2.7416,-2.7416,-2.7416,-2.7416,-2.7416,-2.7416,-2.7416,-2.7397,-2.734,-2.8177,-2.89,-2.8911,-3.0585,-3.1971,-3.2116,-3.2856,-3.3424,-3.3588,-3.3588,-3.3588,-3.3588,-3.3588,-3.3191,-3.2258,-3.3098,-3.4104,-3.4977,-3.5068,-3.5033,-3.4964,-3.582,-3.5774,-3.4602,-3.5471,-3.5957,-3.5957,-3.5957,-3.5957,-3.5957,-3.5957,-3.5957,0.283,0.2814,0.2727,0.2317,0.2036,0.1806,0.1649,0.1496,0.1348,0.1289,0.1209,0.1183,0.1183,0.1183,0.0822,-0.0294,-0.0215,-0.0999,-0.3921,-0.4308,-0.5064,-0.7116,-0.7865,-0.8227,-0.8227,-0.8306,-0.8548,-0.8931,-0.8926,-0.9184,-0.9636,-0.9824,-1.0023,-1.0288,-1.1175,-1.168,-1.168,-1.4348,-1.5738,-1.5748,-1.7601,-1.8622,-1.8859,-1.8952,-1.916,-1.9525,-1.9744,-1.9833,0.0,-2.0757,-2.1053,-2.1157,-2.2463,-2.2844,-2.2763,-2.3915,-2.4394,-2.4586,-2.5225,-2.565,-2.5932,-2.5932,-2.63,-2.6791,-2.7227,-2.8102,-2.897,-2.897,-2.897,-2.897,-2.897,-2.897,-2.897,-2.897,-2.897,-2.897,-2.897,-2.897,-2.9091,-2.928,-2.9707,-3.0026,-3.0213,-3.0925,-3.1733,-3.2388,-3.2774,-3.318,-3.3751,-3.3798,-3.3798,-3.3798,-3.3798,-3.3915,-3.4196,-3.4593,-3.4668,-3.4433,-3.5036,-3.5345,-3.5285,-3.6776,-3.7402,-3.6911,-3.7788,-3.8262,-3.8262,-3.8262,-3.7839,-3.7075,-3.7075,-3.6666,0.2906,0.2843,0.267,0.2146,0.1929,0.1805,0.1625,0.1481,0.143,0.1354,0.1306,0.1237,0.1237,0.1237,0.09,-0.0044,-0.0533,-0.1526,-0.3726,-0.4659,-0.5674,-0.7116,-0.7808,-0.8163,-0.8237,-0.844,-0.8678,-0.9061,-0.9184,-0.9507,-1.0088,-1.0088,-1.0223,-1.0487,-1.1367,-1.1808,-1.1808,-1.4475,-1.5864,-1.5874,-1.7726,-1.8809,-1.9058,-1.9418,-1.9777,-2.0036,-2.0406,-2.0591,-2.0714,-2.1849,-2.2153,-2.2032,-2.4098,-2.4572,-2.4277,-2.5799,-2.6486,-2.6721,-2.7442,-2.7926,-2.8212,-2.8212,-2.8212,-2.8212,-2.8212,-2.9008,-2.9955,-2.9955,-2.9955,-2.9955,-2.9955,-2.9955,-2.9955,-2.9955,-2.9955,-2.9955,-2.9955,-3.003,-3.0196,-3.0311,-3.0983,-3.1577,-3.1705,-3.2309,-3.3084,-3.3752,-3.3873,-3.412,-3.473,-3.4827,-3.4827,-3.4827,-3.4827,-3.5255,-3.6283,-3.6404,-3.6317,-3.6314,-3.6945,-3.7349,-3.7287,-3.8558,-3.9104,-3.8756,-3.9334,-3.9654,-3.9654,-3.9654,-3.9176,-3.833,-3.833,-3.7894,0.3137,0.2837,0.2453,0.2181,0.1963,0.1713,0.1595,0.1567,0.1536,0.1377,0.1354,0.1354,0.1354,0.1354,0.1285,0.1015,0.0,-0.1397,-0.3269,-0.4511,-0.5845,-0.7416,-0.7592,-0.7686,-0.7922,-0.853,-0.9061,-0.9325,-0.9701,-1.0088,-1.0487,-1.0487,-1.0487,-1.0487,-1.0487,-1.0487,-1.0487,-1.3086,-1.4421,-1.4421,-1.759,-1.9058,-1.9058,-1.9727,-2.0024,-2.0036,-2.0406,-2.0591,-2.0714,-2.1849,-2.1666,-2.1007,-2.4769,-2.5834,-2.5641,-2.8201,-2.9481,-2.9955,-2.9955,-2.9955,-2.9955,-2.9955,-2.9955,-2.9955,-2.9955,-2.9955,-2.9955,-2.9955,-2.9955,-2.9955,-2.9955,-2.9955,-2.9955,-2.9955,-2.9955,-2.9955,-2.9955,-3.0276,-3.0408,-3.003,-3.2094,-3.3783,-3.3491,-3.5403,-3.6908,-3.6908,-3.6908,-3.6908,-3.6908,-3.6908,-3.6908,-3.6908,-3.6908,-3.7369,-3.8385,-3.8485,-3.9378,-4.1455,-4.1596,-4.1532,-4.1402,-4.1435,-4.0872,-3.9709,-3.9682,-3.9682,-3.9682,-3.9682,-3.9682,-3.9682,-3.9682,-3.9682,0.2828,0.2619,0.2399,0.1963,0.18,0.1713,0.1595,0.1567,0.1536,0.1377,0.1354,0.1354,0.1354,0.1354,0.1241,0.0877,-0.0285,-0.1786,-0.355,-0.488,-0.6221,-0.7659,-0.7838,-0.7932,-0.8232,-0.8446,-0.8743,-0.926,-0.9701,-1.0088,-1.0487,-1.0487,-1.0487,-1.0487,-1.1367,-1.1873,-1.1873,-1.4538,-1.599,-1.6168,-1.8151,-1.912,-1.9356,-1.9789,-2.0024,-2.0036,-2.0406,-2.0591,-2.0714,-2.1849,-2.2866,-2.3814,-2.5775,-2.714,-2.8086,-2.8871,-2.9386,-2.9671,-2.9671,-2.9766,-2.9955,-2.9955,-2.9955,-2.9955,-2.9955,-2.9955,-2.9955,-2.9955,-2.9955,-2.9955,-2.9955,-2.9955,-2.9955,-2.9955,-2.9955,-2.9955,-2.9955,-3.0668,-3.1561,-3.2259,-3.3707,-3.5011,-3.577,-3.6471,-3.6908,-3.6908,-3.6908,-3.6908,-3.6908,-3.6908,-3.6908,-3.6908,-3.6908,-3.7369,-3.8385,-3.7804,-3.8284,-4.0352,-4.0497,-4.0846,-4.1512,-4.2261,-4.2485,-4.2129,-4.2129,-4.2129,-4.2129,-4.2129,-4.2129,-4.2129,-4.1282,-4.0872,0.2891,0.2673,0.229,0.1417,0.1471,0.1612,0.1066,0.1238,0.1542,0.1452,0.1415,0.1318,0.1205,0.0806,0.0366,-0.0147,-0.1713,-0.3366,-0.462,-0.5915,-0.706,-0.8037,-0.8148,-0.82,-0.8348,-0.8489,-0.8807,-0.9325,-0.9836,-1.0223,-1.0487,-1.0487,-1.0487,-1.0487,-1.1744,-1.244,-1.244,-1.5287,-1.6743,-1.692,-1.8649,-1.9542,-1.9727,-2.0098,-2.0283,-2.0283,-2.0529,-2.0591,-2.0714,-2.1849,-2.2685,-2.3394,-2.5598,-2.6965,-2.7739,-2.8756,-2.9386,-2.9709,-2.9709,-2.9804,-2.9955,-2.9955,-2.9955,-2.9955,-2.9955,-2.9955,-2.9955,-2.9955,-2.9955,-2.9955,-2.9955,-2.9955,-2.9955,-2.9955,-2.9955,-3.0068,-3.0668,-3.1485,-3.2403,-3.3545,-3.483,-3.5927,-3.6471,-3.6959,-3.7188,-3.7085,-3.7085,-3.7085,-3.7085,-3.6959,-3.6982,-3.7085,-3.6959,-3.7369,-3.8385,-3.8309,-3.8884,-4.0545,-4.1071,-4.1543,-4.2204,-4.2849,-4.3168,-4.3168,-4.3168,-4.3168,-4.3168,-4.3168,-4.3168,-4.3141,-4.243,-4.2102,0.3166,0.2837,0.2181,0.0872,0.109,0.1351,0.0365,0.0807,0.1462,0.1545,0.1448,0.1293,0.101,0.0,-0.1016,-0.1651,-0.3757,-0.5493,-0.6122,-0.7273,-0.8116,-0.8333,-0.8359,-0.8359,-0.8359,-0.8737,-0.9061,-0.9325,-1.0036,-1.0487,-1.0487,-1.0487,-1.0552,-1.0674,-1.2001,-1.2751,-1.2879,-1.5718,-1.717,-1.7233,-1.9146,-2.0036,-2.0098,-2.0468,-2.0591,-2.0591,-2.0591,-2.0591,-2.0714,-2.1849,-2.1849,-2.1361,-2.4931,-2.607,-2.5995,-2.8374,-2.9538,-2.9955,-2.9955,-2.9955,-2.9955,-2.9955,-2.9955,-2.9955,-2.9955,-2.9955,-2.9955,-2.9955,-2.9955,-2.9955,-2.9955,-3.0011,-3.0011,-3.0011,-3.0068,-3.0519,-3.1928,-3.2588,-3.3188,-3.4169,-3.5591,-3.6499,-3.6113,-3.6936,-3.7546,-3.7314,-3.7263,-3.7263,-3.7263,-3.7085,-3.7034,-3.7314,-3.7188,-3.7523,-3.8535,-3.9476,-4.0497,-4.169,-4.2501,-4.3077,-4.3168,-4.3168,-4.3168,-4.3168,-4.3168,-4.3168,-4.3168,-4.3168,-4.3168,-4.3168,-4.3168,-4.3168,0.3166,0.2837,0.2399,0.1909,0.109,0.054,0.12,0.0823,0.0553,0.1367,0.151,0.1414,0.1029,-0.0048,-0.1121,-0.1668,-0.3966,-0.5837,-0.6159,-0.7402,-0.8301,-0.8354,-0.8359,-0.8359,-0.8359,-0.8737,-0.9061,-0.9325,-0.9771,-1.0152,-1.0487,-1.0487,-1.0996,-1.2001,-1.3587,-1.4909,-1.597,-1.7941,-1.9022,-1.9331,-1.9777,-2.0147,-2.0468,-2.0591,-2.0591,-2.0591,-2.0591,-2.0591,-2.0714,-2.1849,-2.3093,-2.4456,-2.6271,-2.7802,-2.9026,-2.9558,-2.9861,-2.9955,-2.9955,-2.9955,-2.9955,-2.9955,-2.9955,-2.9955,-2.9955,-2.9955,-2.9955,-2.9955,-2.9955,-3.003,-3.0276,-3.0408,-3.0464,-3.0653,-3.1231,-3.2134,-3.3491,-3.4373,-3.498,-3.5245,-3.6286,-3.7085,-3.6804,-3.6959,-3.7085,-3.7034,-3.7034,-3.7034,-3.7034,-3.6982,-3.7113,-3.7546,-3.7929,-3.8585,-3.9623,-3.9916,-4.0832,-4.2712,-4.2224,-4.227,-4.3123,-4.3168,-4.3168,-4.3168,-4.3168,-4.3168,-4.3168,-4.3168,-4.3168,-4.3168,-4.3168,-4.3168,0.2504,0.1962,0.1362,-0.0054,-0.0661,-0.0943,-0.0872,-0.0977,-0.0963,-0.0355,-0.0201,-0.0149,0.0,-0.1514,-0.2834,-0.2873,-0.5105,-0.6917,-0.7189,-0.7894,-0.8359,-0.8359,-0.8359,-0.8359,-0.8359,-0.8807,-0.919,-0.9325,-0.9836,-1.0288,-1.0487,-1.0487,-1.1117,-1.2376,-1.4719,-1.6231,-1.692,-1.8762,-1.9838,-2.0024,-2.0221,-2.0406,-2.0591,-2.0591,-2.0591,-2.0591,-2.0591,-2.0591,-2.0701,-2.2079,-2.3259,-2.4381,-2.6447,-2.7859,-2.8912,-2.952,-2.9804,-2.9955,-2.9955,-2.9955,-2.9955,-2.9955,-2.9955,-2.9955,-2.9955,-2.9955,-2.9955,-2.9955,-2.9955,-2.9955,-3.0219,-3.0408,-3.069,-3.1342,-3.1898,-3.2574,-3.3761,-3.4852,-3.5793,-3.6626,-3.7267,-3.7699,-3.7652,-3.7652,-3.7601,-3.7523,-3.7523,-3.7523,-3.7523,-3.7369,-3.7574,-3.8385,-3.8734,-3.9255,-4.0159,-4.0689,-4.1355,-4.2363,-4.2363,-4.262,-4.3123,-4.3168,-4.3168,-4.3168,-4.3168,-4.3168,-4.3168,-4.3168,-4.3168,-4.3168,-4.3168,-4.3168,0.1577,0.0816,-0.0109,-0.2283,-0.2496,-0.2433,-0.3171,-0.2957,-0.2488,-0.2188,-0.2191,-0.2051,-0.1463,-0.3335,-0.4907,-0.4625,-0.6623,-0.8253,-0.8449,-0.8475,-0.8449,-0.837,-0.8359,-0.8359,-0.8483,-0.9002,-0.939,-0.9448,-1.01,-1.0487,-1.0487,-1.0487,-1.1117,-1.2376,-1.5151,-1.6858,-1.742,-1.9195,-2.0085,-2.0085,-2.0468,-2.0591,-2.0591,-2.0591,-2.0591,-2.0652,-2.0823,-2.0946,-2.1117,-2.2837,-2.3649,-2.4008,-2.6622,-2.7744,-2.8148,-2.9196,-2.9766,-2.9955,-2.9955,-2.9955,-2.9955,-2.9955,-2.9955,-2.9955,-2.9955,-2.9955,-2.9955,-2.9955,-2.9955,-2.9955,-3.003,-3.0426,-3.1119,-3.1969,-3.2629,-3.3284,-3.4073,-3.5192,-3.6499,-3.7804,-3.8131,-3.8158,-3.8359,-3.8359,-3.8258,-3.8081,-3.803,-3.803,-3.803,-3.7879,-3.8158,-3.9255,-3.9475,-3.9866,-4.0711,-4.1758,-4.2224,-4.2018,-4.2804,-4.3304,-4.3304,-4.3259,-4.3214,-4.3214,-4.3168,-4.3168,-4.3214,-4.3214,-4.3214,-4.3214,-4.3214,-4.3214,0.098,-0.0109,-0.1141,-0.152,-0.2453,-0.3064,-0.2188,-0.2798,-0.3225,-0.2352,-0.2328,-0.2571,-0.2932,-0.4313,-0.5662,-0.6449,-0.7944,-0.8988,-0.902,-0.9026,-0.8876,-0.8407,-0.8359,-0.8489,-0.8802,-0.9131,-0.9448,-0.983,-1.0223,-1.0487,-1.0487,-1.0487,-1.1117,-1.2376,-1.4276,-1.6618,-1.9591,-2.0209,-2.0529,-2.0529,-2.0591,-2.0591,-2.0591,-2.0591,-2.0591,-2.0652,-2.1666,-2.2307,-2.2823,-2.5168,-2.6464,-2.7147,-2.8662,-2.9406,-2.9671,-2.9785,-2.9917,-2.9955,-2.9955,-2.9955,-2.9955,-2.9955,-2.9955,-2.9955,-2.9955,-2.9955,-2.9955,-2.9955,-2.9955,-3.003,-3.0332,-3.1358,-3.2389,-3.254,-3.447,-3.6234,-3.5921,-3.7015,-3.8083,-3.8107,-3.8131,-3.803,-3.7852,-3.7801,-3.7801,-3.775,-3.775,-3.775,-3.775,-3.7929,-3.8459,-3.9476,-4.023,-4.0997,-4.2038,-4.3077,-4.3664,-4.3619,-4.3754,-4.3843,-4.3843,-4.3619,-4.3485,-4.3485,-4.3259,-4.3259,-4.3485,-4.3485,-4.3485,-4.3485,-4.3485,-4.3349,0.0162,-0.1195,-0.2553,-0.3317,-0.4084,-0.4477,-0.3916,-0.4357,-0.4789,-0.4491,-0.4527,-0.4552,-0.4488,-0.5655,-0.6619,-0.6601,-0.7778,-0.8727,-0.8727,-0.8727,-0.8586,-0.8385,-0.8359,-0.8483,-0.8931,-0.919,-0.9513,-0.9894,-1.0288,-1.0487,-1.0487,-1.1182,-1.2342,-1.3897,-1.535,-1.757,-2.0638,-2.0899,-2.0903,-2.0591,-2.0591,-2.0591,-2.0591,-2.0591,-2.1069,-2.1943,-2.2475,-2.3259,-2.4381,-2.633,-2.7338,-2.7744,-2.9216,-2.9861,-2.9955,-2.9955,-2.9955,-2.9955,-2.9955,-2.9955,-2.9955,-2.9955,-2.9955,-2.9955,-2.9955,-3.0387,-3.0929,-3.0929,-3.1485,-3.2149,-3.2334,-3.3079,-3.403,-3.4564,-3.577,-3.6833,-3.7141,-3.7675,-3.803,-3.7879,-3.798,-3.8131,-3.8107,-3.8107,-3.8107,-3.8107,-3.8107,-3.8107,-3.8107,-3.8759,-3.9623,-4.0615,-4.159,-4.2501,-4.3404,-4.3882,-4.4077,-4.396,-4.396,-4.396,-4.396,-4.3798,-4.3754,-4.3754,-4.3619,-4.3619,-4.3754,-4.3754,-4.3754,-4.3754,-4.3754,-4.3709,-0.0649,-0.2118,-0.3534,-0.4901,-0.533,-0.5429,-0.5485,-0.5671,-0.591,-0.6209,-0.6371,-0.6356,-0.5978,-0.6899,-0.7495,-0.7021,-0.7829,-0.8533,-0.8533,-0.8533,-0.8491,-0.8375,-0.8419,-0.8678,-0.8996,-0.9319,-0.9642,-1.0023,-1.0352,-1.0487,-1.0487,-1.1834,-1.3408,-1.5138,-1.6517,-1.8423,-2.0939,-2.1117,-2.1008,-2.0591,-2.0591,-2.0652,-2.0701,-2.1069,-2.1882,-2.3064,-2.3709,-2.4722,-2.5995,-2.7454,-2.8166,-2.8321,-2.9501,-2.9955,-2.9955,-2.9955,-2.9955,-2.9955,-2.9955,-2.9955,-2.9955,-2.9955,-2.9955,-2.9955,-2.9955,-3.0836,-3.1818,-3.1818,-3.2786,-3.3944,-3.3944,-3.4564,-3.5388,-3.6067,-3.6683,-3.722,-3.7956,-3.798,-3.7879,-3.7879,-3.8081,-3.8258,-3.8435,-3.8485,-3.8485,-3.8485,-3.8485,-3.8485,-3.8485,-3.9181,-4.0134,-4.1444,-4.229,-4.3168,-4.431,-4.4399,-4.4282,-4.4093,-4.4093,-4.4093,-4.4093,-4.4049,-4.4004,-4.4004,-4.396,-4.396,-4.4004,-4.4004,-4.4004,-4.4004,-4.4004,-4.4004,-0.1204,-0.2553,-0.3751,-0.4955,-0.5238,-0.5301,-0.5573,-0.5708,-0.5952,-0.6299,-0.6804,-0.719,-0.7258,-0.7679,-0.8158,-0.8882,-0.9073,-0.9079,-0.9079,-0.9079,-0.8914,-0.8412,-0.8672,-0.8996,-0.926,-0.9636,-1.0023,-1.0423,-1.0487,-1.0487,-1.0487,-1.2189,-1.3816,-1.5138,-1.7162,-1.8887,-2.0241,-2.0541,-2.0617,-2.0591,-2.0591,-2.0775,-2.0994,-2.2232,-2.2989,-2.3469,-2.5903,-2.7147,-2.757,-2.891,-2.9595,-2.9842,-2.9898,-2.9955,-2.9955,-2.9955,-2.9955,-2.9955,-2.9955,-2.9955,-2.9955,-2.9955,-2.9955,-2.9955,-2.9955,-3.0948,-3.2059,-3.2059,-3.3112,-3.4169,-3.4169,-3.5208,-3.6223,-3.6038,-3.7196,-3.8335,-3.8107,-3.8258,-3.8435,-3.8435,-3.8485,-3.8485,-3.8485,-3.8485,-3.8485,-3.8485,-3.8485,-3.8485,-3.8485,-3.8535,-3.9353,-4.1397,-4.1637,-4.2436,-4.4314,-4.449,-4.449,-4.4519,-4.4446,-4.4446,-4.4446,-4.437,-4.4294,-4.4294,-4.4032,-4.4032,-4.4294,-4.4294,-4.4294,-4.4294,-4.4294,-4.4149,-0.1168,-0.2984,-0.4738,-0.5122,-0.523,-0.5339,-0.556,-0.5661,-0.5909,-0.6541,-0.6808,-0.7086,-0.7685,-0.7875,-0.8137,-0.8539,-0.8602,-0.8602,-0.8602,-0.8602,-0.8544,-0.838,-0.8672,-0.9061,-0.9325,-0.99,-1.0352,-1.0487,-1.0487,-1.0867,-1.168,-1.3146,-1.475,-1.6518,-1.813,-1.9636,-2.0852,-2.0682,-2.0773,-2.1062,-2.076,-2.1178,-2.2232,-2.2702,-2.4067,-2.6138,-2.7089,-2.809,-2.9141,-2.9633,-2.9861,-2.9955,-2.9955,-2.9955,-2.9955,-2.9955,-2.9955,-3.0068,-3.1004,-3.1358,-3.1581,-3.2403,-3.2567,-3.2478,-3.2656,-3.3578,-3.4564,-3.4564,-3.562,-3.6734,-3.6734,-3.7173,-3.7705,-3.7604,-3.8009,-3.8485,-3.8359,-3.8435,-3.8485,-3.8485,-3.8485,-3.8485,-3.8485,-3.8485,-3.8485,-3.8485,-3.8485,-3.8485,-3.8485,-3.9647,-4.0781,-4.1538,-4.2704,-4.3754,-4.4446,-4.449,-4.449,-4.449,-4.449,-4.449,-4.449,-4.4475,-4.4431,-4.4431,-4.4387,-4.4342,-4.4431,-4.4431,-4.4431,-4.4431,-4.4431,-4.4387,-0.1097,-0.2959,-0.4738,-0.5176,-0.5339,-0.5448,-0.5719,-0.5881,-0.614,-0.672,-0.6917,-0.7173,-0.7649,-0.7894,-0.8058,-0.8216,-0.8306,-0.8359,-0.8359,-0.8359,-0.8424,-0.8548,-0.8866,-0.919,-0.9513,-1.01,-1.0674,-1.1117,-1.1182,-1.1752,-1.3014,-1.454,-1.5969,-1.7379,-1.8895,-2.0147,-2.1075,-2.0745,-2.0773,-2.1075,-2.0773,-2.1409,-2.3003,-2.4008,-2.5726,-2.7802,-2.8205,-2.8969,-2.9955,-2.9955,-2.9955,-2.9955,-2.9955,-2.9955,-2.9955,-2.9955,-3.035,-3.1004,-3.1928,-3.2554,-3.3045,-3.3922,-3.4083,-3.3976,-3.4169,-3.5072,-3.609,-3.609,-3.7094,-3.8208,-3.8208,-3.8359,-3.8485,-3.8485,-3.8485,-3.8485,-3.8485,-3.8485,-3.8485,-3.8485,-3.8485,-3.8485,-3.8485,-3.8485,-3.8485,-3.8485,-3.8485,-3.8485,-3.8485,-4.0037,-4.1365,-4.2113,-4.3314,-4.435,-4.5082,-4.4788,-4.449,-4.449,-4.449,-4.449,-4.449,-4.449,-4.449,-4.449,-4.449,-4.449,-4.449,-4.449,-4.449,-4.449,-4.449,-4.4666,-0.1053,-0.249,-0.3748,-0.4955,-0.5452,-0.5719,-0.5981,-0.6305,-0.6689,-0.6964,-0.7194,-0.7399,-0.741,-0.7672,-0.7984,-0.7932,-0.8195,-0.8348,-0.8348,-0.8354,-0.8489,-0.8866,-0.919,-0.9513,-0.9894,-1.0281,-1.1053,-1.2376,-1.2504,-1.3078,-1.4421,-1.6267,-1.7423,-1.7705,-1.934,-2.0372,-2.0758,-2.0677,-2.0591,-2.0652,-2.0652,-2.1422,-2.3049,-2.6138,-2.7819,-2.8299,-2.9444,-2.9955,-2.9955,-2.9955,-2.9955,-2.9955,-2.9955,-2.9955,-2.9955,-3.0011,-3.1171,-3.2697,-3.2752,-3.3437,-3.4276,-3.4329,-3.4307,-3.4329,-3.4329,-3.5335,-3.643,-3.643,-3.7428,-3.8485,-3.8485,-3.8485,-3.8485,-3.8485,-3.8485,-3.8485,-3.8485,-3.8485,-3.8485,-3.8485,-3.8485,-3.8485,-3.8485,-3.8485,-3.8485,-3.8485,-3.8485,-3.8485,-3.8485,-3.9378,-4.0908,-4.3094,-4.3241,-4.4071,-4.6225,-4.5239,-4.449,-4.449,-4.449,-4.449,-4.449,-4.449,-4.449,-4.449,-4.449,-4.449,-4.449,-4.449,-4.449,-4.449,-4.449,-4.4985,-0.0661,-0.2267,-0.3637,-0.4925,-0.5285,-0.5502,-0.5927,-0.6084,-0.6359,-0.691,-0.7071,-0.7162,-0.7378,-0.746,-0.7604,-0.766,-0.7885,-0.81,-0.81,-0.8248,-0.8489,-0.8866,-0.919,-0.9578,-1.0288,-1.1303,-1.2057,-1.2432,-1.3332,-1.4538,-1.6105,-1.6734,-1.763,-1.8936,-1.9689,-2.0127,-2.0252,-2.0484,-2.0714,-2.0885,-2.0885,-2.1714,-2.3289,-2.5271,-2.7396,-2.9444,-2.9785,-2.9955,-2.9955,-3.0219,-3.0351,-3.0351,-3.0351,-3.0464,-3.0746,-3.1561,-3.2334,-3.3154,-3.4755,-3.5545,-3.6061,-3.7019,-3.7196,-3.7043,-3.7224,-3.7604,-3.7908,-3.7908,-3.816,-3.8485,-3.8485,-3.8485,-3.8485,-3.8485,-3.8485,-3.8485,-3.8485,-3.8485,-3.8485,-3.8485,-3.8485,-3.8485,-3.8485,-3.8485,-3.8485,-3.8485,-3.8485,-3.8485,-3.8485,-3.9378,-4.084,-4.2978,-4.3768,-4.4366,-4.4997,-4.4716,-4.449,-4.449,-4.449,-4.449,-4.449,-4.449,-4.449,-4.449,-4.449,-4.449,-4.449,-4.449,-4.449,-4.449,-4.449,-4.4666,0.0208,-0.1713,-0.3372,-0.4376,-0.485,-0.5265,-0.5868,-0.6073,-0.6253,-0.6889,-0.7023,-0.7061,-0.7188,-0.729,-0.7401,-0.7477,-0.7698,-0.8072,-0.8789,-0.906,-0.945,-0.9946,-1.0217,-1.0603,-1.1239,-1.2001,-1.2942,-1.4086,-1.4855,-1.6,-1.7692,-1.7828,-1.8389,-1.9653,-1.99,-2.0098,-2.0283,-2.0468,-2.0775,-2.1007,-2.1531,-2.2716,-2.4365,-2.5802,-2.7744,-2.9955,-2.9955,-3.003,-3.0219,-3.0408,-3.0577,-3.0653,-3.0653,-3.0765,-3.1046,-3.2355,-3.3588,-3.4874,-3.6165,-3.6964,-3.7475,-3.8234,-3.8409,-3.8309,-3.8435,-3.8485,-3.8485,-3.8485,-3.8485,-3.8485,-3.8485,-3.8485,-3.8485,-3.8485,-3.8485,-3.8485,-3.8485,-3.8485,-3.8485,-3.8485,-3.8485,-3.8485,-3.8485,-3.8485,-3.8485,-3.8485,-3.8485,-3.8485,-3.8485,-3.9032,-4.0182,-4.229,-4.3441,-4.4383,-4.5279,-4.4844,-4.449,-4.449,-4.449,-4.449,-4.449,-4.449,-4.449,-4.449,-4.449,-4.449,-4.449,-4.449,-4.449,-4.449,-4.449,-4.4709,0.1046,-0.0977,-0.2836,-0.3467,-0.4239,-0.5002,0.0,-0.5985,-0.6236,-0.6784,-0.6911,-0.6986,-0.7018,-0.7183,-0.7316,-0.7316,-0.7455,-0.81,-0.9721,-1.029,-1.0806,-1.1734,-1.2082,-1.2401,-1.2624,-1.2823,-1.3896,-1.6304,-1.6628,-1.7453,-1.8996,-1.912,-1.9418,-2.0085,-2.0098,-2.0283,-2.0591,-2.0591,-2.0823,-2.1239,-2.2414,-2.4023,-2.5995,-2.7147,-2.8493,-2.9955,-2.9955,-3.0144,-3.0464,-3.054,-3.069,-3.0934,-3.0934,-3.1046,-3.1362,-3.2903,-3.4927,-3.6959,-3.7062,-3.7702,-3.8485,-3.8485,-3.8485,-3.8485,-3.8485,-3.8485,-3.8485,-3.8485,-3.8485,-3.8485,-3.8485,-3.8485,-3.8485,-3.8485,-3.8485,-3.8485,-3.8485,-3.8485,-3.8485,-3.8485,-3.8485,-3.8485,-3.8485,-3.8485,-3.8485,-3.8485,-3.8485,-3.8535,-3.8635,-3.8784,-3.9598,-4.1538,-4.2795,-4.4247,-4.6078,-4.5183,-4.449,-4.449,-4.449,-4.449,-4.449,-4.449,-4.449,-4.449,-4.449,-4.449,-4.449,-4.449,-4.449,-4.449,-4.449,-4.4985,0.0,0.0,0.0,0.0,0.0,0.0,0.0,-0.5251,-0.5591,-0.6247,-0.6547,-0.6742,-0.6986,-0.7055,-0.7082,-0.7082,-0.7274,-0.784,-0.8982,-0.9911,-1.1391,-1.3857,-1.467,-1.4743,-1.4068,-1.5044,-1.5927,-1.6492,-1.7464,-1.8474,-1.9294,-1.9356,-1.9727,-2.0468,-2.0468,-2.0529,-2.0591,-2.0591,-2.1348,-2.2883,-2.3109,-2.4781,-2.7704,-2.7953,-2.8759,-2.9955,-2.9955,-2.9955,-3.0087,-3.0633,-3.0971,-3.1231,-3.1231,-3.1893,-3.3188,-3.5403,-3.6494,-3.7062,-3.7905,-3.8284,-3.8485,-3.8485,-3.8485,-3.8485,-3.8485,-3.8485,-3.8485,-3.8485,-3.8485,-3.8485,-3.8485,-3.8485,-3.8485,-3.8485,-3.8485,-3.8485,-3.8485,-3.8485,-3.8485,-3.8485,-3.8485,-3.8485,-3.8485,-3.8485,-3.8485,-3.8485,-3.8485,-3.8784,-3.9623,-4.0471,-4.1444,-4.2731,-4.3723,-4.4473,-4.4856,-4.4631,-4.449,-4.449,-4.449,-4.449,-4.449,-4.449,-4.449,-4.449,-4.449,-4.449,-4.449,-4.449,-4.449,-4.449,-4.449,-4.4985,0.0,0.0,0.0,0.0,0.0,0.0,0.0,0.0,0.0,0.0,0.0,-0.6291,-0.6568,0.0,-0.6827,-0.7002,-0.7601,-0.8552,-0.9807,-1.1177,-1.2565,-1.3919,-1.4815,-1.5308,-1.5071,-1.5727,-1.651,-1.7442,-1.8112,-1.8735,-1.9406,-1.9406,-1.9777,-2.0591,-2.0591,-2.0639,-2.0823,-2.147,-2.2414,-2.3664,-2.4884,-2.6447,-2.8184,-2.8816,-2.9387,-2.9955,-2.9955,-2.9955,-3.0011,-3.0633,-3.1214,-3.1585,-3.1585,-3.2684,-3.4458,-3.5613,-3.6758,-3.7804,-3.8284,-3.8485,-3.8485,-3.8485,-3.8485,-3.8485,-3.8485,-3.8485,-3.8485,-3.8485,-3.8485,-3.8485,-3.8485,-3.8485,-3.8485,-3.8485,-3.8485,-3.8485,-3.8485,-3.8485,-3.8485,-3.8485,-3.8485,-3.8485,-3.8485,-3.8485,-3.8485,-3.8485,-3.8485,-3.8884,-3.9916,-4.0471,-4.1423,-4.2959,-4.3574,-4.4049,-4.4446,-4.449,-4.449,-4.449,-4.449,-4.449,-4.449,-4.449,-4.449,-4.449,-4.449,-4.449,-4.449,-4.449,-4.449,-4.4562,-4.4985,-4.5683,0.0,0.0,0.0,0.0,0.0,0.0,0.0,0.0,0.0,0.0,0.0,0.0,0.0,0.0,0.0,-0.6858,-0.7947,-0.9235,-1.0743,-1.2592,-1.3801,-1.3791,-1.4618,-1.5426,-1.5942,-1.607,-1.6719,-1.8187,-1.8439,-1.8735,-1.9406,-1.9406,-1.9777,-2.0591,-2.0591,-2.0701,-2.1007,-2.2293,-2.3364,-2.4262,-2.6564,0.0,-2.8586,-2.9501,-2.9955,-2.9955,-2.9955,-2.9955,-3.0011,-3.0633,-3.1214,-3.1717,-3.1848,-3.3087,-3.4905,-3.5328,-3.6553,-3.7948,-3.8338,-3.8363,-3.8241,-3.8436,-3.8485,-3.8485,-3.8485,-3.8485,0.0,-3.8485,-3.8485,-3.8485,-3.8485,-3.8485,-3.8485,-3.8485,-3.8485,-3.8485,-3.8485,-3.8485,-3.8485,-3.8485,-3.8485,-3.8485,-3.8485,-3.8834,-3.9107,-3.9107,-3.9107,-3.9451,-4.0497,-4.0641,-4.1355,-4.3186,-4.344,-4.3709,-4.4446,-4.4293,-4.4265,-4.449,-4.4293,-4.4196,-4.4196,-4.3942,-4.3899,-4.4168,-4.3942,-4.4012,-4.449,-4.449,-4.449,-4.4506,-4.3713,-4.4306,0.0,0.0,0.0,0.0,0.0,0.0,0.0,0.0,0.0,0.0,0.0,0.0,0.0,0.0,0.0,0.0,-0.782,-0.9105,-1.0259,-1.2716,-1.464,-1.5067,-1.5659,-1.623,-1.6726,-1.7175,-1.7535,-1.7773,-1.8217,-1.8735,-1.9406,-1.9406,0.0,0.0,0.0,-2.0701,-2.1007,-2.2293,-2.3769,-2.5464,-2.6914,-2.8378,-2.9728,-2.9898,-2.9955,-2.9955,-2.9955,-2.9955,-3.0011,-3.0633,-3.0934,-3.1046,-3.1661,-3.2595,-3.3869,-3.598,-3.6309,-3.602,-3.785,0.0,0.0,-3.8216,-3.8485,-3.8485,-3.8485,-3.8485,-3.8485,-3.8485,-3.8485,-3.8485,-3.8485,-3.8485,-3.8485,-3.8485,-3.8485,-3.8485,-3.8485,-3.8485,-3.8485,-3.8485,-3.8485,-3.8485,-3.8485,-4.0011,-4.1255,-4.1255,-4.1255,-4.1585,-4.2685,-4.2776,-4.3214,-4.4226,-4.4358,0.0,-4.449,-4.3548,-4.3379,-4.4434,-4.352,-4.297,-4.297,-4.1841,-4.1785,-4.2942,-4.1841,-4.2308,-4.449,-4.449,-4.449,-4.4365,-3.7374,-3.6871,0.0,0.0,0.0,0.0,0.0,0.0,0.0,0.0,0.0,0.0,0.0,0.0,0.0,0.0,0.0,0.0,-0.817,-0.9865,-1.0855,-1.2443,-1.3887,-1.4779,-1.5344,-1.5872,-1.6428,-1.6674,-1.6931,-1.7223,-1.7726,-1.8334,-1.9084,-1.9307,-1.9777,-2.0591,-2.0591,-2.0701,-2.1007,-2.3199,-2.4738,-2.5684,-2.79,-2.9312,-2.9955,-2.9955,-2.9955,-2.9955,-2.9955,-3.0087,-3.0332,-3.0765,-3.0971,-3.1076,0.0,0.0,0.0,0.0,-3.4691,-3.5508,-3.6386,-3.6411,-3.6071,-3.6557,-3.6703,-3.6703,-3.6703,-3.6703,-3.6825,-3.7387,-3.7582,-3.7704,-3.8338,-3.8485,-3.8485,-3.8485,-3.8485,-3.8485,-3.8485,-3.8485,-3.8485,-3.8485,-3.8983,0.0,-3.9378,-4.0615,-4.1585,-4.1585,-4.1585,-4.1985,-4.3005,-4.3168,-4.3485,-4.4402,-4.449,-4.449,-4.449,-4.4083,0.0,0.0,0.0,-4.3773,-4.3773,-4.3266,0.0,0.0,0.0,-4.0217,-4.0441,-3.8551,0.0,0.0,-3.5556,-3.5326,0.0,0.0,0.0,0.0,0.0,0.0,0.0,0.0,0.0,0.0,0.0,0.0,0.0,0.0,0.0,0.0,-0.8303,-0.99,-1.1108,-1.2266,-1.3407,-1.444,-1.4983,-1.5446,-1.5872,-1.6035,-1.6268,-1.6697,-1.7188,-1.7775,-1.8457,-1.8815,-1.9434,-2.0409,-2.0515,-2.0814,-2.1411,-2.3897,-2.5228,-2.5573,-2.8066,-2.9216,-2.9216,-2.9216,-2.9216,-2.9216,-2.9216,-2.9456,-2.9826,-3.0101,-3.0355,-3.0544,-2.9842,-3.0071,-3.1002,-3.1886,-3.3354,-3.4946,-3.5247,-3.519,-3.4995,-3.5288,-3.5386,-3.5386,-3.5386,-3.5386,-3.5556,-3.629,-3.6509,-3.668,-3.7435,-3.7631,-3.7631,-3.7631,-3.785,-3.807,-3.807,-3.829,-3.8485,-3.8485,-3.9079,-3.9701,-3.9987,-4.1119,-4.2124,-4.2355,-4.2401,-4.2677,-4.344,-4.353,-4.3754,-4.4446,-4.449,-4.449,-4.449,-4.4252,-4.4168,-4.449,-4.4224,-4.4196,-4.449,-4.4224,-4.3886,-4.352,-4.0832,-3.8866,0.0,0.0,0.0,0.0,0.0,0.0,0.0,0.0,0.0,0.0,0.0,0.0,0.0,0.0,0.0,0.0,0.0,0.0,0.0,0.0,0.0,0.0,0.0,0.0,-1.0485,-1.236,-1.3824,-1.4511,-1.4816,-1.5076,-1.533,-1.5825,-1.6116,-1.614,-1.6662,-1.7126,-1.7525,-1.7809,-1.8602,-2.0008,-2.0288,-2.1067,-2.2477,-2.397,-2.4885,-2.5277,-2.676,-2.7492,-2.7492,-2.7492,-2.7492,-2.7492,-2.7492,-2.7667,-2.7927,-2.8289,-2.8598,-2.8957,-3.0042,-3.1024,-3.1875,-3.1988,-3.2726,-3.3846,-3.4992,-3.4702,-3.4063,-3.5044,-3.5386,-3.5386,-3.5386,-3.5386,-3.5386,-3.5434,-3.5434,-3.5459,-3.5483,-3.5483,-3.5483,-3.5483,-3.6241,-3.6972,-3.6972,-3.7752,-3.8485,-3.8485,-3.8529,-3.8879,-3.9865,-4.1774,-4.3394,-4.427,-4.4402,0.0,-4.4446,-4.4446,-4.4446,-4.449,-4.449,-4.449,-4.449,-4.3435,-4.3337,-4.4434,-4.3435,-4.3337,-4.4462,-4.3407,-4.2208,-4.0967,-3.9697,-3.855,-3.7514,0.0,0.0,0.0,0.0,0.0,0.0,0.0,0.0,0.0,0.0,0.0,0.0,0.0,0.0,0.0,0.0,0.0,0.0,0.0,0.0,0.0,0.0,0.0,0.0,-1.1538,-1.2608,-1.4363,-1.4816,-1.5076,-1.5359,-1.551,-1.5615,-1.5615,-1.6353,-1.687,-1.6981,-1.7576,-1.8225,-1.8984,-1.9743,-2.0454,-2.1119,-2.3331,-2.4586,-2.4923,-2.6529,-2.7331,-2.7416,-2.7416,-2.7416,-2.7416,-2.7572,-2.7831,-2.8191,-2.8519,-2.8477,-2.8378,-2.9338,-3.0305,-3.1138,-3.1146,-3.1788,-3.2645,-3.3016,-3.2994,-3.2726,-3.3049,-3.317,-3.317,-3.317,-3.317,-3.3384,-3.4117,-3.4336,-3.4483,-3.519,-3.5386,-3.5386,-3.5386,-3.5654,-3.6038,-3.6568,-3.6541,-3.6552,-3.7091,-3.8224,-3.8713,-3.7328,-4.0316,-4.242,-4.1083,-4.2984,-4.449,-4.449,-4.449,-4.449,-4.449,-4.449,-4.449,-4.449,-4.4168,-4.4111,-4.449,-4.4168,-4.4111,-4.449,-4.414,-4.3322,-4.2123,-4.17,-3.8625,-3.2731,0.0,0.0,0.0,0.0,0.0,0.0,0.0,0.0,0.0,0.0,0.0,0.0,0.0,0.0,0.0,0.0,0.0,0.0,0.0,0.0,0.0,0.0,0.0,0.0,0.0,0.0,-1.4219,-1.4308,0.0,-1.495,-1.4686,-1.4581,-1.4924,-1.594,-1.6449,-1.6147,-1.7236,-1.8015,-1.8369,-1.9156,-2.0004,-2.0966,-2.2709,-2.3906,-2.4577,-2.5736,-2.6413,-2.6564,-2.6564,-2.6564,-2.6614,-2.6865,-2.7146,-2.7475,-2.8068,-2.8174,-2.8003,-2.9175,-2.9937,-3.0499,-3.086,-3.1358,-3.1906,-3.2011,-3.2074,-3.2074,-3.2074,-3.1702,-3.1329,-3.1329,-3.123,-3.1366,-3.2176,-3.2729,-3.323,-3.399,-3.417,-3.417,-3.417,-3.4531,-3.498,-3.5493,-3.5657,-3.5887,-3.6251,-3.7407,-3.7613,-3.5403,-3.7894,-3.978,-3.8587,-4.0757,-4.2899,-4.3773,-4.4237,-4.449,-4.449,-4.449,-4.449,-4.449,-4.449,-4.449,-4.449,-4.449,-4.4293,-4.3914,-4.3886,-4.2899,-4.0797,-4.0436,-3.6972,0.0,0.0,0.0,0.0,0.0,0.0,0.0,0.0,0.0,0.0,0.0,0.0,0.0,0.0,0.0,0.0,0.0,0.0,0.0,0.0,0.0,0.0,0.0,0.0,0.0,0.0,0.0,-1.4063,-1.3338,0.0,0.0,0.0,0.0,-1.41,-1.5432,-1.5921,-1.5206,-1.6823,-1.7948,-1.8256,-1.8595,-1.9762,-2.1951,-2.2244,-2.3039,-2.4307,-2.4545,-2.4801,-2.5038,-2.5086,-2.5086,-2.5086,-2.5341,-2.5518,-2.5767,-2.7067,-2.7699,-2.795,-2.9364,-2.9837,-2.9828,-3.0931,-3.1247,-3.1283,-3.1865,-3.2035,-3.1945,-3.1945,-3.1003,-2.9845,-2.9755,-2.9552,0.0,0.0,-3.0676,-3.1626,-3.1972,-3.2059,-3.2084,-3.2049,-3.2964,-3.3833,-3.3877,-3.5214,-3.6285,-3.5798,-3.592,-3.5512,-3.374,0.0,-3.5523,-3.6506,-3.792,-3.9782,-4.2265,-4.366,-4.4406,-4.4406,-4.4462,-4.449,-4.449,-4.4434,-4.4406,-4.4406,-4.435,-4.383,-4.2716,-4.2547,-4.0741,-3.7017,-3.597,0.0,0.0,0.0,0.0,0.0,0.0,0.0,0.0,0.0,0.0,0.0,0.0,0.0,0.0,0.0,0.0,0.0,0.0,0.0,0.0,0.0,0.0,0.0,0.0,0.0,0.0,-1.0517,-1.1673,-1.3539,-1.2842,-1.2531,0.0,0.0,0.0,0.0,0.0,0.0,-1.5321,-1.6124,-1.7144,-1.8379,-1.9327,-2.049,-2.1951,-2.2797,-2.3474,-2.4002,-2.4259,-2.4545,-2.4783,-2.4991,-2.5086,-2.5086,-2.5341,-2.5518,-2.5762,-2.7254,-2.7975,-2.7977,-2.7056,-2.6643,-2.6764,-2.8126,-2.7898,-2.7489,-3.0678,-3.114,-3.0362,-3.0439,-2.96,-2.8286,-2.7086,0.0,0.0,0.0,0.0,-3.0358,-3.1488,-3.1759,-3.1827,-3.2045,-3.2812,-3.3699,-3.4287,-3.4803,-3.4471,-3.2209,-3.2313,-3.1173,-2.6178,-2.7823,0.0,-3.013,-3.3692,-3.7222,-3.9697,-4.1898,-4.3224,-4.3224,-4.3999,-4.449,-4.449,-4.3717,-4.3224,-4.3224,-4.2321,-4.1644,-4.1333,-3.9556,-3.7242,-3.4449,0.0,0.0,0.0,0.0,0.0,0.0,0.0,0.0,0.0,0.0,0.0,0.0,0.0,0.0,0.0,0.0,0.0,0.0,0.0,0.0,0.0,0.0,0.0,0.0,0.0,0.0,0.0,-0.9648,-1.0787,-1.2109,-1.1492,-1.1224,0.0,0.0,0.0,0.0,0.0,0.0,0.0,0.0,0.0,-1.6576,-1.7948,-1.9231,-2.0317,-2.1978,-2.3051,-2.3398,-2.3904,-2.4307,-2.4688,-2.4849,-2.4944,-2.5133,-2.5772,-2.5623,-2.4973,-2.5971,-2.5963,-2.5231,0.0,0.0,0.0,0.0,-2.5461,-2.5661,-2.8149,-2.8949,-2.8727,-2.8215,0.0,0.0,0.0,0.0,0.0,0.0,0.0,-2.9129,-3.0942,-3.1908,-3.25,-3.2645,-3.3065,-3.3553,-3.4009,-3.2834,-3.1084,-2.8886,-2.8801,-2.7677,-2.3124,-2.4034,0.0,0.0,0.0,-3.4031,-3.7073,-4.0064,-4.1898,-4.1898,-4.2518,-4.2899,-4.2899,-4.2293,-4.1898,-4.1898,-4.1221,-4.0092,-3.8512,-3.6565,-3.3575,0.0,0.0,0.0,0.0,0.0,0.0,0.0,0.0,0.0,0.0,0.0,0.0,0.0,0.0,0.0,0.0,0.0,0.0,0.0,0.0,0.0,0.0,0.0,0.0,0.0,0.0,0.0,0.0,0.0,-1.0108,-1.0361,0.0,0.0,0.0,0.0,0.0,0.0,0.0,0.0,0.0,0.0,0.0,0.0,0.0,-1.7002,-1.8076,-2.0244,-2.1637,-2.2242,-2.2981,-2.3643,-2.4217,-2.4376,-2.4629,-2.491,-2.5842,0.0,-2.3968,-2.4041,0.0,0.0,0.0,0.0,0.0,0.0,0.0,0.0,0.0,0.0,0.0,0.0,0.0,0.0,0.0,0.0,0.0,0.0,0.0,0.0,0.0,0.0,-3.2843,-3.2879,-3.3071,-3.3099,-3.2446,-2.9793,-2.714,-2.5637,-2.5301,-2.4453,0.0,0.0,0.0,0.0,0.0,0.0,-3.4393,-3.8202,-4.0572,-4.0572,-4.0713,-4.0826,-4.0826,-4.0685,-4.0572,-4.0572,-3.9951,-3.8173,-3.5014,-3.349,0.0,0.0,0.0,0.0,0.0,0.0,0.0,0.0,0.0,0.0,0.0,0.0,0.0,0.0,0.0,0.0,0.0,0.0,0.0,0.0,0.0,0.0,0.0,0.0,0.0,0.0,0.0,0.0,0.0,0.0,0.0,0.0,0.0,0.0,0.0,0.0,0.0,0.0,0.0,0.0,0.0,0.0,0.0,0.0,0.0,0.0,0.0,0.0,0.0,0.0,-2.0058,-2.0784,-2.184,-2.2935,-2.3477,-2.3615,-2.3369,-2.3662,-2.4161,-2.322,0.0,0.0,0.0,0.0,0.0,0.0,0.0,0.0,0.0,0.0,0.0,0.0,0.0,0.0,0.0,0.0,0.0,0.0,0.0,0.0,0.0,0.0,-2.9632,-2.9879,-3.1234,-3.1336,-2.7263,0.0,0.0,0.0,0.0,0.0,0.0,0.0,0.0,0.0,0.0,0.0,-3.1712,-3.6396,-3.9387,-3.9387,-4.0233,-4.0826,-4.0826,-3.9923,-3.9387,-3.9387,-3.5437,-3.2841,0.0,0.0,0.0,0.0,0.0,0.0,0.0,0.0,0.0,0.0,0.0,0.0,0.0,0.0,0.0,0.0,0.0,0.0,0.0,0.0,0.0,0.0,0.0,0.0,0.0,0.0,0.0,0.0,0.0,0.0,0.0,0.0,0.0,0.0,0.0,0.0,0.0,0.0,0.0,0.0,0.0,0.0,0.0,0.0,0.0,0.0,0.0,0.0,0.0,0.0,0.0,0.0,0.0,0.0,0.0,0.0,0.0,0.0,-2.1733,-2.115,0.0,0.0,0.0,0.0,0.0,0.0,0.0,0.0,0.0,0.0,0.0,0.0,0.0,0.0,0.0,0.0,0.0,0.0,0.0,0.0,0.0,0.0,0.0,0.0,0.0,0.0,0.0,0.0,0.0,0.0,0.0,0.0,0.0,0.0,0.0,0.0,0.0,0.0,0.0,0.0,-3.0187,-3.4957,-3.8061,-3.8061,-3.8568,-3.8907,-3.8907,-3.8399,-3.7525,-3.6227,-3.3236,0.0,0.0,0.0,0.0,0.0,0.0,0.0,0.0,0.0,0.0,0.0,0.0,0.0,0.0,0.0,0.0,0.0,0.0,0.0,0.0,0.0,0.0,0.0,0.0,0.0,0.0,0.0,0.0,0.0,0.0,0.0,0.0,0.0,0.0,0.0,0.0,0.0,0.0,0.0,0.0,0.0,0.0,0.0,0.0,0.0,0.0,0.0,0.0,0.0,0.0,0.0,0.0,0.0,0.0,0.0,0.0,0.0,0.0,0.0,-1.9858,-1.8605,0.0,0.0,0.0,0.0,0.0,0.0,0.0,0.0,0.0,0.0,0.0,0.0,0.0,0.0,0.0,0.0,0.0,0.0,0.0,0.0,0.0,0.0,0.0,0.0,0.0,0.0,0.0,0.0,0.0,0.0,0.0,0.0,0.0,0.0,0.0,0.0,0.0,0.0,0.0,0.0,-2.9427,-3.4082,-3.713,-3.713,-3.713,-3.713,-3.713,-3.713,-3.6086,-3.3603,-3.1487,0.0,0.0,0.0,0.0,0.0,0.0,0.0,0.0,0.0,0.0,0.0,0.0,0.0,0.0,0.0,0.0,0.0,0.0,0.0,0.0,0.0,0.0,0.0,0.0,0.0,0.0,0.0,0.0,0.0,0.0,0.0,0.0,0.0,0.0,0.0,0.0,0.0,0.0,0.0,0.0,0.0,0.0,0.0,0.0,0.0,0.0,0.0,0.0,0.0,0.0,0.0,0.0,0.0,0.0,0.0,0.0,0.0,0.0,0.0,0.0,0.0,0.0,0.0,0.0,0.0,0.0,0.0,0.0,0.0,0.0,0.0,0.0,0.0,0.0,0.0,0.0,0.0,0.0,0.0,0.0,0.0,0.0,0.0,0.0,0.0,0.0,0.0,0.0,0.0,0.0,0.0,0.0,0.0,0.0,0.0,0.0,0.0,0.0,0.0,0.0,0.0,-2.9427,-3.4082,-3.713,-3.713,-3.713,-3.713,-3.713,-3.713,-3.6086,-3.3603,0.0,0.0,0.0,0.0,0.0,0.0,0.0,0.0,0.0,0.0,0.0,0.0,0.0,0.0,0.0,0.0,0.0,0.0,0.0,0.0,0.0,0.0,0.0,0.0,0.0,0.0,0.0,0.0,0.0,0.0,0.0,0.0,0.0,0.0,0.0,0.0,0.0,0.0,0.0,0.0,0.0,0.0,0.0,0.0,0.0,0.0,0.0,0.0,0.0,0.0,0.0,0.0,0.0,0.0,0.0,0.0,0.0,0.0,0.0,0.0,0.0,0.0,0.0,0.0,0.0,0.0,0.0,0.0,0.0,0.0,0.0,0.0,0.0,0.0,0.0,0.0,0.0,0.0,0.0,0.0,0.0,0.0,0.0,0.0,0.0,0.0,0.0,0.0,0.0,0.0,0.0,0.0,0.0,0.0,0.0,0.0,0.0,0.0,0.0,0.0,0.0,0.0,-3.0386,-3.4506,-3.713,-3.713,-3.713,-3.713,-3.713,-3.713,-3.5437,-3.1487,0.0,0.0,0.0,0.0,0.0,0.0,0.0,0.0,0.0,0.0,0.0,0.0,0.0,0.0,0.0,0.0,0.0,0.0,0.0,0.0,0.0,0.0,0.0,0.0,0.0,0.0,0.0,0.0,0.0,0.0,0.0,0.0,0.0,0.0,0.0,0.0,0.0,0.0,0.0,0.0,0.0,0.0,0.0,0.0,0.0,0.0,0.0,0.0,0.0,0.0,0.0,0.0,0.0,0.0,0.0,0.0,0.0,0.0,0.0,0.0,0.0,0.0,0.0,0.0,0.0,0.0,0.0,0.0,0.0,0.0,0.0,0.0,0.0,0.0,0.0,0.0,0.0,0.0,0.0,0.0,0.0,0.0,0.0,0.0,0.0,0.0,0.0,0.0,0.0,0.0,0.0,0.0,0.0,0.0,0.0,0.0,0.0,0.0,0.0,0.0,0.0,0.0,-3.1035,-3.4788,-3.713,-3.713,-3.713,-3.713,-3.713,-3.713,-3.5014,-3.0047,0.0,0.0,0.0,0.0,0.0,0.0,0.0,0.0,0.0,0.0,0.0,0.0,0.0,0.0,0.0,0.0,0.0,0.0,0.0,0.0,0.0,0.0,0.0,0.0,0.0,0.0,0.0,0.0,0.0,0.0,0.0,0.0,0.0,0.0,0.0,0.0,0.0,0.0,0.0,0.0,0.0,0.0,0.0,0.0,0.0,0.0,0.0,0.0,0.0,0.0,0.0,0.0,0.0,0.0,0.0,0.0,0.0,0.0,0.0,0.0,0.0,0.0,0.0,0.0,0.0,0.0,0.0,0.0,0.0,0.0,0.0,0.0,0.0,0.0,0.0,0.0,0.0,0.0,0.0,0.0,0.0,0.0,0.0,0.0,0.0,0.0,0.0,0.0,0.0,0.0,0.0,0.0,0.0,0.0,0.0,0.0,0.0,0.0,0.0,0.0,0.0,0.0,-3.1066,-3.4788,-3.713,-3.713,-3.713,-3.713,-3.713,-3.713,-3.5014,0.0,0.0,0.0,0.0,0.0,0.0,0.0,0.0,0.0,0.0,0.0,0.0,0.0,0.0,0.0,0.0,0.0,0.0,0.0,0.0,0.0,0.0,0.0,0.0,0.0,0.0,0.0,0.0,0.0,0.0,0.0,0.0,0.0,0.0,0.0,0.0,0.0,0.0,0.0,0.0,0.0,0.0,0.0,0.0,0.0,0.0,0.0,0.0,0.0,0.0,0.0,0.0,0.0,0.0,0.0,0.0,0.0,0.0,0.0,0.0,0.0,0.0,0.0,0.0,0.0,0.0,0.0,0.0,0.0,0.0,0.0,0.0,0.0,0.0,0.0,0.0,0.0,0.0,0.0,0.0,0.0,0.0,0.0,0.0,0.0,0.0,0.0,0.0,0.0,0.0,0.0,0.0,0.0,0.0,0.0,0.0,0.0,0.0,0.0,0.0,0.0,0.0,0.0,-3.2726,-3.4856,-3.6227,-3.7045,-3.713,-3.713,-3.713,-3.713,-3.5014,-3.0047,0.0,0.0,0.0,0.0,0.0,0.0,0.0,0.0,0.0,0.0,0.0,0.0,0.0,0.0,0.0,0.0,0.0,0.0,0.0,0.0,0.0,0.0,0.0,0.0,0.0,0.0,0.0,0.0,0.0,0.0,0.0,0.0,0.0,0.0,0.0,0.0,0.0,0.0,0.0,0.0,0.0,0.0,0.0,0.0,0.0,0.0,0.0,0.0,0.0,0.0,0.0,0.0,0.0,0.0,0.0,0.0,0.0,0.0,0.0,0.0,0.0,0.0,0.0,0.0,0.0,0.0,0.0,0.0,0.0,0.0,0.0,0.0,0.0,0.0,0.0,0.0,0.0,0.0,0.0,0.0,0.0,0.0,0.0,0.0,0.0,0.0,0.0,0.0,0.0,0.0,0.0,0.0,0.0,0.0,0.0,0.0,0.0,0.0,0.0,0.0,0.0,0.0,0.0,-3.5168,-3.6311,-3.7045,-3.713,-3.713,-3.713,-3.713,-3.5211,-3.0697,0.0,0.0,0.0,0.0,0.0,0.0,0.0,0.0,0.0,0.0,0.0,0.0,0.0,0.0,0.0,0.0,0.0,0.0,0.0,0.0,0.0,0.0,0.0,0.0,0.0,0.0,0.0,0.0,0.0,0.0,0.0,0.0,0.0,0.0,0.0,0.0,0.0,0.0,0.0,0.0,0.0,0.0,0.0,0.0,0.0,0.0,0.0,0.0,0.0,0.0,0.0,0.0,0.0,0.0,0.0,0.0,0.0,0.0,0.0,0.0,0.0,0.0,0.0,0.0,0.0,0.0,0.0,0.0,0.0,0.0,0.0,0.0,0.0,0.0,0.0,0.0,0.0,0.0,0.0,0.0,0.0,0.0,0.0,0.0,0.0,0.0,0.0,0.0,0.0,0.0,0.0,0.0,0.0,0.0,0.0,0.0,0.0,0.0,0.0,0.0,0.0,0.0,0.0,-3.5619,-3.7017,-3.713,-3.713,-3.713,-3.713,-3.713,-3.5521,-3.1741,-2.8044,0.0,0.0,0.0,0.0,0.0,0.0,0.0,0.0,0.0,0.0,0.0,0.0,0.0,0.0,0.0,0.0,0.0,0.0,0.0,0.0,0.0,0.0,0.0,0.0,0.0,0.0,0.0,0.0,0.0,0.0,0.0,0.0,0.0,0.0,0.0,0.0,0.0,0.0,0.0,0.0,0.0,0.0,0.0,0.0,0.0,0.0,0.0,0.0,0.0,0.0,0.0,0.0,0.0,0.0,0.0,0.0,0.0,0.0,0.0,0.0,0.0,0.0,0.0,0.0,0.0,0.0,0.0,0.0,0.0,0.0,0.0,0.0,0.0,0.0,0.0,0.0,0.0,0.0,0.0,0.0,0.0,0.0,0.0,0.0,0.0,0.0,0.0,0.0,0.0,0.0,0.0,0.0,0.0,0.0,0.0,0.0,0.0,0.0,0.0,0.0,0.0,0.0,-3.5644,-3.6114,-3.7017,-3.713,-3.713,-3.713,-3.713,-3.5521,-3.1741,-2.8044,0.0,0.0,0.0,0.0,0.0,0.0,0.0,0.0,0.0,0.0,0.0,0.0,0.0,0.0,0.0,0.0,0.0,0.0,0.0,0.0,0.0,0.0,0.0,0.0,0.0,0.0,0.0,0.0,0.0,0.0,0.0,0.0,0.0,0.0,0.0,0.0,0.0,0.0,0.0,0.0,0.0,0.0,0.0,0.0,0.0,0.0,0.0,0.0,0.0,0.0,0.0,0.0,0.0,0.0,0.0,0.0,0.0,0.0,0.0,0.0,0.0,0.0,0.0,0.0,0.0,0.0,0.0,0.0,0.0,0.0,0.0,0.0,0.0,0.0,0.0,0.0,0.0,0.0,0.0,0.0,0.0,0.0,0.0,0.0,0.0,0.0,0.0,0.0,0.0,0.0,0.0,0.0,0.0,0.0,0.0,0.0,0.0,0.0,0.0,0.0,0.0,0.0,-3.2745,-3.4521,-3.6868,-3.713,-3.713,-3.713,-3.713,-3.5775,-3.2587,-2.8383,0.0,0.0,0.0,0.0,0.0,0.0,0.0,0.0,0.0,0.0,0.0,0.0,0.0,0.0,0.0,0.0,0.0,0.0,0.0,0.0,0.0,0.0,0.0,0.0,0.0,0.0,0.0,0.0,0.0,0.0,0.0,0.0,0.0,0.0,0.0,0.0,0.0,0.0,0.0,0.0,0.0,0.0,0.0,0.0,0.0,0.0,0.0,0.0,0.0,0.0,0.0,0.0,0.0,0.0,0.0,0.0,0.0,0.0,0.0,0.0,0.0,0.0,0.0,0.0,0.0,0.0,0.0,0.0,0.0,0.0,0.0,0.0,0.0,0.0,0.0,0.0,0.0,0.0,0.0,0.0,0.0,0.0,0.0,0.0,0.0,0.0,0.0,0.0,0.0,0.0,0.0,0.0,0.0,0.0,0.0,0.0,0.0,0.0,0.0,0.0,0.0,0.0,0.0,-3.3109,-3.6529,-3.7053,-3.713,-3.713,-3.713,-3.5973,-3.3321,0.0,0.0,0.0,0.0,0.0,0.0,0.0,0.0,0.0,0.0,0.0,0.0,0.0,0.0,0.0,0.0,0.0,0.0,0.0,0.0,0.0,0.0,0.0,0.0,0.0,0.0,0.0,0.0,0.0,0.0,0.0,0.0,0.0,0.0,0.0,0.0,0.0,0.0,0.0,0.0,0.0,0.0,0.0,0.0,0.0,0.0,0.0,0.0,0.0,0.0,0.0,0.0,0.0,0.0,0.0,0.0,0.0,0.0,0.0,0.0,0.0,0.0,0.0,0.0,0.0,0.0,0.0,0.0,0.0,0.0,0.0,0.0,0.0,0.0,0.0,0.0,0.0,0.0,0.0,0.0,0.0,0.0,0.0,0.0,0.0,0.0,0.0,0.0,0.0,0.0,0.0,0.0,0.0,0.0,0.0,0.0,0.0,0.0,0.0,0.0,0.0,0.0,0.0,0.0,-3.378,-3.5475,-3.656,-3.713,-3.713,-3.713,-3.5606,-3.2023,0.0,0.0,0.0,0.0,0.0,0.0,0.0,0.0,0.0,0.0,0.0,0.0,0.0,0.0]}]]]